     2              OBSERVATION DATA    GPS                 RINEX VERSION / TYPE
teqc 2000Jul20 Karen Wendt 20031231 22:49:16UTC             PGM / RUN BY / DATE
                                                            COMMENT
L2: 1 -> 1; 150 -> 5; 250 -> 9                              COMMENT
L2: 1 -> 1; 150 -> 5; 250 -> 9                              COMMENT
L2: 1 -> 1; 150 -> 5; 250 -> 9                              COMMENT
L2: 1 -> 1; 150 -> 5; 250 -> 9                              COMMENT
L2: 1 -> 1; 150 -> 5; 250 -> 9                              COMMENT
L2: 1 -> 1; 150 -> 5; 250 -> 9                              COMMENT
L2: 1 -> 1; 150 -> 5; 250 -> 9                              COMMENT
L2: 1 -> 1; 150 -> 5; 250 -> 9                              COMMENT
L2: 1 -> 1; 150 -> 5; 250 -> 9                              COMMENT
L2: 1 -> 1; 150 -> 5; 250 -> 9                              COMMENT
L2: 1 -> 1; 150 -> 5; 250 -> 9                              COMMENT
L2: 1 -> 1; 150 -> 5; 250 -> 9                              COMMENT
L2: 1 -> 1; 150 -> 5; 250 -> 9                              COMMENT
L2: 1 -> 1; 150 -> 5; 250 -> 9                              COMMENT
Original Marker Name: 2068 2068_smtpd_SLO_046_PM00.33       COMMENT
Campaign Name: USGS San Simeon 2003-2004                    COMMENT
4-Character Station Name: 2068                              COMMENT
6-Character Antenna Code: DMRCHT                            COMMENT
Vertical Measurement Point: BCR                             COMMENT
Vertical Offset to Rinex Ref. Point: 0.0348                 COMMENT
Radial Measurement Point: ECF                               COMMENT
Radial Offset to Rinex Ref. Point: 0.1897                   COMMENT
Antenna Height from Field Measurement: 1.5030 m             COMMENT
Additional Antenna Identification Info.:                    COMMENT
Turborogue and Ashtech Choke Ring                           COMMENT
Tripod sunk in asphalt. End heigh 1.497m.                   COMMENT
Original XYZ: -2679699.7735 -4452321.3607 3685844.3697      COMMENT
New XYZ position is based on association with SCEC monument COMMENT
E1F0J5C2+0011. Position of that monument is believed to be  COMMENT
valid to within 1 m horizontally; vertical accuracy         COMMENT
should be no worse than 3-times this value.                 COMMENT
                                                            COMMENT
Revised Rinex header created by UCSD GPS archive for        COMMENT
GSAC on 20-Apr-2005 (2005:110) 16:27:10 GMT                 COMMENT
For assistance contact dagnew@ucsd.edu                      COMMENT
or anderson@python.ucsd.edu                                 COMMENT
                                                            COMMENT
SLO 046 PM00.33                                             MARKER NAME
CHS US GEOLOGICAL SURVEY                                    OBSERVER / AGENCY
ZE1200331018 ASHTECH UZ-12 ZE00                             REC # / TYPE / VERS
CR14330 DORNE-MARGOL. TYPE T                                ANT # / TYPE
 -2679720.0000 -4452299.0000  3685834.0000                  APPROX POSITION XYZ
        1.4562        0.0000        0.0000                  ANTENNA: DELTA H/E/N
     1     1     0                                          WAVELENGTH FACT L1/2
     5    C1    L1    L2    P1    P2                        # / TYPES OF OBSERV
    30                                                      INTERVAL
  2003    12    26     0     0    0.000000                  TIME OF FIRST OBS
  2003    12    26    23    59   30.000000                  TIME OF LAST OBS
                                                            END OF HEADER
 03 12 26  0  0  0.0000000  0  8G17G 4G30G24G 9G10G 6G 5
  20644588.043   -23212558.40644 -18074403.02442  20644589.508    20644587.835
  23986217.986    -1999665.64443     71136.23842  23986219.720    23986219.225
  20939731.391   -15677941.94243 -12208759.61342  20939734.077    20939731.772
  21044977.511   -18048044.75944 -14045255.03142  21044979.387    21044977.839
  24513161.092      679994.62143    549591.22342  24513162.695    24513161.447
  22002107.895    -8936071.29643  -6942429.07542  22002109.698    22002108.166
  23261053.590    -6659563.77043  -5171447.89142  23261055.754    23261056.185
  20245570.708   -20907927.77944 -16240491.16542  20245572.440    20245570.362
 03 12 26  0  0 30.0000000  0  8G17G 4G30G24G 9G10G 6G 5
  20640560.102   -23233725.35144 -18090896.72742  20640561.587    20640559.960
  24005588.751    -1897873.46543    150454.75942  24005590.823    24005589.908
  20928078.726   -15739177.23144 -12256475.38942  20928081.371    20928079.009
  21055449.003   -17993016.78444 -14002376.09542  21055450.883    21055449.379
  24532092.710      779478.67743    627111.23642  24532094.244    24532092.532
  21988076.964    -9009804.29043  -6999883.29742  21988078.769    21988077.331
  23248227.794    -6726964.26943  -5223967.71642  23248229.935    23248230.232
  20248173.017   -20894252.68644 -16229835.24542  20248174.693    20248172.578
 03 12 26  0  1  0.0000000  0  8G17G 4G30G24G 9G10G 6G 5
  20636614.585   -23254459.15444 -18107052.92242  20636616.036    20636614.471
  24024969.310    -1796030.55143    229812.83042  24024971.716    24024970.352
  20916504.274   -15800001.31543 -12303870.73742  20916506.933    20916504.513
  21065984.284   -17937653.70744 -13959236.03042  21065986.186    21065984.705
  24551012.679      878903.69143    704585.22942  24551014.508    24551012.444
  21974123.303    -9083131.02543  -7057020.96042  21974125.098    21974123.732
  23235411.598    -6794315.04843  -5276448.77842  23235413.793    23235413.763
  20250875.620   -20880050.44044 -16218768.55442  20250877.330    20250875.111
 03 12 26  0  1 30.0000000  0  8G17G 4G30G24G 9G10G 6G 5
  20632752.401   -23274755.01344 -18122867.86042  20632753.838    20632752.267
  24044359.722    -1694134.01143    309212.66042  24044362.022    24044361.063
  20905009.423   -15860406.99843 -12350940.06042  20905012.103    20905009.576
  21076583.790   -17881952.88844 -13915832.79442  21076585.710    21076584.253
  24569921.724      978272.07443    782015.08142  24569923.891    24569922.093
  21960248.382    -9156043.57943  -7113835.88642  21960250.170    21960248.945
  23222605.756    -6861610.88643  -5328887.03942  23222608.103    23222607.567
  20253679.587   -20865315.66044 -16207286.90242  20253681.299    20253678.993
 03 12 26  0  2  0.0000000  0  8G17G 4G30G24G 9G10G 6G 5
  20628972.749   -23294617.18244 -18138344.85142  20628974.233    20628972.563
  24063758.416    -1592189.73343    388649.73042  24063761.130    24063760.675
  20893593.784   -15920395.94643 -12397684.65842  20893596.523    20893593.965
  21087246.383   -17825920.54544 -13872171.22742  21087248.320    21087246.859
  24588819.002     1077577.30543    859395.77342  24588820.661    24588818.945
  21946452.298    -9228542.23343  -7170328.28042  21946454.039    21946452.956
  23209809.536    -6928855.50143  -5381285.37242  23209811.976    23209811.226
  20256584.141   -20850051.90744 -16195393.06042  20256585.909    20256583.564
 03 12 26  0  2 30.0000000  0  8G17G 4G30G24G 9G10G 6G 5
  20625275.772   -23314044.54344 -18153483.03242  20625277.323    20625275.599
  24083166.353    -1490198.33643    468123.52742  24083168.854    24083168.570
  20882258.299   -15979964.29743 -12444101.51642  20882260.971    20882258.397
  21097971.942   -17769557.15444 -13828251.70842  21097973.927    21097972.464
  24607703.776     1176818.11543    936726.23042  24607705.499    24607704.059
  21932735.702    -9300622.87343  -7226494.94742  21932737.470    21932736.464
  23197023.293    -6996047.24943  -5433642.52142  23197025.885    23197024.989
  20259589.654   -20834257.80944 -16183085.96242  20259591.398    20259589.075
 03 12 26  0  3  0.0000000  0  8G17G 4G30G24G 9G10G 6G 5
  20621660.648   -23333041.68544 -18168285.98742  20621662.182    20621660.521
  24102582.544    -1388166.03343    547629.17842  24102584.480    24102584.212
  20871002.376   -16039114.22143 -12490192.32842  20871005.022    20871002.525
  21108759.346   -17712869.26144 -13784079.32542  21108761.301    21108759.790
  24626575.134     1275987.51243   1014001.02542  24626576.597    24626575.767
  21919098.473    -9372286.86143  -7282336.95642  21919100.192    21919099.211
  23184246.375    -7063190.41843  -5485961.79842  23184248.960    23184247.917
  20262695.240   -20817937.82644 -16170369.08742  20262696.947    20262694.619
 03 12 26  0  3 30.0000000  0  8G17G 4G30G24G 9G10G 6G 5
  20618127.949   -23351605.80044 -18182751.51642  20618129.474    20618127.899
  24122007.333    -1286091.70043    627167.57342  24122008.745    24122007.903
  20859827.106   -16097840.24643 -12535952.82942  20859829.763    20859827.332
  21119608.558   -17655856.04844 -13739653.44342  21119610.562    21119609.057
  24645432.831     1375086.04643   1091220.60342  24645434.340    24645433.768
  21905541.610    -9443527.90643  -7337849.40442  21905543.347    21905542.399
  23171479.362    -7130281.65743  -5538240.61342  23171481.855    23171480.609
  20265901.490   -20801088.67544 -16157239.86842  20265903.197    20265900.887
 03 12 26  0  4  0.0000000  0  8G17G 4G30G24G 9G10G 6G 5
  20614678.111   -23369735.09244 -18196878.21442  20614679.609    20614678.032
  24141439.301    -1183975.27743    706738.77542  24141441.658    24141439.745
  20848733.368   -16156137.75344 -12581379.42042  20848736.046    20848733.645
  21130519.742   -17598517.63444 -13694974.16042  21130521.749    21130520.205
  24664277.272     1474113.19443   1168384.55242  24664278.716    24664277.868
  21892066.290    -9514340.85443  -7393028.26742  21892067.927    21892067.077
  23158722.547    -7197318.70143  -5590477.19442  23158725.079    23158723.706
  20269208.951   -20783707.69544 -16143696.23742  20269210.643    20269208.340
 03 12 26  0  4 30.0000000  0  8G17G 4G30G24G 9G10G 6G 5
  20611309.850   -23387435.63444 -18210670.82342  20611311.341    20611309.722
  24160878.365    -1081824.36743    786336.84942  24160880.184    24160878.126
  20837720.469   -16214010.54343 -12626475.06242  20837723.176    20837720.801
  21141491.280   -17540862.01344 -13650047.69342  21141493.303    21141491.724
  24683106.526     1573060.38043   1245486.19942  24683108.034    24683107.174
  21878671.838    -9584728.55743  -7447875.78042  21878673.472    21878672.777
  23145974.938    -7264307.16843  -5642675.91542  23145977.527    23145976.054
  20272616.426   -20765801.05544 -16129743.00842  20272618.089    20272615.867
 03 12 26  0  5  0.0000000  0  8G17G 4G30G24G 9G10G 6G 5
  20608023.885   -23404703.29144 -18224126.11942  20608025.407    20608023.754
  24180324.008     -979636.38743    865963.81642  24180326.024    24180323.825
  20826789.771   -16271451.64443 -12671234.32742  20826792.430    20826790.110
  21152523.611   -17482886.64044 -13604872.07142  21152525.638    21152524.094
  24701921.105     1671929.68543   1322527.14342  24701922.494    24701921.172
  21865359.828    -9654683.29743  -7502385.92042  21865361.411    21865360.788
  23133237.579    -7331242.30643  -5694833.08842  23133240.151    23133238.513
  20276124.912   -20747363.54344 -16115376.10742  20276126.547    20276124.427
 03 12 26  0  5 30.0000000  0  8G17G 4G30G24G 9G10G 6G 5
  20604820.623   -23421536.46144 -18237242.85842  20604822.158    20604820.513
  24199775.711     -877411.69343    945619.44842  24199778.274    24199776.947
  20815941.915   -16328457.09544 -12715654.11942  20815944.605    20815942.244
  21163616.652   -17424592.20844 -13559447.83242  21163618.672    21163617.192
  24720720.800     1770720.29243   1399506.76042  24720722.094    24720720.278
  21852131.191    -9724200.60243  -7556555.19942  21852132.668    21852132.090
  23120510.693    -7398122.04743  -5746947.06942  23120513.260    23120511.578
  20279734.741   -20728393.72544 -16100594.42242  20279736.351    20279734.317
 03 12 26  0  6  0.0000000  0  8G17G 4G30G24G 9G10G 6G 5
  20601699.217   -23437939.84244 -18250024.69642  20601700.752    20601699.071
  24219230.634    -7076836.05053  -3885100.84852  24219232.811    24219237.624
  20805176.695   -16385028.78944 -12759735.92342  20805179.376    20805176.962
  21174769.277   -17365985.05544 -13513779.91942  21174771.258    21174769.785
  24739504.135     1869425.48243   1476419.85142  24739505.657    24739503.179
  21838985.392    -9793281.63443  -7610384.52042  21838986.954    21838986.400
  23107793.605    -7464950.18343  -5799020.88042  23107796.140    23107794.359
  20283445.129   -20708895.54844 -16085401.03142  20283446.745    20283444.738
 03 12 26  0  6 30.0000000  0  8G17G 4G30G24G 9G10G 6G 5
  20598660.134   -23453910.28244 -18262469.17642  20598661.728    20598659.994
  24238696.169    -6974548.02653  -3805395.92052  24238698.272    24238702.182
  20794495.101   -16441160.87444 -12803475.17342  20794497.802    20794495.313
  21185981.601   -17307063.84244 -13467867.29242  21185983.548    21185982.156
  24758271.206     1968046.39143   1553267.24442  24758273.087    24758269.900
  21825923.878    -9861920.03643  -7663868.93742  21825925.470    21825924.965
  23095086.973    -7531723.26843  -5851051.73542  23095089.543    23095087.727
  20287256.661   -20688865.89644 -16069793.50642  20287258.293    20287256.271
 03 12 26  0  7  0.0000000  0  8G17G 4G30G24G 9G10G 6G 5
  20595702.338   -23469453.62144 -18274580.84642  20595703.889    20595702.155
  24258167.856    -6872234.86443  -3725671.42342  24258169.339    24258171.889
  20783896.571   -16496856.45744 -12846874.29642  20783899.285    20783896.716
  21197252.352   -17247835.67444 -13421715.47442  21197254.242    21197252.915
  24777020.858     2066574.99043   1630042.65842  24777022.783    24777019.158
  21812946.119    -9930118.16443  -7717010.28642  21812947.749    21812947.329
  23082389.795    -7598446.18543  -5903043.53342  23082392.386    23082390.865
  20291168.418   -20668309.64344 -16053775.64042  20291170.052    20291167.980
 03 12 26  0  7 30.0000000  0  8G17G 4G30G24G 9G10G 6G 5
  20592825.756   -23484569.86644 -18286359.72142  20592827.333    20592825.595
  24277642.818    -6769898.17943  -3645928.56642  24277644.276    24277646.135
  20773381.518   -16552113.04344 -12889931.33842  20773384.264    20773381.664
  21208581.044   -17188303.05344 -13375326.42242  21208582.907    21208581.617
  24795752.420     2165009.04843   1706744.43742  24795754.617    24795750.922
  21800052.726    -9997872.52243  -7769805.84742  21800054.389    21800054.096
  23069702.193    -7665118.30243  -5954995.75142  23069704.718    23069703.563
  20295180.440   -20647226.52144 -16037347.22742  20295182.040    20295179.944
 03 12 26  0  8  0.0000000  0  8G17G 4G30G24G 9G10G 6G 5
  20590031.663   -23499252.85244 -18297800.99242  20590033.226    20590031.520
  24297123.021    -6667533.29743  -3566163.78042  24297124.520    24297125.378
  20762951.773   -16606921.94744 -12932639.54742  20762954.452    20762951.814
  21219968.467   -17128461.66544 -13328696.77242  21219970.287    21219969.081
  24814466.513     2263352.41843   1783375.54642  24814468.891    24814465.313
  21787245.637   -10065173.90643  -7822248.42942  21787247.235    21787247.079
  23057025.605    -7731733.07743  -6006903.28842  23057028.092    23057027.048
  20299293.898   -20625609.93744 -16020503.12842  20299295.526    20299293.409
 03 12 26  0  8 30.0000000  0  8G17G 4G30G24G 9G10G 6G 5
  20587318.969   -23513508.19244 -18308909.03342  20587320.529    20587318.859
  24316606.504    -6565146.93143  -3486382.27242  24316608.602    24316608.411
  20752606.688   -16661285.74944 -12975000.92342  20752609.365    20752606.690
  21231413.353   -17068318.42244 -13281831.91642  21231415.102    21231413.972
  24833162.408     2361597.72043   1859930.24042  24833164.565    24833161.315
  21774524.294   -10132024.33943  -7874339.62942  21774525.922    21774525.804
  23044358.867    -7798294.98943  -6058769.63942  23044361.365    23044360.548
  20303507.810   -20603465.55744 -16003247.76142  20303509.452    20303507.332
 03 12 26  0  9  0.0000000  0  7G17G30G24G 9G10G 6G 5
  20584688.048   -23527333.55144 -18319682.02742  20584689.617    20584687.975
  20742347.194   -16715199.79444 -13017011.84242  20742349.864    20742347.173
  21242915.741   -17007872.77744 -13234731.41542  21242917.478    21242916.381
  24851839.308     2459744.86243   1936408.46042  24851841.879    24851838.720
  21761890.020   -10198418.32743  -7926075.15342  21761891.523    21761891.403
  23031702.948    -7864801.41543  -6110592.73142  23031705.148    23031704.632
  20307822.759   -20580790.67644 -15985579.01742  20307824.399    20307822.198
 03 12 26  0  9 30.0000000  0  7G17G30G24G 9G10G 6G 5
  20582138.357   -23540732.30444 -18330122.59842  20582139.868    20582138.200
  20732173.132   -16768664.72944 -13058672.80342  20732175.768    20732173.144
  21254474.646   -16947130.04044 -13187399.41042  21254476.402    21254475.311
  24870496.344     2557788.49943   2012806.00242  24870499.391    24870496.281
  21749342.568   -10264355.84343  -7977454.97242  21749344.058    21749343.820
  23019057.297    -7931254.75743  -6162374.47542  23019059.321    23019058.777
  20312238.154   -20557587.81644 -15967498.85942  20312239.833    20312237.555
 03 12 26  0 10  0.0000000  0  7G17G30G24G 9G10G 6G 5
  20579670.402   -23553701.57344 -18340228.50342  20579671.892    20579670.160
  20722085.594   -16821674.85444 -13099979.36442  20722088.211    20722085.682
  21266090.363   -16886089.01944 -13139834.97342  21266092.138    21266090.974
  24889134.107     2655729.74243   2089123.79042  24889137.231    24889134.269
  21736883.152   -10329830.59543  -8028474.19242  21736884.645    21736884.271
  23006422.109    -7997651.61843  -6214112.21742  23006424.227    23006423.647
  20316754.621   -20533853.65744 -15949004.70642  20316756.324    20316754.006
 03 12 26  0 10 30.0000000  0  7G17G30G24G 9G10G 6G 5
  20577283.495   -23566244.56444 -18350002.24442  20577285.001    20577283.282
  20712084.525   -16874230.77144 -13140931.99942  20712087.130    20712084.687
  21277761.932   -16824754.38243 -13092041.75442  21277763.711    21277762.504
  24907751.113                     2165357.47342  24907750.906
  21724511.711   -10394842.40743  -8079132.69042  21724513.229    21724512.840
  22993797.303    -8063994.15543  -6265807.61242  22993799.394    22993798.943
  20321371.555   -20509591.32244 -15930098.98342  20321373.288    20321370.987
 03 12 26  0 11  0.0000000  0  7G17G30G24G 9G10G 6G 5
  20574976.300   -23578368.66744 -18359449.58242  20574977.774    20574976.126
  20702168.919   -16926337.48844 -13181534.60942  20702171.536    20702169.154
  21289487.571   -16763135.41443 -13044026.97842  21289489.361    21289488.181
  24926349.151                     2851279.22343  24926348.746
  21712227.571   -10459395.57643  -8129433.80642  21712229.056    21712228.646
  22981181.654    -8130289.19543  -6317466.04142  22981183.701    22981183.384
  20326087.627   -20484808.30544 -15910787.53542  20326089.335    20326087.044
 03 12 26  0 11 30.0000000  0  7G17G30G24G 9G10G 6G 5
  20572754.063   -23590046.46844 -18368549.15942  20572755.517    20572753.920
  20692344.625   -16977964.65644 -13221763.54442  20692347.223    20692344.886
  21301272.176   -16701206.55143 -12995770.72842  21301273.923    21301272.845
  24944922.185
  21700036.572   -10523459.11543  -8179353.39842  21700038.064    21700037.600
  22968580.542    -8196508.43443  -6369065.38342  22968582.354    22968582.480
  20330908.160   -20459476.53044 -15891048.48242  20330909.838    20330907.477
 03 12 26  0 12  0.0000000  0  7G17G30G24G 9G10G 6G 5
  20570609.646   -23601315.86144 -18377330.48642  20570611.042    20570609.392
  20682604.852   -17029147.34344 -13261646.12842  20682607.463    20682605.189
  21313108.484   -16639007.13443 -12947303.65742  21313110.129    21313109.018
  24963475.307
  21687932.234   -10587067.87543  -8228918.62042  21687933.662    21687933.118
  22955986.670    -8262688.89343  -6420634.51842  22955988.565    22955988.770
  20335825.997   -20433633.20044 -15870910.81942  20335827.661    20335825.257
 03 12 26  0 12 30.0000000  0  7G17G30G24G 9G10G 6G 5
  20568545.218   -23612164.26444 -18385783.76642  20568546.685    20568544.970
  20672952.586   -17079870.37544 -13301170.54242  20672955.216    20672952.911
  21324998.258   -16576526.09543 -12898617.13842  21324999.938    21324998.759
  24982006.256
  21675917.460   -10650205.60643  -8278116.80742  21675918.917    21675918.352
  22943402.812    -8328817.22143  -6472163.02042  22943404.684    22943404.936
  20340843.498   -20407265.88944 -15850364.85442  20340845.201    20340842.740
 03 12 26  0 13  0.0000000  0  7G17G30G24G 9G10G 6G 5
  20566563.531   -23622578.01444 -18393898.36142  20566565.010    20566563.285
  20663390.935   -17130117.46044 -13340324.09142  20663393.570    20663391.127
  21336943.795   -16513751.67644 -12849702.00442  21336945.537    21336944.310
  25000512.995
  21663995.522   -10712855.75243  -8326935.07342  21663996.969    21663996.426
  22930831.921    -8394878.92743  -6523639.62342  22930833.733    22930833.705
  20345963.382   -20380360.73944 -15829399.80142  20345965.084    20345962.602
 03 12 26  0 13 30.0000000  0  7G17G30G24G 9G10G 6G 5
  20564661.416   -23632573.72644 -18401687.21842  20564662.884    20564661.202
  20653917.207   -17179902.51244 -13379117.61042  20653919.869    20653917.228
  21348941.770   -16450701.89344 -12800572.30042  21348943.578    21348942.220
  25018998.524
  21652163.961   -10775031.36343  -8375383.56942  21652165.365    21652164.835
  22918270.537    -8460889.57843  -6575076.42242  22918272.480    22918272.329
  20351182.622   -20352933.41644 -15808027.85842  20351184.331    20351181.832
 03 12 26  0 14  0.0000000  0  7G17G30G24G 9G10G 6G 5
  20562839.441   -23642147.93844 -18409147.62842  20562840.972    20562839.298
  20644532.488   -17229219.40044 -13417546.33242  20644535.223    20644532.458
  21360992.556   -16387374.95744 -12751226.63942  21360994.390    21360992.900
  25037457.976    -4441924.14653                                  25037465.382
  21640423.958   -10836725.61543  -8423456.97842  21640425.414    21640424.804
  22905719.835    -8526844.83443  -6626470.06842  22905721.777    22905721.417
  20356501.896   -20324980.32744 -15786246.22842  20356503.614    20356501.138
 03 12 26  0 14 30.0000000  0  7G17G30G24G 9G10G 6G 5
  20561098.291   -23651297.95144 -18416277.48742  20561099.796    20561098.106
  20635237.920   -17278062.76844 -13455606.07542  20635240.640    20635237.833
  21373096.150   -16323770.18244 -12701664.47442  21373098.039    21373096.482
  25055893.316    -4345040.36643   -266503.58052  25055897.765    25055896.272
  21628776.804   -10897932.66943  -8471150.74542  21628778.258    21628777.505
  22893180.232    -8592741.34143  -6677817.94642  22893182.261    22893181.460
  20361921.768   -20296498.88544 -15764052.89442  20361923.482    20361920.980
 03 12 26  0 15  0.0000000  0  7G17G30G24G 9G10G 6G 5
  20559437.238   -23660026.31844 -18423078.79842  20559438.796    20559437.117
  20626033.429   -17326432.34544 -13493296.63042  20626036.181    20626033.379
  21385251.844   -16259891.42444 -12651888.81842  21385253.798    21385252.246
  25074305.186    -4248285.74443   -191110.48742  25074309.318    25074308.929
  21617222.471   -10958651.68143  -8518464.22842  21617223.950    21617223.080
  22880651.499    -8658580.43043  -6729121.06642  22880653.631    22880652.608
  20367441.809   -20267491.22244 -15741449.51942  20367443.521    20367440.940
 03 12 26  0 15 30.0000000  0  7G17G30G24G 9G10G 6G 5
  20557856.732   -23668331.88444 -18429550.65242  20557858.238    20557856.630
  20616919.836   -17374324.45444 -13530615.12342  20616922.545    20616919.800
  21397459.637   -16195738.94844 -12601899.87542  21397461.642    21397460.076
  25092692.826    -4151661.38543   -115818.89342  25092696.107    25092696.238
  21605761.646   -11018878.44043  -8565394.12542  21605763.196    21605762.246
  22868134.147    -8724360.27343  -6780378.02142  22868136.265    22868135.131
  20373062.217   -20237955.55544 -15718434.70742  20373063.977    20373061.411
 03 12 26  0 16  0.0000000  0  6G17G30G24G10G 6G 5
  20556360.842   -23676192.74444 -18435675.98542  20556362.338    20556360.813
  20607901.770   -17421714.46844 -13567542.37442  20607904.455    20607901.757
  21409723.409   -16131292.59744 -12551681.94342  21409725.406    21409723.817
  21594399.196   -11078587.52143  -8611920.63742  21594400.901    21594399.855
  22855632.395    -8790057.89443  -6831570.91842  22855634.582    22855633.209
  20378787.290   -20207869.97344 -15694991.39242  20378789.046    20378786.532
 03 12 26  0 16 30.0000000  0  6G17G30G24G10G 6G 5
  20554939.856   -23683660.07144 -18441494.66742  20554941.313    20554939.894
  20598970.059   -17468650.81244 -13604116.11942  20598972.710    20598970.085
  21422033.116   -16066605.02344 -12501276.04142  21422035.096    21422033.520
  21583126.317   -11137826.79743  -8658081.06642  21583128.019    21583126.840
  22843136.692    -8855723.38543  -6882738.76942  22843138.981    22843137.383
  20384607.322   -20177285.62044 -15671159.42542  20384609.025    20384606.595
 03 12 26  0 17  0.0000000  0  6G17G30G24G10G 6G 5
  20553599.279   -23690704.87344 -18446984.11142  20553600.725    20553599.351
  20590130.658   -17515101.69844 -13640311.58342  20590133.373    20590130.808
  21434393.905   -16001648.76244 -12450660.77142  21434395.913    21434394.316
  21571948.967   -11196563.76543  -8703850.08942  21571950.691    21571949.434
  22830652.775    -8921326.60643  -6933858.11142  22830655.202    22830653.295
  20390527.877   -20146172.84844 -15646915.69942  20390529.594    20390527.210
 03 12 26  0 17 30.0000000  0  6G17G30G24G10G 6G 5
  20552337.665   -23697334.79544 -18452150.26742  20552339.115    20552337.682
  20581382.796   -17561072.17444 -13676132.71242  20581385.476    20581382.903
  21446804.097   -15936432.99644 -12399843.29542  21446806.028    21446804.488
  21560866.330   -11254803.17543  -8749231.39742  21560868.051    21560866.776
  22818179.452    -8986874.31643  -6984934.18142  22818181.914    22818179.803
  20396547.478   -20114539.47044 -15622266.31142  20396549.189    20396546.894
 03 12 26  0 18  0.0000000  0  6G17G30G24G10G 6G 5
  20551155.935   -23703544.84544 -18456989.25342  20551157.409    20551155.908
  20572727.738   -17606554.55944 -13711573.49742  20572730.460    20572727.895
  21459264.291   -15870953.98444 -12348820.68642  21459266.268    21459264.730
  21549879.914   -11312536.71243  -8794218.51742  21549881.641    21549880.383
  22805717.752    -9052360.42043  -7035962.24742  22805720.290    22805718.271
  20402667.190   -20082379.83944 -15597206.84842  20402668.877    20402666.674
 03 12 26  0 18 30.0000000  0  6G17G30G24G10G 6G 5
  20550053.334   -23709338.70844 -18461503.93342  20550054.876    20550053.364
  20564165.454   -17651549.96944 -13746634.83442  20564168.125    20564165.533
  21471773.656   -15805217.22544 -12297597.23742  21471775.572    21471774.010
  21538989.758   -11369764.51043  -8838811.56142  21538991.456    21538990.173
  22793267.328    -9117787.65943  -7086944.43642  22793269.811    22793268.007
  20408886.295   -20049697.95044 -15571740.44142  20408887.929    20408885.839
 03 12 26  0 19  0.0000000  0  6G17G30G24G10G 6G 5
  20549029.985   -23714716.62344 -18465694.50442  20549031.511    20549029.979
  20555696.217   -17696055.72744 -13781314.61842  20555698.930    20555696.323
  21484331.722   -15739224.02944 -12246173.97742  21484333.652    21484332.179
  21528196.296   -11426483.68143  -8883008.26942  21528197.997    21528196.717
  22780828.326    -9183154.87043  -7137879.86242  22780830.733    22780828.993
  20415204.859   -20016493.34244 -15545866.71642  20415206.450    20415204.451
 03 12 26  0 19 30.0000000  0  6G17G30G24G10G 6G 5
  20548085.837   -23719677.85744 -18469560.38642  20548087.404    20548085.836
  20547320.856   -17740068.51644 -13815610.26642  20547323.523    20547320.930
  21496938.317   -15672975.42244 -12194551.68342  21496940.308    21496938.876
  21517500.322   -11482690.53843  -8926805.77342  21517501.982    21517500.714
  22768401.065    -9248460.41843  -7188767.22842  22768403.475    22768401.756
  20421623.156   -19982764.90244 -15519584.81142  20421624.709    20421622.738
 03 12 26  0 20  0.0000000  0  6G17G30G24G10G 6G 5
  20547220.279   -23724226.63844 -18473104.87942  20547221.808    20547220.121
  20539038.979   -17783589.73644 -13849522.87842  20539041.655    20539039.056
  21509592.605   -15606476.79044 -12142734.56942  21509594.566    21509593.094
  21506901.910   -11538385.59343  -8970204.47042  21506903.405    21506902.143
  22755984.883    -9313707.28543  -7239608.85842  22755987.358    22755985.606
  20428140.280   -19948517.18244 -15492898.27242  20428141.835    20428139.856
 03 12 26  0 20 30.0000000  0  6G17G30G24G10G 6G 5
  20546433.422   -23728361.54944 -18476326.86542  20546434.977    20546433.158
  20530851.468   -17826615.52744 -13883049.44242  20530854.137    20530851.427
  21522294.360   -15539728.65644 -12090723.04242  21522296.290    21522294.834
  21496401.732   -11593564.28343  -9013200.80942  21496403.166    21496401.856
  22743580.383    -9378893.20743  -7290402.99542  22743582.839    22743581.153
  20434756.590   -19913748.23244 -15465805.57742  20434758.135    20434756.150
 03 12 26  0 21  0.0000000  0  6G17G30G24G10G 6G 5
  20545725.237   -23732083.19044 -18479226.82842  20545726.799    20545724.908
  20522758.572   -17869143.79644 -13916188.32742  20522761.270    20522758.527
  21535043.385   -15472732.49144 -12038518.24642  21535045.260    21535043.767
  21486000.285   -11648224.27043  -9055792.95742  21486001.646    21486000.347
  22731187.454    -9444017.60643  -7341149.20642  22731189.872    22731188.447
  20441471.905   -19878459.05944 -15438307.51842  20441473.446    20441471.455
 03 12 26  0 21 30.0000000  0  6G17G30G24G10G 6G 5
  20545095.924   -23735390.13944 -18481803.65842  20545097.498    20545095.627
  20514761.148   -17911170.41444 -13948936.31842  20514763.824    20514761.064
  21547839.471   -15405488.52144 -11986120.35242  21547841.372    21547839.889
  21475698.307   -11702360.64743  -9097977.11042  21475699.736    21475698.502
  22718806.816    -9509077.84443  -7391845.42842  22718809.084    22718807.885
  20448286.653   -19842647.24544 -15410402.20442  20448288.242    20448286.199
 03 12 26  0 22  0.0000000  0  6G17G30G24G10G 6G 5
  20544544.104   -23738289.59344 -18484062.96042  20544545.719    20544543.920
  20506858.249   -17952699.81644 -13981296.86542  20506860.969    20506858.241
  21560681.019   -15338005.56544 -11933536.23842  21560682.907    21560681.494
  21465495.378   -11755977.39543  -9139756.35642  21465496.760    21465495.541
  22706437.324    -9574079.86443  -7442496.26142  22706439.506    22706438.334
  20455199.558   -19806320.05644 -15382095.30242  20455201.152    20455198.998
 03 12 26  0 22 30.0000000  0  6G17G30G24G10G 6G 5
  20544071.164   -23740775.02344 -18485999.64542  20544072.731    20544070.967
  20499051.867   -17993722.70044 -14013262.72042  20499054.534    20499051.806
  21573569.212   -15270278.06344 -11880761.57042  21573571.013    21573569.590
  21455393.152   -11809064.87443  -9181123.18642  21455394.616    21455393.293
  22694080.286    -9639015.77343  -7493095.58542  22694082.540    22694081.401
  20462211.700   -19769470.84644 -15353381.62842  20462213.368    20462211.145
 03 12 26  0 23  0.0000000  0  6G17G30G24G10G 6G 5
  20543675.659   -23742853.56144 -18487619.26942  20543677.226    20543675.445
  20491341.016   -18034243.57244 -14044837.39642  20491343.632    20491340.882
  21586502.280   -15202314.39644 -11827802.87842  21586504.079    21586502.560
  21445391.069   -11861626.82743  -9222080.50642  21445392.532    21445391.096
  22681734.607    -9703891.60643  -7543648.09842  22681736.870    22681735.905
  20469321.829   -19732106.94544 -15324266.89542  20469323.509    20469321.270
 03 12 26  0 23 30.0000000  0  6G17G30G24G10G 6G 5
  20543358.156   -23744521.70344 -18488919.10242  20543359.755    20543358.017
  20483726.854   -18074256.30244 -14076016.11742  20483729.466    20483726.664
  21599480.548   -15134112.78443 -11774658.77642  21599482.339    21599480.778
  21435490.040   -11913656.79743  -9262623.29842  21435491.633    21435490.060
  22669401.388    -9768702.61843  -7594150.12442  22669403.567    22669402.654
  20476530.652   -19694224.33944 -15294747.98242  20476532.356    20476530.115
 03 12 26  0 24  0.0000000  0  6G17G30G24G10G 6G 5
  20543118.557   -23745780.49644 -18489899.97042  20543120.127    20543118.518
  20476209.710   -18113759.28544 -14106797.63642  20476212.341    20476209.462
  21612503.692   -15065675.42143 -11721330.96942  21612505.428    21612503.937
  21425690.746   -11965152.63443  -9302749.88342  21425692.344    21425690.697
  22657080.305    -9833448.61743  -7644601.48042  22657082.487    22657081.777
  20483838.004   -19655824.13744 -15264825.74542  20483839.694    20483837.435
 03 12 26  0 24 30.0000000  0  6G17G30G24G10G 6G 5
  20542955.937   -23746635.25844 -18490566.00742  20542957.406    20542955.885
  20468789.073   -18152755.17744 -14137184.02142  20468791.739    20468788.778
  21625570.584   -14997008.73444 -11667824.46442  21625572.262    21625570.774
  21415992.676   -12016116.32943  -9342461.80942  21415994.375    21415992.569
  22644771.272    -9898133.48343  -7695005.20342  22644773.260    22644772.623
  20491242.807   -19616911.51044 -15234504.21342  20491244.529    20491242.227
 03 12 26  0 25  0.0000000  0  6G17G30G24G10G 6G 5
  20542870.964   -23747082.02344 -18490914.11642  20542872.384    20542870.826
  20461466.224   -18191237.23944 -14167170.01742  20461468.882    20461465.832
  21638681.555   -14928110.30543 -11614137.38642  21638683.241    21638681.692
  21406397.313   -12066540.64043  -9381753.43642  21406399.018    21406397.078
  22632474.670    -9962751.97143  -7745357.22542  22632476.724    22632475.994
  20498745.922   -19577482.29444 -15203780.14642  20498747.661    20498745.316
 03 12 26  0 25 30.0000000  0  6G17G30G24G10G 6G 5
  20542862.836   -23747124.66144 -18490947.32742  20542864.306    20542862.663
  20454240.744   -18229206.90944 -14196756.74442  20454243.456    20454240.360
  21651835.536   -14858985.39843 -11560273.82742  21651837.261    21651835.656
  21396904.344   -12116426.63243  -9420625.59642  21396906.105    21396904.109
  22620190.273   -10027306.89543  -7795659.70242  22620192.304    22620191.591
  20506346.633   -19537540.19244 -15172656.42942  20506348.352    20506345.992
 03 12 26  0 26  0.0000000  0  6G17G30G24G10G 6G 5
  20542931.835   -23746761.93444 -18490664.67242  20542933.297    20542931.617
  20447113.546   -18266660.08744 -14225941.01742  20447116.253    20447113.156
  21665032.718   -14789633.64343 -11506233.50142  21665034.405    21665032.866
  21387514.630   -12165769.90843  -9459074.86542  21387516.387    21387514.430
  22607918.435   -10091795.34543  -7845910.37742  22607920.481    22607919.923
  20514045.084   -19497084.20444 -15141132.28342  20514046.798    20514044.503
 03 12 26  0 26 30.0000000  0  6G17G30G24G10G 6G 5
  20543077.262   -23745997.57144 -18490069.04442  20543078.745    20543077.038
  20440084.375   -18303598.07344 -14254723.83642  20440087.048    20440083.975
  21678272.213   -14720060.13943 -11452020.38642  21678273.798    21678272.316
  21378228.020   -12214570.92743  -9497101.59242  21378229.713    21378228.001
  22595658.849   -10156220.06643  -7896111.40242  22595660.868    22595660.336
  20521840.684   -19456117.75344 -15109210.37242  20521842.347    20521840.157
 03 12 26  0 27  0.0000000  0  6G17G30G24G10G 6G 5
  20543300.209   -23744825.87844 -18489156.01842  20543301.674    20543299.964
  20433154.899   -18340012.34144 -14283098.56742  20433157.532    20433154.500
  21691554.550   -14650260.46043 -11397631.03142  21691556.221    21691554.807
  21369046.297   -12262820.88743  -9534698.92942  21369047.901    21369046.414
  22583412.634   -10220573.87843  -7946257.16042  22583414.653    22583414.115
  20529734.556   -19414635.17744 -15076886.28342  20529736.165    20529734.052
 03 12 26  0 27 30.0000000  0  6G17G30G24G10G 6G 5
  20543598.340   -23743259.06244 -18487935.11042  20543599.790    20543598.067
  20426323.195   -18375912.63244 -14311072.79442  20426325.856    20426322.857
  21704877.471   -14580248.23243 -11343076.05342  21704879.112    21704877.771
  21359967.774   -12310528.77143  -9571873.86842  21359969.307    21359967.951
  22571178.293   -10284867.39343  -7996355.95542  22571180.160    22571179.232
  20537724.424   -19372648.23744 -15044169.18942  20537726.017    20537723.932
 03 12 26  0 28  0.0000000  0  6G17G30G24G10G 6G 5
  20543973.392   -23741287.97544 -18486399.18742  20543974.830    20543973.101
  20419591.568   -18411287.07844 -14338637.27542  20419594.235    20419591.264
  21718242.299   -14510015.44743 -11288349.21142  21718243.923    21718242.671
  21350994.741   -12357682.57143  -9608617.05242  21350996.255    21350994.833
  22558957.049   -10349090.22343  -8046399.65942  22558959.117    22558957.913
  20545812.012   -19330147.81344 -15011051.97142  20545813.620    20545811.525
 03 12 26  0 28 30.0000000  0  6G17G30G24G10G 6G 5
  20544424.768   -23738916.01744 -18484550.88942  20544426.203    20544424.495
  20412959.932   -18446136.45844 -14365792.61542  20412962.548    20412959.582
  21731648.278   -14439566.58243 -11233454.00442  21731649.860    21731648.650
  21342127.091   -12404282.53443  -9644928.68142  21342128.588    21342127.091
  22546748.980   -10413244.33643  -8096389.82142  22546751.096    22546749.617
  20553996.628   -19287137.37544 -14977537.34442  20553998.265    20553996.176
 03 12 26  0 29  0.0000000  0  6G17G30G24G10G 6G 5
  20544951.533   -23736147.81944 -18482393.83242  20544953.009    20544951.325
  20406427.877   -18480462.77844 -14392540.37642  20406430.428    20406427.487
  21745094.275   -14368907.32543 -11178394.85142  21745095.858    21745094.686
  21333364.395   -12450330.24443  -9680809.98242  21333365.945    21333364.418
  22534553.444   -10477332.82943  -8146328.85342  22534555.638    22534553.885
  20562277.376   -19243621.77644 -14943629.08242  20562278.987    20562276.945
 03 12 26  0 29 30.0000000  0  6G17G30G24G10G 6G 5
  20545554.895   -23732977.13244 -18479923.15842  20545556.374    20545554.758
  20399996.961   -18514257.18244 -14418873.65742  20399999.531    20399996.606
  21758581.361   -14298032.66443 -11123167.84942  21758582.827    21758581.722
  21324708.594   -12495816.39143  -9716253.70442  21324710.195    21324708.615
  22522371.753   -10541348.06643  -8196210.79842  22522374.027    22522372.050
  20570655.458   -19199594.62244 -14909322.21342  20570657.092    20570655.071
 03 12 26  0 30  0.0000000  0  6G17G30G24G10G 6G 5
  20546233.050   -23729413.39944 -18477146.21442  20546234.518    20546232.903
  20393666.006   -18547526.35344 -14444797.67042  20393668.561    20393665.679
  21772107.228   -14226953.14443 -11067781.21942  21772108.735    21772107.676
  21316158.565   -12540746.98743  -9751264.53842  21316160.106    21316158.494
  22510202.512   -10605297.85143  -8246041.75342  22510204.864    22510202.627
  20579129.211   -19155064.95444 -14874623.77242  20579130.816    20579128.804
 03 12 26  0 30 30.0000000  0  6G17G30G24G10G 6G 5
  20546986.905   -23725451.49544 -18474059.00442  20546988.395    20546986.811
  20387436.493   -18580262.79944 -14470306.57342  20387438.967    20387436.156
  21785672.908   -14155664.85943 -11012231.91042  21785674.438    21785673.385
  21307715.699   -12585114.19443  -9785836.36242  21307717.247    21307715.607
  22498046.965   -10669175.75543  -8295816.68642  22498049.359    22498047.015
  20587699.476   -19110027.86644 -14839529.93642  20587701.072    20587699.100
 03 12 26  0 31  0.0000000  0  6G17G30G24G10G 6G 5
  20547815.645   -23721096.49944 -18470665.48242  20547817.131    20547815.516
  20381307.805   -18612469.09344 -14495402.36642  20381310.282    20381307.535
  21799277.253   -14084173.69843 -10956524.51242  21799278.696    21799277.675
  21299379.698   -12628920.18543  -9819970.87342  21299381.225    21299379.585
  22485904.548   -10732985.29543  -8345538.36442  22485906.848    22485904.277
  20596365.285   -19064488.47844 -14804044.69942  20596366.899    20596364.975
 03 12 26  0 31 30.0000000  0  6G17G30G24G10G 6G 5
  20548719.488   -23716346.99844 -18466964.56042  20548720.998    20548719.298
  20375280.806   -18644140.80144 -14520081.59542  20375283.330    20375280.662
  21812920.172   -14012479.57343 -10900658.97742  21812921.541    21812920.575
  21291151.330   -12672160.14043  -9853664.31942  21291152.879    21291151.263
  22473775.571   -10796723.40043  -8395204.36742  22473777.937    22473775.271
  20605127.060   -19018445.23244 -14768166.84542  20605128.671    20605126.706
 03 12 26  0 32  0.0000000  0  6G17G30G24G10G 6G 5
  20549698.388   -23711202.62644 -18462955.94642  20549699.981    20549698.270
  20369356.032   -18675275.47944 -14544342.35642  20369358.556    20369355.997
  21826601.474   -13940583.40343 -10844635.99042  21826602.892    21826601.974
  21283031.159   -12714831.14743  -9886914.43142  21283032.742    21283031.257
  22461660.361   -10860388.53043  -8444813.52942  22461662.755    22461660.042
  20613984.719   -18971898.16844 -14731896.40842  20613986.341    20613984.314
 03 12 26  0 32 30.0000000  0  6G17G30G24G10G 6G 5
  20550751.593   -23705668.02544 -18458643.26342  20550753.149    20550751.473
  20363533.113   -18705874.90144 -14568186.03942  20363535.660    20363533.139
  21840320.236   -13868490.67843 -10788459.84942  21840321.605    21840320.733
  21275019.117   -12756934.52943  -9919722.24042  21275020.645    21275019.306
  22449558.567   -10923983.46443  -8494367.98842  22449560.853    22449558.290
  20622937.388   -18924851.60544 -14695236.75042  20622939.042    20622936.958
 03 12 26  0 33  0.0000000  0  6G17G30G24G10G 6G 5
  20551879.537   -23699740.58144 -18454024.46442  20551881.062    20551879.407
  20357813.033   -18735934.08244 -14591608.75442  20357815.597    20357813.074
  21854076.614   -13796199.91043 -10732129.38842  21854078.063    21854077.210
  21267116.205   -12798464.78243  -9952083.45942  21267117.667    21267116.400
  22437470.775   -10987504.23343  -8543864.65342  22437473.111    22437470.703
  20631985.608   -18877302.99844 -14658185.89342  20631987.299    20631985.108
 03 12 26  0 33 30.0000000  0  6G17G30G24G10G 6G 5
  20553081.271   -23693425.75244 -18449103.80842  20553082.775    20553081.047
  20352195.266   -18765455.77944 -14614612.65042  20352197.832    20352195.265
  21867869.691   -13723717.30843 -10675649.42842  21867871.155    21867870.162
  21259321.888   -12839424.41043  -9984000.03942  21259323.341    21259322.073
  22425396.587   -11050954.45543  -8593306.35542  22425398.869    22425396.561
  20641128.350   -18829257.88044 -14620748.13942  20641130.055    20641127.726
 03 12 26  0 34  0.0000000  0  6G17G30G24G10G 6G 5
  20554356.667   -23686723.25844 -18443881.07042  20554358.216    20554356.422
  20346680.303   -18794437.24344 -14637195.58442  20346682.879    20346680.295
  21881698.924   -13651044.07543 -10619020.93442  21881700.503    21881699.430
  21251636.746   -12879810.18043 -10015469.45442  21251638.211    21251636.906
  22413336.160   -11114332.51443  -8642691.81842  22413338.405    22413336.137
  20650365.595   -18780716.21944 -14582923.46742  20650367.315    20650364.831
 03 12 26  0 34 30.0000000  0  6G17G30G24G10G 6G 5
  20555706.237   -23679630.96244 -18438354.59442  20555707.775    20555705.990
  20341269.013   -18822873.90244 -14659353.99842  20341271.617    20341268.979
  21895564.550   -13578178.96643 -10562242.93642  21895566.190    21895565.132
  21244061.747   -12919617.03643 -10046487.77042  21244063.225    21244061.863
  22401290.058   -11177634.45943  -8692017.96842  22401292.367    22401290.260
  20659697.735   -18731675.61944 -14544710.01242  20659699.466    20659696.906
 03 12 26  0 35  0.0000000  0  6G17G30G24G10G 6G 5
  20557129.365   -23672152.32744 -18432527.08142  20557130.864    20557129.099
  20335961.186   -18850766.72044 -14681088.63942  20335963.799    20335961.184
  21909465.902   -13505126.54643 -10505318.97742  21909467.473    21909466.466
  21236596.893   -12958845.78843 -10077055.60042  21236598.356    21236596.802
  22389258.064   -11240862.25743  -8741286.34942  22389260.370    22389258.365
  20669123.978   -18682140.14244 -14506110.94242  20669125.768    20669123.153
 03 12 26  0 35 30.0000000  0  6G17G30G24G10G 6G 5
  20558626.279   -23664286.29644 -18426397.69942  20558627.765    20558625.981
  20330757.480   -18878112.09244 -14702396.69842  20330760.102    20330757.511
  21923402.987   -13431886.55643 -10448248.85342  21923404.493    21923403.485
  21229242.785   -12997492.29343 -10107169.72842  21229244.313    21229242.562
  22377240.750   -11304013.10143  -8790494.76342  22377242.991    22377241.092
  20678644.736   -18632108.23644 -14467125.03942  20678646.499    20678643.887
 03 12 26  0 36  0.0000000  0  6G17G30G24G10G 6G 5
  20560195.736   -23656038.74844 -18419971.03042  20560197.250    20560195.442
  20325657.342   -18904913.39444 -14723280.81142  20325659.941    20325657.332
  21937374.610   -13358465.72743 -10391037.81942  21937376.053    21937374.904
  21221998.773   -13035559.77343 -10136832.66542  21222000.362    21221998.524
  22365237.311   -11367091.16443  -8839646.46942  22365239.499    22365237.668
  20688258.766   -18581585.97044 -14427757.04042  20688260.516    20688257.932
 03 12 26  0 36 30.0000000  0  6G17G30G24G10G 6G 5
  20561838.204   -23647407.25744 -18413245.18642  20561839.743    20561837.947
  20320661.700   -18931165.54944 -14743737.01442  20320664.284    20320661.617
  21951380.913   -13284862.51443 -10333684.66742  21951382.361    21951381.097
  21214865.959   -13073042.71043 -10166040.11942  21214867.533    21214865.751
  22353248.513   -11430092.43743  -8888738.33042  22353250.652    22353248.788
  20697966.536   -18530570.93644 -14388005.06342  20697968.258    20697965.753
 03 12 26  0 37  0.0000000  0  6G17G30G24G10G 6G 5
  20563553.636   -23638392.62844 -18406220.78842  20563555.170    20563553.360
  20315770.899   -18956866.89744 -14763764.01642  20315773.492    20315770.728
  21965421.352   -13211078.78643 -10276190.85442  21965422.918    21965421.583
  21207844.816   -13109938.91543 -10194790.38042  21207846.359    21207844.636
  22341274.588   -11493015.93943  -8937769.58542  22341276.709    22341274.764
  20707767.891   -18479064.04244 -14347869.81942  20707769.598    20707767.181
 03 12 26  0 37 30.0000000  0  6G17G30G24G10G 6G 5
  20565341.726   -23628996.64944 -18398899.23842  20565343.236    20565341.289
  20310985.020   -18982017.07744 -14783361.54442  20310987.627    20310984.753
  21979495.643   -13137117.61543 -10218558.77942  21979497.234    21979495.932
  21200935.523   -13146247.29643 -10223082.59642  21200937.029    21200935.339
  22329315.422   -11555861.98043  -8986740.47542  22329317.524    22329315.651
  20717662.515   -18427067.21944 -14307352.82042  20717664.172    20717661.850
 03 12 26  0 38  0.0000000  0  6G17G30G24G10G 6G 5
  20567202.188   -23619219.94644 -18391281.01942  20567203.762    20567201.739
  20306304.457   -19006613.95644 -14802527.92942  20306307.088    20306304.131
  21993603.729   -13062979.69243 -10160788.97842  21993605.345    21993604.001
  21194138.478   -13181965.96743 -10250915.30342  21194139.955    21194138.254
  22317371.195   -11618629.18143  -9035649.94342  22317373.341    22317371.527
  20727650.263   -18374581.32744 -14266454.72242  20727651.893    20727649.583
 03 12 26  0 38 30.0000000  0  6G17G30G24G10G 6G 5
  20569133.414   -23609071.08044 -18383372.80442  20569135.020    20569133.054
  20301727.981   -19030663.69244 -14821267.96842  20301730.643    20301727.647
  22007743.538   -12988674.72943 -10102889.00742  22007745.249    22007743.907
  21187452.525   -13217100.70543 -10278292.98742  21187454.006    21187452.317
  22305440.735   -11681324.33743  -9084503.26642  22305442.948    22305441.182
  20737729.464   -18321615.21444 -14225182.43242  20737731.028    20737728.698
 03 12 26  0 39  0.0000000  0  6G17G30G24G10G 6G 5
  20571137.253   -23598540.69544 -18375167.30642  20571138.837    20571136.933
  20297257.899   -19054154.59244 -14839572.55642  20297260.533    20297257.491
  22021916.635   -12914194.91243 -10044852.79442  22021918.325    22021917.057
  21180879.904   -13251639.51443 -10305206.31642  21180881.433    21180879.824
  22293526.080   -11743936.63043  -9133292.02042  22293528.289    22293526.496
  20747901.674   -18268159.71944 -14183528.80142  20747903.272    20747900.928
 03 12 26  0 39 30.0000000  0  6G17G30G24G10G 6G 5
  20573213.375   -23587630.92344 -18366666.17942  20573214.928    20573212.936
  20292894.139   -19077086.40144 -14857441.48742  20292896.806    20292893.699
  22036122.453   -12839542.80643  -9986682.33242  22036124.147    22036122.960
  21174420.984   -13285581.65943 -10331654.70842  21174422.467    21174420.893
  22281627.150   -11806466.30643  -9182016.40942  22281629.389    22281627.493
  20758166.657   -18214216.99844 -14141495.51742  20758168.245    20758165.931
 03 12 26  0 40  0.0000000  0  6G17G30G24G10G 6G 5
  20575360.444   -23576348.24144 -18357874.46742  20575361.998    20575359.902
  20288636.012   -19099463.00644 -14874877.79542  20288638.689    20288635.566
  22050359.809   -12764725.59643  -9928383.22442  22050361.499    22050360.305
  21168074.901   -13318930.53143 -10357640.81042  21168076.383    21168074.848
  22269743.095   -11868917.94143  -9230679.97642  22269745.290    22269743.362
  20768523.056   -18159793.78944 -14099087.82542  20768524.660    20768522.428
 03 12 26  0 40 30.0000000  0  6G17G30G24G10G 6G 5
  20577578.915   -23564689.93844 -18348790.06142  20577580.500    20577578.384
  20284484.467   -19121279.50644 -14891877.65142  20284487.156    20284483.996
  22064628.783   -12689741.87343  -9869954.36042  22064630.532    22064629.309
  21161842.608   -13351681.22043 -10383160.80042  21161844.150    21161842.550
  22257874.693   -11931287.19543  -9279279.35842  22257876.913    22257874.799
  20778971.362   -18104887.61744 -14056303.79642  20778972.967    20778970.822
 03 12 26  0 41  0.0000000  0  6G17G30G24G10G 6G 5
  20579868.128   -23552660.01344 -18339416.09242  20579869.699    20579867.611
  20280439.249   -19142537.44644 -14908442.27342  20280441.921    20280438.715
  22078928.589   -12614596.09043  -9811399.21242  22078930.382    22078929.098
  21155724.086   -13383834.72043 -10408215.45142  21155725.606    21155723.921
  22246021.396   -11993576.04743  -9327816.07842  22246023.720    22246021.621
  20789510.773   -18049502.63444 -14013146.67342  20789512.385    20789510.304
 03 12 26  0 41 30.0000000  0  6G17G30G24G10G 6G 5
  20582227.919   -23540259.20044 -18329753.11642  20582229.478    20582227.405
  20276500.580   -19163235.11844 -14924570.31842  20276503.253    20276500.034
  22093258.878   -12539289.75543  -9752718.95742  22093260.747    22093259.476
  21149719.495   -13415389.03343 -10432803.19542  21149721.091    21149719.289
  22234183.733   -12055783.46443  -9376289.34742  22234186.019    22234183.860
  20800141.205   -17993639.51244 -13969616.97642  20800142.811    20800140.749
 03 12 26  0 42  0.0000000  0  6G17G30G24G10G 6G 5
  20584659.078   -23527483.31144 -18319797.87542  20584660.615    20584658.536
  20272669.760   -19183365.98844 -14940256.70242  20272672.437    20272669.213
  22107620.420   -12463819.35543  -9693910.86642  22107622.329    22107621.095
  21143830.190   -13446337.05643 -10456918.51542  21143831.846    21143829.997
  22222362.683   -12117903.31243  -9424694.39142  22222364.992    22222362.763
  20810863.320   -17937294.23744 -13925711.57042  20810864.996    20810862.901
 03 12 26  0 42 30.0000000  0  6G17G30G24G10G 6G 5
  20587160.007   -23514340.69344 -18309556.86442  20587161.566    20587159.470
  20268945.652   -19202936.16744 -14955506.18442  20268948.325    20268945.126
  22122011.419   -12388194.26743  -9634982.23442  22122013.357    22122012.088
  21138055.033   -13476685.01443 -10480566.24942  21138056.653    21138054.881
  22210557.045   -12179942.40043  -9473036.49842  22210559.382    22210557.000
  20821675.535   -17880475.84344 -13881437.50442  20821677.212    20821675.086
 03 12 26  0 43  0.0000000  0  6G17G30G24G10G 6G 5
  20589731.316   -23500828.54044 -18299027.91042  20589732.835    20589730.720
  20265329.205   -19221940.56144 -14970314.79442  20265331.905    20265328.744
  22136432.219   -12312412.41043  -9575931.44142  22136434.173    22136432.790
  21132395.245   -13506427.38543 -10503742.09242  21132396.781    21132395.053
  22198767.654   -12241895.84743  -9521311.87642  22198770.047    22198767.530
  20832578.211   -17823181.78244 -13836792.79142  20832579.867    20832577.788
 03 12 26  0 43 30.0000000  0  6G17G30G24G10G 6G 5
  20592372.125   -23486950.79344 -18288214.07642  20592373.651    20592371.572
  20261820.117   -19240380.68244 -14984683.70942  20261822.847    20261819.741
  22150881.964   -12236478.38343  -9516762.08542  22150883.953    22150882.522
  21126850.512   -13535565.36943 -10526446.98642  21126852.056    21126850.270
  22186994.239   -12303765.50543  -9569521.96742  22186996.616    22186994.073
  20843570.764   -17765415.33544 -13791779.98242  20843572.389    20843570.392
 03 12 26  0 44  0.0000000  0  6G17G30G24G10G 6G 5
  20595082.525   -23472707.34944 -18277115.28842  20595084.005    20595082.007
  20258418.966   -19258254.07544 -14998611.01842  20258421.676    20258418.519
  22165360.631   -12160392.82543  -9457474.63542  22165362.621    22165361.096
  21121421.219   -13564096.32743 -10548678.86742  21121422.802    21121421.029
  22175237.053   -12365549.48843  -9617665.29242  22175239.437    22175236.945
  20854653.108   -17707176.79544 -13746399.31242  20854654.730    20854652.837
 03 12 26  0 44 30.0000000  0  6G17G30G24G10G 6G 5
  20597862.083   -23458100.49944 -18265733.32742  20597863.519    20597861.581
  20255125.617   -19275560.79944 -15012096.77142  20255128.326    20255125.085
  22179867.603   -12084158.44443  -9398071.23242  22179869.577    22179868.043
  21116107.458   -13592019.88743 -10570437.45842  21116109.072    21116107.357
  22163496.214   -12427248.21443  -9665742.18542  22163498.547    22163496.037
  20865824.769   -17648469.43444 -13700653.32342  20865826.381    20865824.463
 03 12 26  0 45  0.0000000  0  6G17G30G24G10G 6G 5
  20600711.730   -23443125.78744 -18254064.72142  20600713.118    20600711.171
  20251941.315   -19292294.07444 -15025135.68342  20251944.018    20251940.786
  22194403.339   -12007771.92043  -9338549.27242  22194405.427    22194403.870
  21110910.641   -13619329.22243 -10591717.43442  21110912.218    21110910.516
  22151772.569   -12488855.31843  -9713747.69442  22151774.949    22151772.529
  20877086.549   -17589288.47144 -13654538.29642  20877088.181    20877086.223
 03 12 26  0 45 30.0000000  0  6G17G30G24G10G 6G 5
  20603629.567   -23427792.10644 -18242116.39342  20603631.019    20603629.099
  20248864.857   -19308460.67144 -15037733.02342  20248867.542    20248864.322
  22208966.363   -11931242.95443  -9278916.31142  22208968.460    22208966.750
  21105829.569   -13646030.60244 -10612523.68142  21105831.109    21105829.322
  22140065.199   -12550377.76343  -9761687.22642  22140067.439    22140065.182
  20888436.654   -17529643.56344 -13608061.75342  20888438.303    20888436.296
 03 12 26  0 46  0.0000000  0  7G17G30G24G21G10G 6G 5
  20606611.287   -23412122.76644 -18229906.51342  20606612.747    20606610.914
  20245892.363   -19324081.62644 -15049905.19042  20245894.992    20245891.700
  22223551.964   -11854595.52243  -9219191.05842  22223553.950    22223552.241
  24150856.548    -1504577.23453  -1122664.18252  24150859.656    24150858.134
  21100860.288   -13672144.78944 -10632872.36942  21100861.856    21100859.883
  22128369.874   -12611836.84443  -9809577.39842  22128372.049    22128369.873
  20899870.608   -17469558.07944 -13561241.90242  20899872.254    20899870.212
 03 12 26  0 46 30.0000000  0  7G17G30G24G21G10G 6G 5
  20609665.192   -23396074.32144 -18217401.22742  20609666.656    20609664.796
  20243032.387   -19339111.21944 -15061616.55442  20243035.005    20243031.619
  22238168.178   -11777786.48443  -9159339.86342  22238170.166    22238168.459
  24134011.416    -1593096.34643  -1191640.00642  24134014.265    24134013.595
  21096011.404   -13697625.87744 -10652727.73442  21096013.050    21096010.967
  22116695.232   -12673186.92943  -9857382.63042  22116697.392    22116695.246
  20911396.489   -17408989.20644 -13514045.38642  20911398.153    20911396.100
 03 12 26  0 47  0.0000000  0  7G17G30G24G21G10G 6G 5
  20612788.489   -23379661.52144 -18204612.03042  20612789.922    20612788.012
  20240282.486   -19353562.00944 -15072876.90142  20240285.177    20240281.709
  22252812.366   -11700831.15643  -9099374.68242  22252814.236    22252812.622
  24117199.458    -1681440.67643  -1260479.63742  24117202.766    24117201.827
  21091280.690   -13722486.21844 -10672099.39542  21091282.322    21091280.180
  22105038.929   -12734440.87943  -9905112.94242  22105041.075    22105038.979
  20923011.498   -17347951.55944 -13466483.59142  20923013.185    20923011.186
 03 12 26  0 47 30.0000000  0  7G17G30G24G21G10G 6G 5
  20615979.223   -23362894.04544 -18191546.45842  20615980.674    20615978.777
  20237641.279   -19367441.60044 -15083692.15842  20237643.993    20237640.506
  22267482.231   -11623740.18643  -9039303.80542  22267484.082    22267482.610
  24100419.742    -1769617.56543  -1329188.78742  24100422.845    24100422.180
  21086666.641   -13746733.06844 -10690993.01842  21086668.288    21086666.122
  22093399.501   -12795606.62243  -9952774.53142  22093401.606    22093399.430
  20934713.745   -17286455.41644 -13418564.52742  20934715.437    20934713.523
 03 12 26  0 48  0.0000000  0  7G17G30G24G21G10G 6G 5
  20619237.897   -23345769.21044 -18178202.42542  20619239.344    20619237.576
  20235109.669   -19380745.06744 -15094058.48242  20235112.405    20235108.968
  22282178.441   -11546511.45643  -8979125.58742  22282180.230    22282178.834
  24083672.985    -1857622.71643  -1397764.10842  24083675.460    24083675.198
  21082170.257   -13770361.32644 -10709404.61542  21082171.909    21082169.727
  22081777.636   -12856679.40143 -10000363.67742  22081779.779    22081777.648
  20946503.822   -17224498.40844 -13370286.34642  20946505.465    20946503.511
 03 12 26  0 48 30.0000000  0  7G17G30G24G21G10G 6G 5
  20622564.579   -23328287.47844 -18164580.29342  20622566.022    20622564.274
  20232688.094   -19393470.32744 -15103974.26042  20232690.821    20232687.476
  22296900.616   -11469145.93843  -8918840.76942  22296902.388    22296900.951
  24066958.958    -1945453.98943  -1466203.88342  24066961.510    24066961.179
  21077792.023   -13793368.73843 -10727332.44342  21077793.625    21077791.538
  22070173.955   -12917657.24343 -10047878.85042  22070176.075    22070173.965
  20958381.528   -17162080.71844 -13321649.19842  20958383.158    20958381.163
 03 12 26  0 49  0.0000000  0  7G17G30G24G21G10G 6G 5
  20625957.882   -23310455.73144 -18150685.41942  20625959.339    20625957.523
  20230375.536   -19405622.70544 -15113443.63342  20230378.224    20230375.008
  22311647.432   -11391651.24043  -8858455.30042  22311649.117    22311647.773
  24050277.434    -2033116.74143  -1534512.37542  24050279.719    24050278.860
  21073530.958   -13815760.32043 -10744780.40942  21073532.525    21073530.579
  22058587.234   -12978545.55243 -10095324.26242  22058589.361    22058587.286
  20970345.363   -17099210.62744 -13272659.52342  20970346.951    20970344.895
 03 12 26  0 49 30.0000000  0  7G17G30G24G21G10G 6G 5
  20629418.192   -23292271.48844 -18136515.86742  20629419.680    20629417.842
  20228172.912   -19417197.42844 -15122462.88642  20228175.566    20228172.462
  22326419.297   -11314025.03843  -8797967.36342  22326420.909    22326419.572
  24033628.747    -2120606.17943  -1602685.82742  24033631.216    24033629.867
  21069388.100   -13837530.89143 -10761744.46442  21069389.647    21069387.842
  22047018.577   -13039339.48143 -10142696.11842  22047020.638    22047018.543
  20982395.733   -17035885.15644 -13223315.01042  20982397.348    20982395.266
 03 12 26  0 50  0.0000000  0  7G17G30G24G21G10G 6G 5
  20632945.474   -23273735.26744 -18122072.05242  20632946.976    20632945.138
  20226080.519   -19428192.60744 -15131030.54742  20226083.207    20226080.178
  22341215.819   -11236268.86243  -8737378.15742  22341217.401    22341216.180
  24017013.530    -2207919.99243  -1670722.44242  24017015.999    24017014.486
  21065363.844   -13858678.55144 -10778223.13742  21065365.372    21065363.660
  22035468.127   -13100037.51143 -10189993.24842  22035470.219    22035468.085
  20994532.508   -16972105.50744 -13173616.58642  20994534.166    20994532.135
 03 12 26  0 50 30.0000000  0  7G17G30G24G21G10G 6G 5
  20636538.994   -23254851.51544 -18107357.43942  20636540.467    20636538.621
  20224097.942   -19438611.04344 -15139148.80142  20224100.608    20224097.583
  22356036.054   -11158387.69843  -8676691.53742  22356037.718    22356036.581
  24000431.165    -2295061.54543  -1738624.81542  24000433.508    24000432.174
  21061457.673   -13879205.65444 -10794218.26042  21061459.186    21061457.508
  22023935.472   -13160642.02543 -10237217.52042  22023937.619    22023935.427
  21006754.874   -16907876.61244 -13123568.10142  21006756.484    21006754.492
 03 12 26  0 51  0.0000000  0  7G17G30G24G21G10G 6G 5
  20640199.517   -23235615.54444 -18092368.36542  20640201.020    20640199.083
  20222226.498   -19448445.55344 -15146812.05542  20222229.159    20222226.078
  22370880.850   -11080376.94143  -8615903.94642  22370882.575    22370881.590
  23983882.578    -2382023.49243  -1806387.25242  23983885.128    23983883.933
  21057670.890   -13899105.21944 -10809724.39242  21057672.413    21057670.698
  22012421.820   -13221146.19743 -10284363.60042  22012424.063    22012421.884
  21019063.645   -16843193.78844 -13073165.91142  21019065.201    21019063.261
 03 12 26  0 51 30.0000000  0  7G17G30G24G21G10G 6G 5
  20643925.935   -23216033.28044 -18077109.45642  20643927.456    20643925.423
  20220465.435   -19457700.22044 -15154023.48042  20220468.030    20220464.937
  22385749.330   -11002243.33543  -8555020.61842  22385750.888    22385749.804
  23967367.464    -2468810.02643  -1874012.99142  23967369.970    23967368.763
  21054002.784   -13918381.04044 -10824744.49242  21054004.293    21054002.523
  22000926.538   -13281553.93543 -10331434.53442  22000928.739    22000926.738
  21031457.551   -16778063.65444 -13022415.16342  21031459.095    21031457.138
 03 12 26  0 52  0.0000000  0  7G17G30G24G21G10G 6G 5
  20647717.155   -23196110.30844 -18061585.05342  20647718.722    20647716.585
  20218813.966   -19466378.48544 -15160785.75642  20218816.573    20218813.511
  22400640.090   -10923992.94443  -8494046.29542  22400641.544    22400640.259
  23950885.468    -2555424.38243  -1941504.60142  23950887.808    23950886.213
  21050452.814   -13937036.21644 -10839280.96742  21050454.298    21050452.379
  21989448.973   -13341868.59943 -10378432.94742  21989451.140    21989449.289
  21043935.415   -16712492.23144 -12971320.55842  21043936.963    21043934.950
 03 12 26  0 52 30.0000000  0  7G17G30G24G21G10G 6G 5
  20651574.631   -23175839.15544 -18045789.34142  20651576.234    20651574.044
  20217273.961   -19474471.06944 -15167091.65842  20217276.535    20217273.549
  22415554.015   -10845619.29243  -8432975.91842  22415555.633    22415554.260
  23934437.622    -2641857.25343  -2008854.78642  23934440.213    23934438.301
  21047022.716   -13955061.43344 -10853326.56342  21047024.201    21047022.122
  21977991.093   -13402080.68643 -10425351.43142  21977993.204    21977991.299
  21056498.621   -16646472.38544 -12919876.52842  21056500.176    21056498.035
 03 12 26  0 53  0.0000000  0  7G17G30G24G21G10G 6G 5
  20655497.237   -23155225.65044 -18029726.86142  20655498.836    20655496.685
  20215844.690   -19481981.73544 -15172944.11442  20215847.249    20215844.344
  22430490.250   -10767128.48043  -8371814.24742  22430491.901    22430490.636
  23918024.084    -2728111.67643  -2076065.92742  23918026.709    23918024.489
  21043711.846   -13972460.30244 -10866884.09242  21043713.370    21043711.058
  21966551.944   -13462193.77543 -10472192.76442  21966554.134    21966552.187
  21069145.956   -16580010.40844 -12868087.98442  21069147.542    21069145.243
 03 12 26  0 53 30.0000000  0  7G17G30G24G21G10G 6G 5
  20659484.737   -23134271.35844 -18013398.83542  20659486.294    20659484.111
  20214526.363   -19488909.75944 -15178342.56742  20214528.922    20214525.984
  22445448.409   -10688522.06843  -8310562.49242  22445450.072    22445448.977
  23901644.284    -2814187.39543  -2143137.83242  23901647.057    23901644.823
  21040520.336   -13989231.84244 -10879952.79742  21040521.859    21040519.428
  21955131.751   -13522207.10143 -10518956.36242  21955134.042    21955132.105
  21081876.971   -16513108.29444 -12815956.48342  21081878.643    21081876.213
 03 12 26  0 54  0.0000000  0  7G17G30G24G21G10G 6G 5
  20663536.921   -23112976.97344 -17996805.80542  20663538.478    20663536.212
  20213319.081   -19495254.05844 -15183286.17142  20213321.668    20213318.694
  22460428.492   -10609801.52443  -8249221.80842  22460430.046    22460429.005
  23885298.907    -2900083.09143  -2210069.46542  23885301.749    23885299.509
  21037448.347   -14005374.69744 -10892531.61742  21037449.943    21037447.518
  21943730.755   -13582119.35743 -10565641.20842  21943733.076    21943731.173
  21094691.589   -16445767.25944 -12763482.95842  21094693.310    21094690.697
 03 12 26  0 54 30.0000000  0  7G17G30G24G21G10G 6G 5
  20667653.556   -23091343.77544 -17979948.75842  20667655.118    20667652.860
  20212223.046   -19501014.06844 -15187774.48442  20212225.587    20212222.588
  22475429.916   -10530968.64843  -8187793.59342  22475431.481    22475430.417
  23868988.083    -2985798.19643  -2276860.34642  23868990.973    23868988.667
  21034496.189   -14020887.88144 -10904619.79442  21034497.779    21034495.505
  21932349.177   -13641929.54043 -10612246.51642  21932351.468    21932349.640
  21107589.367   -16377989.03444 -12710668.77042  21107591.119    21107588.389
 03 12 26  0 55  0.0000000  0  7G17G30G24G21G10G 6G 5
  20671834.273   -23069373.63944 -17962829.16342  20671835.800    20671833.655
  20211238.100   -19506189.56044 -15191807.32642  20211240.707    20211237.703
  22490452.341   -10452025.62143  -8126279.54742  22490453.807    22490452.741
  23852711.608    -3071331.95843  -2343509.91642  23852714.667    23852712.246
  21031663.898   -14035771.28943 -10916217.23842  21031665.464    21031663.383
  21920987.053   -13701637.31943 -10658772.02742  21920989.340    21920987.610
  21120569.960   -16309775.65444 -12657515.49942  21120571.730    21120568.938
 03 12 26  0 55 30.0000000  0  7G17G30G24G21G10G 6G 5
  20676078.719   -23047068.74944 -17945448.71942  20676080.201    20676078.184
  20210364.378   -19510780.88844 -15195384.97342  20210366.973    20210363.984
  22505494.987   -10372974.95343  -8064681.60742  22505496.576    22505495.622
  23836469.563    -3156684.85543  -2410018.55642  23836472.614    23836470.224
  21028951.528   -14050025.04644 -10927324.04342  21028953.038    21028951.076
  21909644.590   -13761242.81443 -10705217.83542  21909646.781    21909645.015
  21133632.771   -16241130.18944 -12604025.54042  21133634.573    21133631.761
 03 12 26  0 56  0.0000000  0  7G17G30G24G21G10G 6G 5
  20680387.333   -23024427.01544 -17927805.81142  20680388.783    20680386.778
  20209602.630   -19514783.99944 -15198504.27542  20209605.180    20209602.215
  22520558.524   -10293815.02343  -8002998.53642  22520560.089    22520559.402
  23820262.648    -3241852.34643  -2476382.75842  23820265.571    23820263.410
  21026359.756   -14063645.24444 -10937937.16642  21026361.279    21026359.295
  21898322.204   -13820741.70443 -10751580.57642  21898324.435    21898322.751
  21146778.082   -16172050.83544 -12550197.48542  21146779.926    21146777.200
 03 12 26  0 56 30.0000000  0  7G17G30G24G21G10G 6G 5
  20684759.518   -23001450.73344 -17909902.20842  20684760.997    20684759.059
  20208952.799   -19518199.30744 -15201165.55242  20208955.347    20208952.284
  22535642.428   -10214548.64843  -7941232.52342  22535643.852    22535643.347
  23804090.916    -3326834.89743  -2542602.82542  23804093.725    23804091.826
  21023888.543   -14076632.04344 -10948056.73142  21023890.072    21023887.987
  21887020.196   -13880134.01943 -10797860.27042  21887022.307    21887020.736
  21160005.535   -16102540.18644 -12496033.35742  21160007.352    21160004.776
 03 12 26  0 57  0.0000000  0  7G17G30G24G21G10G 6G 5
  20689194.782   -22978143.31344 -17891740.57242  20689196.215    20689194.331
  20208414.483   -19521028.49544 -15203370.11242  20208417.049    20208413.913
  22550745.929   -10135179.68043  -7879386.55242  22550747.285    22550746.727
  23787954.130    -3411633.49643  -2608679.57442  23787956.875    23787955.178
  21021537.511   -14088986.83144 -10957683.81742  21021539.082    21021536.975
  21875738.213   -13939420.91843 -10844057.81942  21875740.288    21875738.736
  21173314.242   -16032602.35044 -12441536.35742  21173316.005    21173313.625
 03 12 26  0 57 30.0000000  0  7G17G30G24G21G10G 6G 5
  20693692.876   -22954505.44144 -17873321.44642  20693694.304    20693692.482
  20207987.864   -19523270.52644 -15205117.14342  20207990.447    20207987.341
  22565868.539   -10055708.92943  -7817461.29542  22565869.980    22565869.493
  23771852.498    -3496247.28843  -2674612.28742  23771855.149    23771853.777
  21019306.884   -14100708.31144 -10966817.41642  21019308.478    21019306.468
  21864476.719   -13998600.82243 -10890172.00542  21864478.798    21864477.159
  21186703.998   -15962238.74344 -12386707.58642  21186705.681    21186703.438
 03 12 26  0 58  0.0000000  0  7G17G30G24G21G10G 6G 5
  20698253.504   -22930539.22944 -17854646.47142  20698254.881    20698253.098
  20207672.945   -19524925.45844 -15206406.68942  20207675.522    20207672.534
  22581010.097    -9976138.94843  -7755458.70142  22581011.502    22581011.021
  23755786.206    -3580676.06843  -2740400.86142  23755788.691    23755787.445
  21017196.745   -14111796.63743 -10975457.65042  21017198.320    21017196.418
  21853235.568   -14057673.57143 -10936202.68242  21853237.599    21853235.978
  21200174.323   -15891451.72644 -12331548.88642  21200175.933    21200173.823
 03 12 26  0 58 30.0000000  0  7G17G30G24G21G10G 6G 5
  20702876.541   -22906244.50944 -17835715.51842  20702877.955    20702876.230
  20207470.076   -19525991.32344 -15207237.22742  20207472.681    20207469.802
  22596170.608    -9896469.85343  -7693378.87742  22596171.858    22596171.448
  23739755.534    -3664917.70743  -2806043.59142  23739757.813    23739756.686
  21015207.529   -14122249.56943 -10983602.77742  21015209.095    21015207.297
  21842015.352   -14116636.70943 -10982147.95442  21842017.401    21842015.654
  21213725.142   -15820241.83344 -12276060.67342  21213726.705    21213724.617
 03 12 26  0 59  0.0000000  0  7G17G30G24G21G10G 6G 5
  20707561.463   -22881625.25944 -17816531.68242  20707562.844    20707561.102
  20207378.821   -19526470.41844 -15207610.54242  20207381.411    20207378.667
  22611349.132    -9816705.99443  -7631225.22442  22611350.336    22611349.999
  23723760.345    -3748974.12243  -2871541.99042  23723762.363    23723761.152
  21013338.820   -14132069.36043 -10991254.54042  21013340.349    21013338.621
  21830815.501   -14175491.87143 -11028009.08942  21830817.697    21830815.875
  21227355.622   -15748613.43844 -12220246.35142  21227357.181    21227355.057
 03 12 26  0 59 30.0000000  0  7G17G30G24G21G10G 6G 5
  20712308.604   -22856678.94044 -17797092.98542  20712309.998    20712308.288
  20207399.989   -19526358.55644 -15207523.37042  20207402.580    20207399.933
  22626546.053    -9736845.20443  -7568996.02842  22626547.381    22626546.967
  23707801.095    -3832840.42543  -2936892.25142  23707803.150    23707801.786
  21011591.428   -14141251.36843 -10998409.33242  21011592.941    21011591.323
  21819637.225   -14234234.28343 -11073782.37442  21819639.444    21819637.575
  21241066.112   -15676564.60344 -12164104.41442  21241067.666    21241065.504
 03 12 26  1  0  0.0000000  0  7G17G30G24G21G10G 6G 5
  20717117.335   -22831409.07544 -17777402.17842  20717118.693    20717117.056
  20207533.492   -19525657.20144 -15206976.85542  20207536.055    20207533.386
  22641760.949    -9656891.32643  -7506694.30342  22641762.169    22641761.661
  23691877.554    -3916517.89243  -3002095.35642  23691879.806    23691878.219
  21009965.170   -14149797.45743 -11005068.60742  21009966.620    21009965.035
  21808480.120   -14292864.99943 -11119468.61842  21808482.318    21808480.492
  21254855.916   -15604099.12244 -12107637.82242  21254857.445    21254855.226
 03 12 26  1  0 30.0000000  0  7G17G30G24G21G10G 6G 5
  20721987.009   -22805818.29444 -17757461.30742  20721988.381    20721986.847
  20207778.996   -19524367.63544 -15205971.99142  20207781.566    20207778.771
  22656992.745    -9576847.32843  -7444322.34042  22656994.097    22656993.569
  23675990.036    -4000007.21243  -3067151.88542  23675992.267    23675990.479
  21008459.741   -14157708.78044 -11011233.25742  21008461.180    21008459.622
  21797344.220   -14351384.57143 -11165068.25642  21797346.355    21797344.579
  21268724.241   -15531220.80844 -12050849.53642  21268725.791    21268723.521
 03 12 26  1  1  0.0000000  0  7G17G30G24G21G10G 6G 5
  20726918.264   -22779904.39944 -17737268.66342  20726919.606    20726918.029
  20208137.172   -19522485.75844 -15204505.58742  20208139.774    20208136.885
  22672242.109    -9496711.19743  -7381878.58642  22672243.620    22672242.942
  23660139.028    -4083304.44943  -3132058.72942  23660141.279    23660139.332
  21007075.920   -14164981.06044 -11016899.94842  21007077.386    21007075.755
  21786230.306   -14409788.31743 -11210577.64342  21786232.433    21786230.697
  21282671.449   -15457927.67444 -11993738.01942  21282673.023    21282670.780
 03 12 26  1  1 30.0000000  0  7G17G30G24G21G10G 6G 5
  20731909.616   -22753674.62744 -17716829.87442  20731910.976    20731909.384
  20208606.922   -19520017.21544 -15202582.04542  20208609.544    20208606.615
  22687507.825    -9416490.49043  -7319368.93942  22687509.321    22687508.420
  23644323.613    -4166414.54443  -3196819.71742  23644325.870    23644323.899
  21005812.692   -14171619.47843 -11022072.71942  21005814.167    21005812.473
  21775137.588   -14468081.10943 -11256000.57242  21775139.696    21775137.917
  21296696.099   -15384227.57444 -11936309.38442  21296697.698    21296695.521
 03 12 26  1  2  0.0000000  0  7G17G30G24G21G10G 6G 5
  20736962.320   -22727122.52444 -17696139.90842  20736963.681    20736962.116
  20209189.851   -19516953.95844 -15200195.08542  20209192.479    20209189.524
  22702790.414    -9336179.14843  -7256788.66742  22702792.146    22702791.091
  23628545.608    -4249328.74843  -3261428.09842  23628547.749    23628545.609
  21004671.470   -14177616.20343 -11026745.46742  21004672.974    21004671.290
  21764067.612   -14526254.38543 -11301330.36942  21764069.688    21764067.914
  21310799.298   -15310114.62544 -11878559.04842  21310800.927    21310798.822
 03 12 26  1  2 30.0000000  0  7G17G30G24G21G10G 6G 5
  20742074.739   -22700256.44744 -17675205.29242  20742076.121    20742074.533
  20209884.673   -19513302.71444 -15197349.95942  20209887.276    20209884.327
  22718088.696    -9255785.67243  -7194144.38942  22718090.552    22718089.445
  23612803.519    -4332053.79143  -3325889.04542  23612805.671    23612803.568
  21003651.105   -14182977.99543 -11030923.47442  21003652.592    21003650.990
  21753019.297   -14584313.97143 -11346571.58242  21753021.383    21753019.577
  21324979.446   -15235597.70844 -11820493.93842  21324981.036    21324978.970
 03 12 26  1  3  0.0000000  0  7G17G30G24G21G10G 6G 5
  20747247.668   -22673072.36444 -17654022.88442  20747249.078    20747247.468
  20210692.422   -19509057.74144 -15194042.18642  20210695.032    20210692.122
  22733403.317    -9175306.36343  -7131433.21042  22733405.253    22733404.140
  23597098.538    -4414583.57843  -3390197.86542  23597100.575    23597098.424
  21002752.717   -14187699.07743 -11034602.22342  21002754.139    21002752.679
  21741993.771   -14642253.48643 -11391719.22842  21741995.901    21741994.089
  21339236.984   -15160673.82444 -11762111.70142  21339238.632    21339236.544
 03 12 26  1  3 30.0000000  0  7G17G30G24G21G10G 6G 5
  20752480.298   -22645574.91244 -17632596.30142  20752481.678    20752480.034
  20211612.592   -19504222.24944 -15190274.26542  20211615.211    20211612.267
  22748733.452    -9094745.96143  -7068658.86342  22748735.373    22748734.335
  23581430.232    -4496920.77143  -3454356.61642  23581432.169    23581430.263
  21001975.724   -14191782.20843 -11037783.86542  21001977.133    21001975.784
  21730990.700   -14700075.23143 -11436775.09842  21730992.865    21730991.039
  21353571.012   -15085348.02144 -11703416.28942  21353572.666    21353570.558
 03 12 26  1  4  0.0000000  0  7G17G30G24G21G10G 6G 5
  20757772.140   -22617765.89144 -17610926.92442  20757773.573    20757771.890
  20212645.092   -19498796.36844 -15186046.30342  20212647.715    20212644.742
  22764078.555    -9014106.68743  -7005823.05542  22764080.490    22764079.516
  23565798.482    -4579064.53343  -3518364.65942  23565800.499    23565798.788
  21001320.134   -14195227.63343 -11040468.58542  21001321.500    21001320.138
  21720010.119   -14757778.50043 -11481738.65542  21720012.341    21720010.530
  21367980.971   -15009622.73243 -11644409.57842  21367982.688    21367980.594
 03 12 26  1  4 30.0000000  0  7G17G30G24G21G10G 6G 5
  20763122.947   -22589647.10244 -17589016.16742  20763124.398    20763122.719
  20213789.922   -19492780.29244 -15181358.45542  20213792.513    20213789.523
  22779438.442    -8933390.45543  -6942927.27942  22779440.281    22779439.335
  23550203.871    -4661014.95343  -3582222.00742  23550205.735    23550204.022
  21000785.803   -14198035.49943 -11042656.51342  21000787.230    21000785.766
  21709052.133   -14815362.69543 -11526609.41942  21709054.405    21709052.657
  21382466.444   -14933500.38043 -11585093.47442  21382468.174    21382466.187
 03 12 26  1  5  0.0000000  0  7G17G30G24G21G10G 6G 5
  20768533.034   -22561217.08344 -17566862.89442  20768534.463    20768532.768
  20215047.604   -19486171.19044 -15176208.50442  20215050.192    20215047.166
  22794813.103    -8852595.60043  -6879970.24442  22794814.984    22794814.030
  23534646.693    -4742768.58043  -3645926.07642  23534648.488    23534646.365
  21000373.323   -14200202.90543 -11044345.38542  21000374.810    21000373.249
  21698117.533   -14872824.08343 -11571384.49642  21698119.800    21698118.091
  21397027.668   -14856979.93043 -11525467.16442  21397029.355    21397027.581
 03 12 26  1  5 30.0000000  0  7G17G30G24G21G10G 6G 5
  20774002.083   -22532476.87144 -17544467.91342  20774003.556    20774001.811
  20216418.212   -19478968.56844 -15170596.07442  20216420.810    20216417.783
  22810202.604    -8771723.61743  -6816953.12342  22810204.389    22810203.458
  23519126.905    -4824324.46143  -3709476.03742  23519128.570    23519126.383
  21000082.815   -14201729.34943 -11045534.80542  21000084.311    21000082.649
  21687206.557   -14930161.17043 -11616062.71642  21687208.767    21687207.124
  21411664.328   -14780063.51243 -11465532.30542  21411665.932    21411664.307
 03 12 26  1  6  0.0000000  0  7G17G30G24G21G10G 6G 5
  20779528.872   -22503433.06244 -17521836.36342  20779530.398    20779528.640
  20217900.810   -19471177.36244 -15164524.99842  20217903.400    20217900.412
  22825605.495    -8690781.18243  -6753881.08242  22825607.221    22825606.314
  23503643.966    -4905687.14043  -3772875.42742  23503645.471    23503643.200
  20999913.427   -14202619.67443 -11046228.54342  20999914.900    20999913.185
  21676318.513   -14987378.08343 -11660647.28842  21676320.650    21676319.009
  21426375.026   -14702758.24943 -11405294.44642  21426376.587    21426375.031
 03 12 26  1  6 30.0000000  0  7G17G30G24G21G10G 6G 5
  20785114.244   -22474081.90744 -17498965.32942  20785115.720    20785114.008
  20219496.333   -19462792.71744 -15157991.50242  20219498.952    20219495.937
  22841022.249    -8609765.13643  -6690751.69242  22841023.990    22841023.171
  23488199.050    -4986850.96943  -3836119.88442  23488200.524    23488198.087
  20999865.948   -14202869.00243 -11046422.80942  20999867.465    20999865.717
  21665454.487   -15044468.82643 -11705133.54442  21665456.621    21665454.879
  21441160.377   -14625061.00343 -11344751.15042  21441161.879    21441160.357
 03 12 26  1  7  0.0000000  0  7G17G30G24G21G10G 6G 5
  20790757.163   -22444428.40444 -17475858.69542  20790758.644    20790756.933
  20221204.226   -19453817.98944 -15150998.20442  20221206.810    20221203.742
  22856452.346    -8528680.33843  -6627568.72942  22856453.978    22856453.071
  23472791.467    -5067818.86143  -3899211.64742  23472793.146    23472790.334
  20999939.872   -14202480.41343 -11046119.99242  20999941.424    20999939.655
  21654614.055   -15101435.69843 -11749523.28242  21654616.219    21654614.321
  21456019.094   -14546977.41343 -11283906.80442  21456020.654    21456019.230
 03 12 26  1  7 30.0000000  0  7G17G30G24G21G10G 6G 5
  20796457.548   -22414472.76144 -17452516.63342  20796459.052    20796457.301
  20223024.573   -19444251.94544 -15143544.14142  20223027.201    20223024.037
  22871895.320    -8447527.02443  -6564332.37342  22871897.066    22871895.918
  23457421.241    -5148588.84943  -3962149.23842  23457423.237    23457420.213
  21000135.386   -14201452.86243 -11045319.28542  21000136.930    21000135.129
  21643797.672   -15158276.30443 -11793814.63142  21643799.854    21643797.785
  21470951.226   -14468508.33043 -11222762.08142  21470952.794    21470951.437
 03 12 26  1  8  0.0000000  0  7G17G30G24G21G10G 6G 5
  20802215.360   -22384215.32044 -17428939.39442  20802216.888    20802215.079
  20224957.570   -19434093.57344 -15135628.52142  20224960.232    20224957.075
  22887351.296    -8366305.55443  -6501042.91142  22887353.120    22887351.672
  23442088.997    -5229159.13343  -4024931.20042  23442091.110    23442088.150
  21000452.773   -14199785.34044 -11044019.88842  21000454.244    21000452.359
  21633005.698   -15214988.62843 -11838006.01442  21633007.899    21633005.642
  21485956.625   -14389655.15843 -11161318.06342  21485958.123    21485956.702
 03 12 26  1  8 30.0000000  0  7G17G30G24G21G10G 6G 5
  20808030.585   -22353655.96644 -17405126.89842  20808032.155    20808030.347
  20227003.540   -19423341.49644 -15127250.27342  20227006.199    20227003.096
  22902820.118    -8285016.06043  -6437700.43242  22902822.010    22902820.443
  23426795.120    -5309528.20543  -4087556.38842  23426797.223    23426794.566
  21000892.141   -14197476.18643 -11042220.51542  21000893.630    21000891.730
  21622238.529   -15271570.19943 -11882095.51842  21622240.800    21622238.406
  21501034.887   -14310418.53443 -11099575.25642  21501036.442    21501034.917
 03 12 26  1  9  0.0000000  0  7G17G30G24G21G10G 6G 5
  20813901.928   -22322801.90844 -17381084.75942  20813903.499    20813901.723
  20229161.401   -19412001.50044 -15118413.90042  20229164.020    20229161.042
  22918300.581    -8203665.98443  -6374310.76742  22918302.423    22918300.840
  23411538.854    -5389700.71343  -4150028.42042  23411540.938    23411538.166
  21001452.465   -14194531.20443 -11039925.69842  21001453.977    21001452.077
  21611495.424   -15328025.58843 -11926086.70142  21611497.703    21611495.160
  21516184.725   -14230806.08643 -11037539.59642  21516186.286    21516184.622
 03 12 26  1  9 30.0000000  0  7G17G30G24G21G10G 6G 5
  20819829.965   -22291649.48544 -17356810.13942  20819831.540    20819829.836
  20231432.090   -19400068.84444 -15109115.71342  20231434.662    20231431.739
  22933793.228    -8122251.84943  -6310871.16742  22933795.106    22933793.470
  23396320.922    -5469671.15043  -4212342.99042  23396323.056    23396320.098
  21002134.725   -14190945.79543 -11037131.85742  21002136.217    21002134.355
  21600777.511   -15384348.79743 -11969974.88742  21600779.792    21600777.137
  21531406.546   -14150815.03143 -10975208.91842  21531408.117    21531406.383
 03 12 26  1 10  0.0000000  0  7G17G30G24G21G10G 6G 5
  20825814.079   -22260202.75444 -17332306.18642  20825815.614    20825813.944
  20233815.164   -19387546.13444 -15099357.75042  20233817.720    20233814.723
  22949297.454    -8040777.64743  -6247384.77342  22949299.334    22949297.523
  23381141.105    -5549441.52443  -4274501.65642  23381143.243    23381140.057
  21002938.371   -14186722.63343 -11033841.06542  21002939.819    21002937.984
  21590084.395   -15440541.38543 -12013761.28942  21590086.688    21590083.992
  21546699.569   -14070450.12543 -10912586.93342  21546701.122    21546699.299
 03 12 26  1 10 30.0000000  0  7G17G30G24G21G10G 6G 5
  20831854.144   -22228462.46044 -17307573.48642  20831855.628    20831853.937
  20236310.614   -19374432.80044 -15089139.56342  20236313.223    20236310.121
  22964812.736    -7959243.99943  -6183852.04642  22964814.786    22964812.781
  23365999.644    -5629010.44043  -4336503.34542  23366001.804    23365998.342
  21003863.457   -14181860.95643 -11030052.72542  21003864.914    21003863.075
  21579416.523   -15496601.29943 -12057444.31242  21579418.858    21579416.105
  21562063.440   -13989712.94243 -10849674.85942  21562065.016    21562063.047
 03 12 26  1 11  0.0000000  0  7G17G30G24G21G10G 6G 5
  20837950.143   -22196427.58944 -17282611.23642  20837951.638    20837950.006
  20238918.901   -19360726.62444 -15078459.42442  20238921.534    20238918.327
  22980339.314    -7877650.36043  -6120272.57642  22980341.418    22980339.506
  23350897.138    -5708375.44343  -4398346.13342  23350899.434    23350895.440
  21004910.515   -14176358.60143 -11025765.15642  21004911.948    21004910.090
  21568774.409   -15552525.29743 -12101021.42242  21568776.792    21568774.146
  21577498.207   -13908603.15144 -10786472.44342  21577499.830    21577497.722
 03 12 26  1 11 30.0000000  0  7G17G30G24G21G10G 6G 5
  20844101.610   -22164101.04344 -17257421.70942  20844103.090    20844101.537
  20241639.686   -19346429.52844 -15067318.81942  20241642.283    20241639.020
  22995876.890    -7795999.48743  -6056648.51742  22995878.868    22995877.033
  23335833.051    -5787537.38143  -4460030.69042  23335835.650    23335831.560
  21006079.193   -14170217.30744 -11020979.71142  21006080.638    21006078.787
  21558158.200   -15608313.86143 -12144493.00942  21558160.528    21558157.998
  21593003.218   -13827124.62544 -10722982.69942  21593004.860    21593002.584
 03 12 26  1 12  0.0000000  0  7G17G30G24G21G10G 6G 5
  20850307.630   -22131488.22944 -17232009.12342  20850309.083    20850307.498
  20244472.091   -19331545.11244 -15055720.56742  20244474.700    20244471.453
  23011424.514    -7714296.27143  -5992983.65842  23011426.434    23011424.535
  23320807.154    -5866498.97743  -4521559.15742  23320809.750    23320805.750
  21007368.729   -14163440.94444 -11015699.40542  21007370.198    21007368.332
  21547567.274   -15663969.34843 -12187860.89242  21547569.540    21547567.163
  21608577.242   -13745283.11543 -10659210.11342  21608578.993    21608576.506
 03 12 26  1 12 30.0000000  0  7G17G30G24G21G10G 6G 5
  20856568.978   -22098584.92244 -17206370.17642  20856570.370    20856568.745
  20247417.048   -19316068.63844 -15043660.97342  20247419.699    20247416.527
  23026982.910    -7632537.31243  -5929275.37442  23026984.765    23026982.758
  23305820.306    -5945254.75443  -4582927.23942  23305822.860    23305819.151
  21008779.954   -14156024.72344 -11009920.50742  21008781.474    21008779.571
  21537002.746   -15719485.61243 -12231120.29742  21537005.030    21537002.766
  21624220.927   -13663075.88744 -10595152.55542  21624222.716    21624220.064
 03 12 26  1 13  0.0000000  0  7G17G30G24G21G10G 6G 5
  20862883.865   -22065399.96544 -17180511.75042  20862885.266    20862883.594
  20250473.281   -19300007.62944 -15031145.89642  20250475.920    20250472.790
  23042550.243    -7550731.21043  -5865530.35042  23042552.055    23042550.005
  23290871.376    -6023811.57743  -4644140.28642  23290873.908    23290870.256
  21010311.506   -14147976.17544 -11003648.88642  21010313.013    21010311.123
  21526463.650   -15774868.64143 -12274275.87742  21526465.878    21526463.670
  21639932.371   -13580512.27444 -10530817.29042  21639934.221    21639931.441
 03 12 26  1 13 30.0000000  0  7G17G30G24G21G10G 6G 5
  20869253.868   -22031925.57044 -17154427.79342  20869255.240    20869253.500
  20253642.621   -19283352.87944 -15018168.16642  20253645.234    20253642.036
  23058127.800    -7468870.09643  -5801742.45242  23058129.760    23058127.728
  23275962.230    -6102159.55843  -4705190.63042  23275964.833    23275961.171
  21011965.209   -14139286.02044 -10996877.31142  21011966.694    21011964.751
  21515951.999   -15830107.83343 -12317319.37242  21515954.204    21515951.950
  21655712.914   -13497585.21043 -10466198.81842  21655714.817    21655711.914
 03 12 26  1 14  0.0000000  0  7G17G30G24G21G10G 6G 5
  20875677.867   -21998167.39744 -17128122.70642  20875679.257    20875677.430
  20256923.926   -19266109.30244 -15004731.60942  20256926.570    20256923.342
  23073714.740    -7386959.97443  -5737916.36342  23073716.698    23073714.659
  23261092.172    -6180302.42843  -4766081.12342  23261094.779    23261091.095
  21013740.089   -14129959.23744 -10989609.66442  21013741.550    21013739.490
  21505467.059   -15885206.70743 -12360253.53242  21505469.256    21505466.897
  21671561.280   -13414301.30043 -10401302.27942  21671563.220    21671560.278
 03 12 26  1 14 30.0000000  0  7G17G30G24G21G10G 6G 5
  20882155.551   -21964126.68744 -17101597.46642  20882156.978    20882155.117
  20260317.267   -19248277.10444 -14990836.38842  20260319.891    20260316.695
  23089310.958    -7305001.98643  -5674052.99742  23089312.799    23089310.745
  23246261.346    -6258239.47543  -4826811.24442  23246263.959    23246260.214
  21015636.078   -14119995.78644 -10981845.91342  21015637.531    21015635.351
  21495009.138   -15940163.78244 -12403077.19842  21495011.351    21495008.857
  21687477.196   -13330662.62043 -10336129.30542  21687479.055    21687476.152
 03 12 26  1 15  0.0000000  0  7G17G30G24G21G10G 6G 5
  20888686.715   -21929805.17844 -17074853.42642  20888688.094    20888686.254
  20263822.602   -19229856.51844 -14976482.68442  20263825.178    20263822.029
  23104915.951    -7222997.44443  -5610153.36042  23104917.797    23104915.650
  23231469.768    -6335970.19043  -4887380.58742  23231472.396    23231468.478
  21017653.024   -14109396.26243 -10973586.52242  21017654.510    21017652.284
  21484578.391   -15994977.99944 -12445789.54242  21484580.638    21484577.974
  21703460.109   -13246671.38243 -10270681.61242  21703461.958    21703459.105
 03 12 26  1 15 30.0000000  0  7G17G30G24G21G10G 6G 5
  20895270.765   -21895205.75144 -17047892.82542  20895272.170    20895270.318
  20267439.405   -19210849.86244 -14961672.29842  20267442.009    20267438.856
  23120529.196    -7140949.39443  -5546219.80642  23120531.072    23120528.691
  23216717.251    -6413495.66743  -4947790.00342  23216719.875    23216715.875
  21019790.644   -14098163.00944 -10964833.31442  21019792.141    21019789.894
  21474174.630   -16049649.82043 -12488390.92942  21474176.924    21474174.183
  21719509.359   -13162331.79843 -10204962.47942  21719511.146    21719508.325
 03 12 26  1 16  0.0000000  0  7G17G30G24G21G10G 6G 5
  20901908.367   -21860324.95544 -17020712.97542  20901909.773    20901907.926
  20271168.653   -19191252.55644 -14946401.66942  20271171.237    20271168.039
  23136151.232    -7058854.46243  -5482249.71642  23136153.267    23136150.881
  23202004.635    -6490810.89643  -5008035.58542  23202007.175    23202003.462
  21022049.757   -14086291.44944 -10955582.72642  21022051.251    21022048.933
  21463799.116   -16104173.15643 -12530876.61342  21463801.416    21463798.710
  21735625.313   -13077641.26643 -10138969.87542  21735627.120    21735624.381
 03 12 26  1 16 30.0000000  0  7G17G30G24G21G10G 6G 5
  20908598.085   -21825169.65544 -16993319.21942  20908599.515    20908597.700
  20275009.162   -19171070.48744 -14930675.38042  20275011.754    20275008.528
  23151781.072    -6976719.40143  -5418248.36542  23151782.994    23151780.850
  23187331.171    -6567920.53443  -5068120.96442  23187333.721    23187330.199
  21024429.062   -14073787.61943 -10945839.45542  21024430.611    21024428.274
  21453451.081   -16158552.16843 -12573249.83542  21453453.378    21453450.736
  21751806.717   -12992607.24343 -10072709.61742  21751808.443    21751805.839
 03 12 26  1 17  0.0000000  0  7G17G30G24G21G10G 6G 5
  20915340.456   -21789737.89444 -16965710.02442  20915341.911    20915340.056
  20278961.510   -19150300.80244 -14914491.20842  20278964.109    20278960.868
  23167418.586    -6894542.25643  -5354214.20942  23167420.609    23167418.833
  23172697.722    -6644821.01043  -5128043.37742  23172700.245    23172696.641
  21026929.295   -14060648.56943 -10935601.20942  21026930.779    21026928.541
  21443131.292   -16212782.48543 -12615507.19342  21443133.559    21443131.062
  21768053.620   -12907228.70943 -10006180.90542  21768055.311    21768052.933
 03 12 26  1 17 30.0000000  0  7G17G30G24G21G10G 6G 5
  20922134.692   -21754034.14144 -16937888.90342  20922136.078    20922134.187
  20283025.041   -19128947.04044 -14897851.91142  20283027.617    20283024.388
  23183063.615    -6812327.58143  -5290150.81942  23183065.430    23183063.890
  23158103.446    -6721514.29643  -5187804.34142  23158106.163    23158102.372
  21029549.666   -14046877.69143 -10924870.62942  21029551.168    21029549.042
  21432839.528   -16266865.82543 -12657650.01442  21432841.786    21432839.318
  21784365.105   -12821510.99443  -9939387.89742  21784366.743    21784364.637
 03 12 26  1 18  0.0000000  0  7G17G30G24G21G10G 6G 5
  20928981.202   -21718055.43243 -16909853.52742  20928982.563    20928980.674
  20287200.374   -19107005.20844 -14880754.37542  20287203.027    20287199.821
  23198716.233    -6730071.91843  -5226055.48042  23198718.140    23198716.573
  23143549.431    -6797995.98643  -5247400.42042  23143552.204    23143548.316
  21032291.130   -14032471.20443 -10913644.77342  21032292.564    21032290.591
  21422576.843   -16320796.42343 -12699673.82342  21422579.067    21422576.614
  21800741.602   -12735452.00643  -9872328.97142  21800743.202    21800741.295
 03 12 26  1 18 30.0000000  0  7G17G30G24G21G10G 6G 5
  20935878.888   -21681807.80744 -16881608.61442  20935880.249    20935878.333
  20291486.695   -19084480.57644 -14863202.71042  20291489.311    20291486.153
  23214375.675    -6647781.31943  -5161932.92842  23214377.440    23214375.811
  23129034.820    -6874270.39243  -5306834.99442  23129037.627    23129033.763
  21035152.465   -14017434.28543 -10901927.66942  21035153.903    21035152.136
  21412342.453   -16374577.94643 -12741581.47042  21412344.698    21412342.355
  21817181.635   -12649059.01143  -9805009.78342  21817183.302    21817181.501
 03 12 26  1 19  0.0000000  0  7G17G30G24G21G10G 6G 5
  20942828.106   -21645289.11443 -16853152.48042  20942829.523    20942827.594
  20295884.506   -19061369.98044 -14845194.44942  20295887.133    20295883.960
  23230041.751    -6565453.54843  -5097781.40742  23230043.745    23230042.172
  23114560.500    -6950333.15143  -5366104.64342  23114563.233    23114559.525
  21038134.381   -14001764.07143 -10889717.09442  21038135.776    21038134.178
  21402137.404   -16428205.47143 -12783369.11642  21402139.602    21402137.403
  21833685.654   -12562330.32143  -9737429.00942  21833687.268    21833685.529
 03 12 26  1 19 30.0000000  0  7G17G30G24G21G10G 6G 5
  20949827.843   -21608505.02744 -16824489.54542  20949829.281    20949827.351
  20300392.858   -19037678.85144 -14826733.83242  20300395.465    20300392.162
  23245714.263    -6483094.37743  -5033605.42842  23245716.013    23245714.628
  23100125.654    -7026188.44243  -5425212.63642  23100128.286    23100124.560
  21041235.836   -13985465.70743 -10877017.05142  21041237.211    21041235.695
  21391961.143   -16481682.39743 -12825039.41442  21391963.272    21391961.029
  21850252.127   -12475273.12043  -9669592.24842  21850253.811    21850252.041
 03 12 26  1 20  0.0000000  0  7G17G30G24G21G10G 6G 5
  20956878.903   -21571451.40144 -16795616.57342  20956880.307    20956878.436
  20305012.717   -19013401.49944 -14807816.41742  20305015.359    20305011.938
  23261393.323    -6400699.62043  -4969401.69642  23261395.106    23261393.851
  23085731.640    -7101829.86343  -5484153.97742  23085734.016    23085730.250
  21044457.804   -13968533.93343 -10863823.44242  21044459.204    21044457.744
  21381814.878   -16535001.41643 -12866586.66842  21381817.042    21381814.656
  21866881.831   -12387883.51643  -9601496.47742  21866883.576    21866881.723
 03 12 26  1 20 30.0000000  0  7G17G30G24G21G10G 6G 5
  20963979.657   -21534136.54744 -16766540.04742  20963981.035    20963979.216
  20309742.529   -18988546.03844 -14788448.52042  20309745.224    20309741.755
  23277077.823    -6318277.34543  -4905176.53442  23277079.501    23277078.455
  23071376.794    -7177264.05043  -5542933.82642  23071379.147    23071375.572
  21047798.838   -13950976.68943 -10850142.45642  21047800.267    21047798.721
  21371697.499   -16588168.51744 -12908015.54442  21371699.693    21371697.221
  21883573.019   -12300171.41543  -9533149.40942  21883574.741    21883572.766
 03 12 26  1 21  0.0000000  0  7G17G30G24G21G10G 6G 5
  20971131.000   -21496555.88744 -16737256.39942  20971132.342    20971130.548
  20314583.487   -18963106.81544 -14768625.74842  20314586.105    20314582.724
  23292768.604    -6235822.84943  -4840926.27242  23292770.174    23292769.139
  23057062.708    -7252484.46043  -5601547.11742  23057065.003    23057061.680
  21051259.869   -13932788.52643 -10835969.83942  21051261.336    21051259.773
  21361610.430   -16641176.21743 -12949320.21142  21361612.676    21361610.141
  21900326.180   -12212132.68443  -9464547.81242  21900328.014    21900325.971
 03 12 26  1 21 30.0000000  0  7G17G30G24G21G10G 6G 5
  20978331.842   -21458715.22844 -16707770.15542  20978333.198    20978331.319
  20319534.418   -18937088.96744 -14748352.08842  20319537.051    20319533.827
  23308464.358    -6153341.93343  -4776655.40342  23308466.028    23308464.746
  23042788.587    -7327495.03543  -5659996.88942  23042790.718    23042787.683
  21054840.011   -13913974.47943 -10821309.52642  21054841.463    21054839.912
  21351553.077   -16694027.68643 -12990503.14642  21351555.347    21351552.767
  21917140.218   -12123774.41443  -9395697.23442  21917142.070    21917139.976
 03 12 26  1 22  0.0000000  0  7G17G30G24G21G10G 6G 5
  20985582.738   -21420611.18644 -16678078.68042  20985584.114    20985582.191
  20324596.337   -18910488.35844 -14727624.33142  20324598.911    20324595.842
  23324165.731    -6070830.76643  -4712360.95342  23324167.573    23324166.013
  23028555.337    -7402290.71543  -5718279.20742  23028557.375    23028554.492
  21058540.029   -13894530.67843 -10806158.48442  21058541.459    21058539.827
  21341526.583   -16746716.79543 -13031559.56842  21341528.849    21341526.342
  21934015.595   -12035093.80043  -9326595.47142  21934017.417    21934015.319
 03 12 26  1 22 30.0000000  0  7G17G30G24G21G10G 6G 5
  20992882.879   -21382248.70244 -16648185.82042  20992884.270    20992882.375
  20329768.291   -18883309.26144 -14706445.81042  20329770.899    20329767.892
  23339871.796    -5988294.16843  -4648046.71242  23339873.669    23339872.142
  23014362.458    -7476874.38043  -5776396.33142  23014364.471    23014361.584
  21062359.035   -13874461.29543 -10790519.98442  21062360.510    21062358.769
  21331530.633   -16799245.90143 -13072491.31042  21331532.810    21331530.411
  21950950.976   -11946097.03343  -9257247.36742  21950952.789    21950950.830
 03 12 26  1 23  0.0000000  0  7G17G30G24G21G10G 6G 5
  21000232.252   -21343628.06744 -16618091.80742  21000233.614    21000231.685
  20335050.408   -18855551.52044 -14684816.39042  20335053.042    20335049.972
  23355582.829    -5905732.31043  -4583712.78342  23355584.562    23355583.135
  23000210.228    -7551244.94043  -5834347.39742  23000212.145    23000209.265
  21066297.132   -13853766.52743 -10774394.16842  21066298.617    21066296.753
  21321565.567   -16851612.68743 -13113296.56542  21321567.737    21321565.415
  21967946.283   -11856785.44443  -9187653.94242  21967948.030    21967946.216
 03 12 26  1 23 30.0000000  0  7G17G30G24G21G10G 6G 5
  21007629.882   -21304753.04444 -16587799.56342  21007631.339    21007629.322
  20340442.014   -18827218.13644 -14662738.42442  20340444.676    20340441.536
  23371297.902    -5823148.80143  -4519361.98442  23371299.599    23371298.170
  22986098.271    -7625403.67043  -5892133.39542  22986100.147    22986097.343
  21070353.732   -13832449.14743 -10757783.19942  21070355.230    21070353.326
  21311631.252   -16903818.02944 -13153976.02142  21311633.423    21311631.112
  21985000.619   -11767163.79443  -9117818.90742  21985002.331    21985000.643
 03 12 26  1 24  0.0000000  0  7G17G30G24G21G10G 6G 5
  21015076.037   -21265623.34444 -16557308.87342  21015077.509    21015075.441
  20345943.369   -18798308.33044 -14640211.30042  20345946.000    20345942.778
  23387017.382    -5740543.55143  -4454994.22342  23387018.971    23387017.376
  22972026.969    -7699349.07243  -5949753.14042  22972028.759    22972026.011
  21074528.876   -13810508.48243 -10740686.55442  21074530.425    21074528.553
  21301728.107   -16955859.28143 -13194527.61942  21301730.278    21301727.977
  22002113.977   -11677232.74643  -9047742.78842  22002115.593    22002113.966
 03 12 26  1 24 30.0000000  0  7G17G30G24G21G10G 6G 5
  21022570.640   -21226238.77744 -16526619.58542  21022572.167    21022570.099
  20351554.529   -18768821.50544 -14617234.54442  20351557.151    20351553.869
  23402740.939    -5657916.01343  -4390609.11042  23402742.515    23402740.861
  22957996.600    -7773079.14843  -6007205.12742  22957998.462    22957995.623
  21078822.721   -13787944.07143 -10723103.87842  21078824.256    21078822.472
  21291856.666   -17007733.65443 -13234949.17642  21291858.872    21291856.620
  22019285.956   -11586993.19043  -8977426.27042  22019287.602    22019286.002
 03 12 26  1 25  0.0000000  0  7G17G30G24G21G10G 6G 5
  21030113.678   -21186599.65544 -16495731.93942  21030115.202    21030113.217
  20357275.617   -18738757.15444 -14593807.77242  20357278.222    20357274.908
  23418468.536    -5575265.96943  -4326206.43342  23418470.260    23418468.740
  22944007.453    -7846592.16243  -6064487.94342  22944009.293    22944006.608
  21083235.316   -13764755.41943 -10705034.77942  21083236.856    21083235.133
  21282017.524   -17059438.36943 -13275238.54542  21282019.728    21282017.511
  22036516.606   -11496446.13143  -8906870.14142  22036518.166    22036516.599
 03 12 26  1 25 30.0000000  0  7G17G30G24G21G10G 6G 5
  21037703.839   -21146712.89044 -16464651.32842  21037705.382    21037703.469
  20363105.319   -18708121.77644 -14569936.04442  20363107.963    20363104.663
  23434199.157    -5492600.43043  -4261791.70242  23434200.775    23434199.434
  22930058.631    -7919893.43243  -6121605.77642  22930060.378    22930057.860
  21087765.493   -13740949.42543 -10686484.63342  21087766.989    21087765.191
  21272209.887   -17110977.75543 -13315399.07742  21272212.039    21272209.858
  22053804.021   -11405600.04243  -8836081.00142  22053805.601    22053804.092
 03 12 26  1 26  0.0000000  0  7G17G30G24G21G10G 6G 5
  21045341.855   -21106574.89444 -16433374.95442  21045343.355    21045341.528
  20369044.576   -18676911.03844 -14545615.98342  20369047.177    20369043.887
  23449933.734    -5409915.28443  -4197361.69842  23449935.060    23449933.889
  22916150.967    -7992977.47443  -6178554.34142  22916152.767    22916150.360
  21092413.978   -13716521.71143 -10667450.03742  21092415.458    21092413.590
  21262434.904   -17162345.34743 -13355425.74142  21262437.058    21262434.875
  22071149.062   -11314451.53643  -8765056.21042  22071150.543    22071149.131
 03 12 26  1 26 30.0000000  0  7G17G30G24G21G10G 6G 5
  21053026.986   -21066189.33144 -16401905.67142  21053028.508    21053026.736
  20375092.504   -18645128.58844 -14520850.43142  20375095.161    20375091.907
  23465671.053    -5327214.37643  -4132919.40842  23465672.413    23465671.232
  22902284.580    -8065846.24043  -6235335.12642  22902286.216    22902283.872
  21097180.037   -13691475.80443 -10647933.72542  21097181.593    21097179.707
  21252692.497   -17213542.34244 -13395319.47342  21252694.571    21252692.328
  22088550.477   -11223006.14343  -8693800.07042  22088551.961    22088550.673
 03 12 26  1 27  0.0000000  0  7G17G30G24G21G10G 6G 5
  21060758.899   -21025557.78644 -16370244.71442  21060760.434    21060758.707
  20381249.118   -18612775.16644 -14495639.96542  20381251.746    20381248.528
  23481411.287    -5244498.88843  -4068465.77242  23481412.574    23481411.299
  22888458.918    -8138499.52643  -6291948.04342  22888460.517    22888458.271
  21102063.558   -13665812.88643 -10627936.62442  21102065.094    21102063.192
  21242982.747   -17264567.26544 -13435079.12142  21242984.842    21242982.554
  22106007.920   -11131265.70443  -8622314.02342  22106009.432    22106008.381
 03 12 26  1 27 30.0000000  0  7G17G30G24G21G10G 6G 5
  21068536.862   -20984683.73144 -16338394.78642  21068538.402    21068536.776
  20387513.714   -18579854.10044 -14469987.18142  20387516.339    20387513.180
  23497153.786    -5161771.98243  -4004003.23542  23497154.980    23497153.499
  22874674.111    -8210938.85943  -6348394.23142  22874675.606    22874673.363
  21107063.791   -13639536.07643 -10607461.17142  21107065.340    21107063.501
  21233305.567   -17315421.26844 -13474705.58842  21233307.641    21233305.301
  22123520.667   -11039235.61643  -8550602.28542  22123522.017    22123521.210
 03 12 26  1 28  0.0000000  0  7G17G30G24G21G10G 6G 5
  21076362.019   -20943562.04044 -16306351.89742  21076363.510    21076361.939
  20393887.509   -18546359.69344 -14443887.63942  20393890.136    20393886.926
  23512899.228    -5079028.14043  -3939527.50242  23512900.608    23512898.986
  22860931.217    -8283157.50343  -6404668.44842  22860932.801    22860930.577
  21112182.029   -13612639.84343 -10586503.04642  21112183.515    21112181.657
  21223662.385   -17366096.13643 -13514192.46542  21223664.505    21223662.143
  22141089.422   -10946911.29343  -8478661.27042  22141090.695    22141089.976
 03 12 26  1 28 30.0000000  0  7G17G30G24G21G10G 6G 5
  21084232.974   -20902200.15044 -16274121.84642  21084234.423    21084232.827
  20400369.084   -18512299.01644 -14417346.84842  20400371.722    20400368.493
  23528646.402    -4996274.66443  -3875044.24842  23528647.991    23528646.360
  22847229.272    -8355161.32643  -6460775.26742  22847230.885    22847228.685
  21117416.682   -13585131.58443 -10565068.02042  21117418.172    21117416.227
  21214052.463   -17416596.65344 -13553543.48142  21214054.604    21214052.152
  22158712.491   -10854301.27343  -8406497.63442  22158713.808    22158713.138
 03 12 26  1 29  0.0000000  0  7G17G30G24G21G10G 6G 5
  21092149.769   -20860597.42344 -16241704.12342  21092151.162    21092149.553
  20406958.489   -18477671.20044 -14390364.12942  20406961.179    20406957.997
  23544395.733    -4913510.96243  -3810553.04442  23544397.349    23544396.103
  22833568.595    -8426948.21243  -6516713.05842  22833570.300    22833568.006
  21122768.031   -13557010.38943 -10543155.37842  21122769.522    21122767.415
  21204476.310   -17466919.53944 -13592756.08342  21204478.500    21204476.015
  22176389.908   -10761406.16443  -8334111.85142  22176391.244    22176390.561
 03 12 26  1 29 30.0000000  0  7G17G30G24G21G10G 6G 5
  21100111.893   -20818755.66044 -16209100.13142  21100113.346    21100111.793
  20413655.546   -18442477.77544 -14362940.67442  20413658.205    20413655.105
  23560146.721    -4830738.44543  -3746054.94942  23560148.431    23560147.383
  22819949.283    -8498517.80943  -6572481.52042  22819951.055    22819948.796
  21128235.628   -13528277.81943 -10520766.34242  21128237.183    21128235.017
  21194934.166   -17517063.82344 -13631829.51942  21194936.375    21194933.849
  22194121.064   -10668228.81043  -8261506.13342  22194122.519    22194121.699
 03 12 26  1 30  0.0000000  0  7G17G30G24G21G10G 6G 5
  21108119.124   -20776677.17644 -16176311.68942  21108120.592    21108119.080
  20420459.859   -18406720.82244 -14335078.10442  20420462.457    20420459.372
  23575899.075    -4747958.87143  -3681551.39042  23575900.886    23575899.926
  22806371.253    -8569870.82743  -6628081.22542  22806373.051    22806370.725
  21133819.221   -13498935.97744 -10497902.54842  21133820.774    21133818.546
  21185426.102   -17567029.08944 -13670763.46142  21185428.288    21185425.743
  22211905.312   -10574772.71243  -8188683.21542  22211906.841    22211905.805
 03 12 26  1 30 30.0000000  0  7G17G30G24G21G10G 6G 5
  21116171.373   -20734362.43044 -16143339.13742  21116172.854    21116171.282
  20427371.303   -18370400.37844 -14306776.45842  20427373.909    20427370.848
  23591652.986    -4665172.67543  -3617042.65842  23591654.775    23591653.604
  22792834.438    -8641006.10843  -6683511.25842  22792836.368    22792834.139
  21139518.611   -13468985.45643 -10474564.45642  21139520.163    21139517.881
  21175952.489   -17616813.07544 -13709556.14742  21175954.664    21175952.166
  22229742.303   -10481039.44343  -8115644.31742  22229743.896    22229742.604
 03 12 26  1 31  0.0000000  0  7G17G30G24G21G10G 6G 5
  21124268.258   -20691812.50644 -16110183.33142  21124269.771    21124268.231
  20434389.925   -18333517.26744 -14278036.36342  20434392.496    20434389.427
  23607407.643    -4582380.71043  -3552529.40342  23607409.730    23607408.040
  22779339.414    -8711922.85843  -6738771.01842  22779341.335    22779339.090
  21145333.524   -13438426.98643 -10450752.64242  21145335.106    21145332.870
  21166513.684   -17666414.12944 -13748206.29642  21166515.849    21166513.343
  22247631.531   -10387031.24543  -8042391.19042  22247633.205    22247631.620
 03 12 26  1 31 30.0000000  0  7G17G30G24G21G10G 6G 5
  21132409.745   -20649028.78244 -16076845.35042  21132411.236    21132409.712
  20441515.382   -18296072.79444 -14248858.84642  20441517.900    20441514.879
  23623163.542    -4499584.05643  -3488012.52842  23623165.496    23623163.456
  22765886.030    -8782620.76643  -6793860.25042  22765887.904    22765885.670
  21151264.011   -13407261.59643 -10426467.90842  21151265.564    21151263.433
  21157109.943   -17715830.66244 -13786712.65442  21157112.127    21157109.624
  22265572.637   -10292750.34343  -7968925.56842  22265574.416    22265572.519
 03 12 26  1 32  0.0000000  0  7G17G30G24G21G10G 6G 5
  21140595.372   -20606013.15344 -16043326.66342  21140596.849    21140595.328
  20448747.305   -18258068.49844 -14219245.10242  20448749.794    20448746.895
  23638919.706    -4416784.29943  -3423493.21242  23638921.815    23638919.557
  22752474.151    -8853100.21143  -6848779.23142  22752475.975    22752473.795
  21157309.573   -13375491.62743 -10401712.08142  21157311.022    21157309.077
  21147741.516   -17765061.74844 -13825074.50542  21147743.682    21147741.217
  22283565.132   -10198199.61443  -7895249.68642  22283566.913    22283564.768
 03 12 26  1 32 30.0000000  0  7G17G30G24G21G10G 6G 5
  21148824.536   -20562768.41743 -16009629.45942  21148825.982    21148824.489
  20456085.224   -18219507.16044 -14189197.30242  20456087.669    20456084.925
  23654676.344    -4333983.62843  -3358973.19642  23654678.164    23654676.151
  22739103.697    -8923362.09443  -6903528.69942  22739105.496    22739103.307
  21163469.696   -13343119.54143 -10376487.06642  21163471.151    21163469.305
  21138408.400   -17814107.51644 -13863291.95842  21138410.530    21138408.133
  22301608.173   -10103383.26943  -7821366.82942  22301609.928    22301607.610
 03 12 26  1 33  0.0000000  0  7G17G30G24G21G10G 6G 5
  21157097.968   -20519290.98043 -15975750.92842  21157099.373    21157097.941
  20463529.883   -18180385.13444 -14158712.59942  20463532.340    20463529.640
  23670433.316    -4251178.29443  -3294449.52442  23670435.414    23670433.760
  22725775.605    -8993401.51843  -6958104.83642  22725777.445    22725775.205
  21169745.141   -13310141.77543 -10350790.09342  21169746.598    21169744.783
  21129111.671   -17862961.81544 -13901360.21442  21129113.805    21129111.491
  22319702.096   -10008298.80843  -7747275.05042  22319703.904    22319701.507
 03 12 26  1 33 30.0000000  0  7G17G30G24G21G10G 6G 5
  21165414.962   -20475585.05143 -15941694.34842  21165416.290    21165414.938
  20471080.650   -18140706.23544 -14127793.97042  20471083.087    20471080.311
  23686190.510    -4168372.24843  -3229925.30542  23686192.710    23686191.375
  22712489.487    -9063221.00043  -7012509.57442  22712491.395    22712488.840
  21176135.049   -13276562.23543 -10324624.20242  21176136.523    21176134.696
  21119851.239   -17911625.80444 -13939280.18442  21119853.330    21119851.040
  22337846.125    -9912951.50943  -7672978.46742  22337847.876    22337845.366
 03 12 26  1 34  0.0000000  0  7G17G30G24G21G10G 6G 5
  21173773.934   -20431658.28844 -15907465.68742  21173775.229    21173773.928
  20478735.861   -18100478.35844 -14096447.56542  20478738.346    20478735.450
  23701947.308    -4085572.95243  -3165406.35842  23701948.908    23701947.604
  22699244.089    -9132826.48243  -7066747.54942  22699246.037    22699243.300
  21182637.876   -13242389.42343 -10297996.01342  21182639.338    21182637.465
  21110626.017   -17960104.70844 -13977055.92642  21110628.085    21110625.811
  22356038.382    -9817350.55543  -7598484.23142  22356040.152    22356037.557
 03 12 26  1 34 30.0000000  0  7G17G30G24G21G10G 6G 5
  21182176.682   -20387501.70344 -15873057.94242  21182177.938    21182176.594
  20486497.303   -18059692.29844 -14064666.21842  20486499.807    20486496.778
  23717703.936    -4002770.97743  -3100885.31342  23717705.668    23717704.363
  22686041.368    -9202207.31843  -7120810.48242  22686043.509    22686040.555
  21189255.421   -13207613.87343 -10270898.15742  21189256.857    21189254.930
  21101438.308   -18008386.39744 -14014677.99842  21101440.375    21101438.151
  22374280.432    -9721487.89943  -7523786.07342  22374282.228    22374279.589
 03 12 26  1 35  0.0000000  0  7G17G30G24G21G10G 6G 5
  21190621.737   -20343122.62944 -15838476.82542  21190623.022    21190621.641
  20494363.506   -18018355.24344 -14032455.51942  20494366.096    20494362.972
  23733459.898    -3919973.25243  -3036367.59442  23733461.501    23733460.205
  22672880.326    -9271369.12743  -7174702.74342  22672882.611    22672879.503
  21195986.308   -13172242.87943 -10243336.32442  21195987.689    21195985.764
  21092287.222   -18056475.47044 -14052149.97642  21092289.296    21092287.141
  22392570.764    -9625371.61843  -7448890.28442  22392572.569    22392569.866
 03 12 26  1 35 30.0000000  0  7G17G30G24G21G10G 6G 5
  21199109.264   -20298520.42744 -15803721.84642  21199110.577    21199109.154
  20502334.679   -17976466.70444 -13999815.09042  20502337.302    20502334.079
  23749215.100    -3837178.95843  -2971852.51742  23749216.733    23749215.397
  22659761.355    -9340309.95143  -7228422.81942  22659763.651    22659760.418
  21202830.488   -13136276.31143 -10215310.40242  21202831.898    21202829.948
  21083173.474   -18104368.69944 -14089469.34742  21083175.531    21083173.404
  22410909.171    -9529002.72443  -7373797.66242  22410911.002    22410908.269
 03 12 26  1 36  0.0000000  0  7G17G30G24G21G10G 6G 5
  21207638.782   -20253697.49943 -15768794.87642  21207640.084    21207638.645
  20510410.317   -17934029.26444 -13966746.94842  20510412.969    20510409.676
  23764969.341    -3754390.07543  -2907341.67242  23764970.896    23764969.432
  22646684.167    -9409030.37243  -7281971.14542  22646686.558    22646683.190
  21209787.628   -13099716.74243 -10186822.40142  21209788.992    21209786.986
  21074097.015   -18152065.79044 -14126635.88442  21074099.116    21074096.952
  22429295.010    -9432384.87443  -7298511.04242  22429296.779    22429294.124
 03 12 26  1 36 30.0000000  0  7G17G30G24G21G10G 6G 5
  21216210.284   -20208653.63443 -15733695.74542  21216211.598    21216210.167
  20518590.492   -17891042.36744 -13933250.66042  20518593.174    20518589.793
  23780722.746    -3671606.10943  -2842834.67342  23780724.240    23780722.658
  22633649.303    -9477528.58243  -7335346.32442  22633651.703    22633648.386
  21216857.704   -13062563.51543 -10157871.81842  21216859.085    21216857.034
  21065058.604   -18199563.35244 -14163646.94842  21065060.693    21065058.476
  22447727.897    -9335518.66243  -7223030.89442  22447729.735    22447727.223
 03 12 26  1 37  0.0000000  0  7G17G30G24G21G10G 6G 5
  21224822.964   -20163393.43143 -15698428.04742  21224824.230    21224822.864
  20526874.265   -17847510.98044 -13899330.09142  20526876.971    20526873.484
  23796474.238    -3588831.37943  -2778334.87542  23796475.767    23796474.266
  22620656.245    -9545807.70043  -7388550.78342  22620658.573    22620655.262
  21224039.716   -13024821.91743 -10128462.76042  21224041.141    21224039.014
  21056057.666   -18246863.47044 -14200504.15142  21056059.816    21056057.540
  22466206.988    -9238410.23943  -7147362.00442  22466208.733    22466206.389
 03 12 26  1 37 30.0000000  0  7G17G30G24G21G10G 6G 5
  21233477.599   -20117912.95843 -15662988.71242  21233478.816    21233477.461
  20535262.347   -17803431.18344 -13864982.19042  20535265.040    20535261.516
  23812224.589    -3506061.27743  -2713838.67042  23812226.391    23812224.970
  22607705.617    -9613861.98943  -7441580.04442  22607707.981    22607704.940
  21231334.387   -12986488.25244 -10098592.35342  21231335.855    21231333.695
  21047095.642   -18293959.38244 -14237202.23042  21047097.792    21047095.425
  22484732.657    -9141056.84443  -7071502.22642  22484734.351    22484732.152
 03 12 26  1 38  0.0000000  0  7G17G30G24G21G10G 6G 5
  21242172.503   -20072221.09343 -15627384.64742  21242173.697    21242172.260
  20543753.057   -17758811.88844 -13830213.89842  20543755.725    20543752.235
  23827973.008    -3423304.11143  -2649352.55942  23827974.437    23827973.339
  22594796.779    -9681698.79243  -7494439.84542  22594798.871    22594795.979
  21238740.054   -12947571.43644 -10068267.53942  21238741.531    21238739.354
  21038171.219   -18340857.25144 -14273746.00042  21038173.402    21038171.001
  22503303.093    -9043468.61643  -6995459.46142  22503304.626    22503302.589
 03 12 26  1 38 30.0000000  0  7G17G30G24G21G10G 6G 5
  21250907.868   -20026316.33643 -15591614.69342  21250909.088    21250907.565
  20552346.676   -17713651.68744 -13795024.12742  20552349.336    20552345.911
  23843719.104    -3340558.21343  -2584875.22042  23843720.388    23843719.535
  22581929.874    -9749315.30643  -7547127.99742  22581931.841    22581929.040
  21246256.815   -12908070.59743 -10037487.64842  21246258.336    21246256.133
  21029285.318   -18387552.73644 -14310132.05842  21029287.464    21029285.054
  22521918.246    -8945644.98643  -6919233.26542  22521919.739    22521917.767
 03 12 26  1 39  0.0000000  0  7G17G30G24G21G10G 6G 5
  21259684.825   -19980192.63844 -15555674.13442  21259686.091    21259684.602
  20561044.369   -17667944.80344 -13759408.36842  20561047.002    20561043.667
  23859463.490    -3257817.33343  -2520401.77942  23859465.265    23859464.923
  22569106.113    -9816703.78143  -7599638.46842  22569108.063    22569105.463
  21253885.809   -12867979.84543 -10006248.08442  21253887.311    21253885.150
  21020439.603   -18434036.97644 -14346353.51542  21020441.734    21020439.284
  22540578.932    -8847581.14743  -6842819.89842  22540580.493    22540578.725
 03 12 26  1 39 30.0000000  0  7G17G30G24G21G10G 6G 5
  21268501.657   -19933859.63343 -15519570.48142  21268502.929    21268501.525
  20569844.200   -17621701.34044 -13723374.49642  20569846.795    20569843.538
  23875205.802    -3175090.77243  -2455939.49142  23875207.504    23875207.390
  22556324.305    -9883872.47343  -7651977.66142  22556326.082    22556323.748
  21261625.123   -12827309.36243  -9974556.78342  21261626.608    21261624.460
  21011632.755   -18480316.99144 -14382415.83542  21011634.887    21011632.377
  22559283.404    -8749288.43043  -6766228.19042  22559284.777    22559283.334
 03 12 26  1 40  0.0000000  0  7G17G30G24G21G10G 6G 5
  21277357.307   -19887322.74143 -15483307.95542  21277358.582    21277357.162
  20578745.081   -17574926.50744 -13686926.56442  20578747.714    20578744.493
  23890944.777    -3092383.42443  -2391492.21942  23890945.959    23890945.900
  22543583.829    -9950825.27343  -7704148.63342  22543585.516    22543582.943
  21269473.726   -12786064.63543  -9942418.02342  21269475.208    21269473.044
  21002864.427   -18526395.02544 -14418320.77642  21002866.519    21002863.888
  22578030.169    -8650773.22243  -6689463.10942  22578031.456    22578030.363
 03 12 26  1 40 30.0000000  0  7G17G30G24G21G10G 6G 5
  21286253.765   -19840571.45143 -15446878.36042  21286254.990    21286253.568
  20587749.084   -17527610.08044 -13650056.61742  20587751.665    20587748.445
  23906681.640    -3009684.19043  -2327051.23642  23906682.904    23906682.953
  22530886.642   -10017549.70243  -7756141.65742  22530888.432    22530885.626
  21277433.607   -12744235.28743  -9909823.71342  21277435.087    21277432.848
  20994136.924   -18572257.77544 -14454057.95842  20994139.078    20994136.406
  22596821.173    -8552025.91743  -6612517.17942  22596822.445    22596821.512
 03 12 26  1 41  0.0000000  0  7G17G30G24G21G10G 6G 5
  21295189.259   -19793615.18343 -15410289.04442  21295190.434    21295189.019
  20596854.274   -17479761.93244 -13612772.33742  20596856.830    20596853.516
  23922415.620    -2927002.44043  -2262623.88342  23922416.777    23922416.819
  22518231.110   -10084054.27643  -7807963.36142  22518233.022    22518230.133
  21285502.796   -12701831.37243  -9876781.69542  21285504.328    21285501.978
  20985449.190   -18617912.04044 -14489632.68342  20985451.315    20985448.613
  22615654.362    -8453057.20343  -6535398.72342  22615655.698    22615654.745
 03 12 26  1 41 30.0000000  0  7G17G30G24G21G10G 6G 5
  21304163.919   -19746453.15043 -15373539.39642  21304165.080    21304163.614
  20606060.827   -17431381.37744 -13575073.20442  20606063.373    20606059.907
  23938146.639    -2844336.58443  -2198208.91342  23938147.497    23938147.531
  22505618.019   -10150336.46943  -7859611.78642  22505619.906    22505617.044
  21293681.440   -12658852.67543  -9843291.79242  21293682.965    21293680.531
  20976801.800   -18663354.06944 -14525042.02742  20976803.937    20976801.194
  22634529.603    -8353868.23343  -6458108.64342  22634530.930    22634529.915
 03 12 26  1 42  0.0000000  0  7G17G30G24G21G10G 6G 5
  21313177.307   -19699087.49143 -15336631.08142  21313178.442    21313176.920
  20615368.200   -17382471.17844 -13536961.36042  20615370.736    20615367.166
  23953874.138    -2761688.89643  -2133808.10342  23953875.000    23953874.971
  22493047.246   -10216396.77843  -7911087.31142  22493049.166    22493046.173
  21301968.857   -12615301.66143  -9809355.92842  21301970.431    21301967.976
  20968194.885   -18708583.48044 -14560285.69242  20968197.005    20968194.226
  22653446.190    -8254462.13843  -6380649.37042  22653447.555    22653446.453
 03 12 26  1 42 30.0000000  0  7G17G30G24G21G10G 6G 5
  21322230.356   -19651513.16043 -15299560.15542  21322231.581    21322229.909
  20624777.212   -17333026.42944 -13498432.98042  20624779.773    20624776.239
  23969598.375    -2679053.84543  -2069417.08742  23969600.079    23969600.085
  22480519.691   -10282229.10043  -7962385.18042  22480521.820    22480518.701
  21310366.070   -12571173.82843  -9774970.59142  21310367.621    21310365.228
  20959629.861   -18753592.29344 -14595357.46942  20959632.034    20959629.244
  22672404.751    -8154835.04143  -6303017.88442  22672406.246    22672405.015
 03 12 26  1 43  0.0000000  0  7G17G30G24G21G10G 6G 5
  21331321.491   -19603739.07743 -15262333.58342  21331322.710    21331320.974
  20634286.208   -17283056.31844 -13459495.23142  20634288.744    20634285.314
  23985319.228    -2596439.19643  -2005041.98642  23985321.300    23985321.254
  22468034.268   -10347840.40843  -8013510.83842  22468036.410    22468033.281
  21318871.175   -12526478.68743  -9740143.19242  21318872.743    21318870.447
  20951105.785   -18798386.60944 -14630262.10542  20951107.933    20951105.133
  22691403.491    -8054997.07243  -6225222.08842  22691405.064    22691403.721
 03 12 26  1 43 30.0000000  0  7G17G30G24G21G10G 6G 5
  21340449.967   -19555768.52243 -15224953.91742  21340451.249    21340449.497
  20643894.378   -17232564.58244 -13420151.01342  20643896.947    20643893.630
  24001036.586    -2513848.29343  -1940685.42442  24001038.021    24001037.765
  22455590.579   -10413232.75143  -8064465.88242  22455592.708    22455589.541
  21327483.566   -12481219.87743  -9704876.56842  21327485.106    21327482.918
  20942622.401   -18842967.03544 -14665000.07042  20942624.559    20942621.759
  22710441.509    -7954952.64543  -6147265.40642  22710443.158    22710441.641
 03 12 26  1 44  0.0000000  0  7G17G30G24G21G10G 6G 5
  21349616.805   -19507596.25943 -15187417.07342  21349618.153    21349616.391
  20653602.765   -17181546.57644 -13380396.72142  20653605.332    20653602.072
  24016749.711    -2431275.40143  -1876342.88642  24016751.349    24016750.926
  22443189.606   -10478399.24543  -8115244.93142  22443191.805    22443188.769
  21336204.227   -12435392.83043  -9669167.16542  21336205.641    21336203.517
  20934181.210   -18887325.56844 -14699565.13442  20934183.360    20934180.571
  22729519.298    -7854698.44543  -6069145.27242  22729521.024    22729519.407
 03 12 26  1 44 30.0000000  0  7G17G30G24G21G10G 6G 5
  21358822.233   -19459221.32243 -15149722.30842  21358823.603    21358821.799
  20663411.492   -17130001.57144 -13340231.77742  20663414.089    20663410.764
  24032459.196    -2348719.23343  -1812013.36542  24032461.442    24032460.857
  22430832.099   -10543337.83343  -8165846.39242  22430834.224    22430831.285
  21345033.022   -12388997.04543  -9633014.58942  21345034.439    21345032.332
  20925783.000   -18931458.42044 -14733954.34142  20925785.124    20925782.328
  22748637.034    -7754234.16943  -5990861.43842  22748638.824    22748637.066
 03 12 26  1 45  0.0000000  0  7G17G30G24G21G10G 6G 5
  21368063.924   -19410656.39343 -15111879.49642  21368065.255    21368063.415
  20673317.975   -17077942.78344 -13299666.48742  20673320.593    20673317.198
  24048164.061    -2266191.82743  -1747706.24542  24048165.945    24048165.077
  22418516.056   -10608059.44143  -8216278.78342  22418518.105    22418515.144
  21353967.603   -12342045.89243  -9596429.25442  21353968.990    21353966.851
  20917425.883   -18975375.35244 -14768175.30042  20917428.019    20917425.243
  22767791.970    -7653574.13943  -5912425.06842  22767793.797    22767791.920
 03 12 26  1 45 30.0000000  0  7G17G30G24G21G10G 6G 5
  21377343.167   -19361893.70243 -15073882.58042  21377344.537    21377342.713
  20683323.580   -17025362.97644 -13258695.20642  20683326.223    20683322.774
  24063864.484    -2183685.38643  -1683415.48242  24063866.425    24063865.475
  22406242.997   -10672555.08443  -8266535.09142  22406244.955    22406242.024
  21363009.114   -12294532.30043  -9559405.65942  21363010.561    21363008.418
  20909111.873   -19019065.84544 -14802219.81142  20909114.026    20909111.243
  22786985.396    -7552711.88743  -5833831.12342  22786987.178    22786985.260
 03 12 26  1 46  0.0000000  0  7G17G30G24G21G10G 6G 5
  21386660.117   -19312932.68943 -15035731.12642  21386661.546    21386659.676
  20693428.365   -16972261.92844 -13217317.76142  20693430.973    20693427.580
  24079560.735    -2101198.32443  -1619139.82842  24079562.952    24079561.982
  22394013.179   -10736822.57243  -8316613.61042  22394015.186    22394012.329
  21372157.690   -12246456.07444  -9521943.64542  21372159.200    21372157.053
  20900841.712   -19062526.34244 -14836085.11242  20900843.826    20900841.035
  22806217.157    -7451648.09043  -5755080.12342  22806218.886    22806216.966
 03 12 26  1 46 30.0000000  0  7G17G30G24G21G10G 6G 5
  21396013.396   -19263781.46543 -14997431.45642  21396014.777    21396012.783
  20703630.621   -16918648.39544 -13175540.97842  20703633.254    20703629.893
  24095251.879    -2018738.64943  -1554885.51042  24095254.270    24095253.308
  22381825.684   -10800868.70343  -8366519.65242  22381827.673    22381824.723
  21381411.673   -12197826.37143  -9484050.35242  21381413.188    21381411.044
  20892614.200   -19105762.37444 -14869775.50142  20892616.344    20892613.504
  22825485.629    -7350391.83643  -5676179.14942  22825487.287    22825485.232
 03 12 26  1 47  0.0000000  0  7G17G30G24G21G10G 6G 5
  21405403.296   -19214437.22043 -14958981.37842  21405404.702    21405402.640
  20713930.854   -16864520.13044 -13133363.10342  20713933.495    20713930.135
  24110938.819    -1936303.13243  -1490650.02642  24110941.046    24110940.146
  22369680.986   -10864689.90643  -8416250.41542  22369682.963    22369679.914
  21390771.301   -12148641.19243  -9445724.22442  21390772.858    21390770.685
  20884430.509   -19148768.32844 -14903286.61042  20884432.663    20884429.693
  22844790.953    -7248942.29743  -5597127.58242  22844792.526    22844790.277
 03 12 26  1 47 30.0000000  0  7G17G30G24G21G10G 6G 5
  21414828.313   -19164908.46343 -14920387.52742  21414829.762    21414827.621
  20724327.323   -16809886.23044 -13090791.23542  20724329.922    20724326.627
  24126620.067    -1853899.53543  -1426439.40042  24126621.973    24126620.895
  22357577.804   -10928292.16843  -8465810.59142  22357579.839    22357576.690
  21400234.920   -12098909.61943  -9406972.32542  21400236.464    21400234.327
  20876289.445   -19191549.91544 -14936622.88442  20876291.685    20876288.565
  22864131.052    -7147309.16843  -5517932.94342  22864132.689    22864130.264
 03 12 26  1 48  0.0000000  0  8G17G30G24G21G10G 6G18G 5
  21424287.866   -19115198.51744 -14881652.48642  21424289.296    21424287.036
  20734819.294   -16754750.69444 -13047828.48042  20734821.848    20734818.570
  24142294.251    -1771530.79243  -1362255.95442  24142296.435    24142294.852
  22345515.870   -10991678.02843  -8515202.13542  22345517.960    22345514.793
  21409801.731   -12048635.55243  -9367797.71342  21409803.246    21409801.171
  20868191.020   -19234107.70544 -14969784.76942  20868193.242    20868190.043
  24773204.136    -1893639.52653  -1214933.49152  24773206.195    24773198.451
  22883505.164    -7045496.83243  -5438598.65942  22883506.887    22883504.456
 03 12 26  1 48 30.0000000  0  8G17G30G24G21G10G 6G18G 5
  21433784.717   -19065291.97444 -14842764.25542  21433786.209    21433783.890
  20745409.531   -16699098.55644 -13004463.17842  20745412.094    20745408.854
  24157964.844    -1689181.02643  -1298087.26442  24157967.139    24157965.423
  22333498.190   -11054830.95243  -8564412.16142  22333500.349    22333497.213
  21419474.466   -11997804.34743  -9328188.95942  21419475.979    21419473.968
  20860138.648   -19276423.31144 -15002757.95042  20860140.848    20860137.652
  24752070.545
  22902916.147    -6943491.19743  -5359113.75042  22902917.856    22902915.519
 03 12 26  1 49  0.0000000  0  8G17G30G24G21G10G 6G18G 5
  21443317.670   -19015195.30644 -14803727.87342  21443319.235    21443316.891
  20756096.718   -16642937.04444 -12960700.96142  20756099.253    20756096.093
  24173630.434    -1606856.29543  -1233938.11842  24173632.844    24173631.147
  22321523.965   -11117755.71243  -8613444.40142  22321526.071    22321522.970
  21429251.856   -11946423.46343  -9288151.88542  21429253.354    21429251.321
  20852131.559   -19318500.70444 -15035545.50542  20852133.756    20852130.620
  24730941.866
  22922362.612    -6841300.29143  -5279484.49042  22922364.238    22922361.919
 03 12 26  1 49 30.0000000  0  8G17G30G24G21G10G 6G18G 5
  21452885.437   -18964916.65544 -14764549.69142  21452886.957    21452884.589
  20766879.193   -16586275.17544 -12916548.85342  20766881.703    20766878.506
  24189290.553    -1524564.37443  -1169814.51642  24189292.316    24189290.881
  22309591.738   -11180459.54443  -8662304.48542  22309593.869    22309590.834
  21439131.984   -11894502.17043  -9247693.71342  21439133.535    21439131.507
  20844168.696   -19360345.28844 -15068151.65442  20844170.893    20844167.905
  24709817.485    -1474489.46142                                  24709812.831
  22941842.239    -6738933.87543  -5199718.47442  22941844.030    22941841.615
 03 12 26  1 50  0.0000000  0  8G17G30G24G21G10G 6G18G 5
  21462488.238   -18914453.56243 -14725227.78642  21462489.763    21462487.319
  20777757.222   -16529110.86244 -12872005.23342  20777759.754    20777756.476
  24204944.617    -1442302.20143  -1105714.14442  24204946.073    24204945.273
  22297702.541   -11242938.31343  -8710989.19642  22297704.509    22297701.499
  21449115.485   -11842038.27143  -9206812.72942  21449117.014    21449114.863
  20836251.184   -19401951.49544 -15100572.05342  20836253.392    20836250.555
  24688698.746    -1560966.82042                                  24688694.531
  22961355.678    -6636390.43843  -5119814.52542  22961357.503    22961354.925
 03 12 26  1 50 30.0000000  0  8G17G30G24G21G10G 6G18G 5
  21472126.165   -18863805.41443 -14685761.68042  21472127.710    21472125.344
  20788730.857   -16471444.27544 -12827070.23542  20788733.361    20788729.994
  24220592.801    -1360068.58543  -1041635.99942  24220594.584    24220593.948
  22285856.428   -11305189.89543  -8759496.87842  22285858.460    22285855.419
  21459202.174   -11789032.15743  -9165509.24242  21459203.689    21459201.494
  20828379.814   -19443315.99344 -15132804.10342  20828381.961    20828379.193
  24667586.455
  22980902.634    -6533670.97443  -5039773.41142  22980904.484    22980901.690
 03 12 26  1 51  0.0000000  0  8G17G30G24G21G10G 6G18G 5
  21481798.131   -18812979.03243 -14646156.69842  21481799.572    21481797.277
  20799798.429   -16413283.19944 -12781749.91342  20799801.038    20799797.612
  24236234.519    -1277869.74743   -977584.92542  24236236.540    24236235.924
  22274052.369   -11367220.12143  -8807832.07942  22274054.482    22274051.335
  21469390.607   -11735491.47543  -9123789.21842  21469392.063    21469389.903
  20820553.586   -19484443.05844 -15164851.14642  20820555.722    20820552.995
  24646481.243
  23000481.467    -6430783.45543  -4959601.35042  23000483.405    23000480.541
 03 12 26  1 51 30.0000000  0  8G17G30G24G21G10G 6G18G 5
  21491505.347   -18761967.65343 -14606407.56542  21491506.716    21491504.398
  20810961.430   -16354621.29044 -12736039.34142  20810963.984    20810960.535
  24251871.110    -1195698.65943   -913555.47442  24251873.053    24251872.443
  22262292.138   -11429020.42943  -8855988.11542  22262294.231    22262291.099
  21479681.902   -11681410.31043  -9081648.02942  21479683.345    21479681.180
  20812774.368   -19525322.77344 -15196705.44642  20812776.491    20812773.842
  24625380.146    -1820243.92752                                  24625376.719
  23020093.295    -6327722.57443  -4879294.20242  23020095.286    23020092.513
 03 12 26  1 52  0.0000000  0  8G17G30G24G21G10G 6G18G 5
  21501245.408   -18710783.18543 -14566523.55142  21501246.796    21501244.328
  20822217.201   -16295471.54044 -12689948.62642  20822219.812    20822216.335
  24267500.533    -1113566.56043   -849556.41342  24267502.024    24267501.613
  22250573.548   -11490601.80843  -8903973.58142  22250575.621    22250572.464
  21490073.548   -11626801.80543  -9039095.92542  21490075.033    21490072.825
  20805040.439   -19565964.31244 -15228374.15042  20805042.574    20805039.999
  24604286.927    -2781299.99153  -1906616.19142  24604288.856    24604284.267
  23039735.508    -6224501.70043  -4798862.38442  23039737.496    23039734.970
 03 12 26  1 52 30.0000000  0  8G17G30G24G21G10G 6G18G 5
  21511019.662   -18659419.01743 -14526499.50842  21511021.031    21511018.655
  20833567.060   -16235828.00044 -12643473.14142  20833569.629    20833566.079
  24283123.891    -1031466.55843   -785582.35742  24283125.076    24283124.745
  22238897.982   -11551956.33143  -8951782.25542  22238900.090    22238897.064
  21500566.660   -11571660.24343  -8996128.45542  21500568.202    21500565.936
  20797353.648   -19606358.46944 -15259850.09042  20797355.754    20797353.251
  24583202.031    -2892102.52143  -1992955.73142  24583204.280    24583199.464
  23059409.033    -6121115.88943  -4718302.03042  23059411.017    23059408.688
 03 12 26  1 53  0.0000000  0  8G17G30G24G21G10G 6G18G 5
  21520827.344   -18607879.56843 -14486338.88142  21520828.673    21520826.348
  20845009.843   -16175695.91144 -12596616.96542  20845012.452    20845008.822
  24298740.120     -949402.46543   -721636.28442  24298741.326    24298740.861
  22227265.084   -11613087.68443  -8999417.01842  22227267.017    22227264.093
  21511160.289   -11515990.76643  -8952749.62042  21511161.855    21511159.460
  20789713.668   -19646506.81444 -15291134.48842  20789715.760    20789713.259
  24562125.098    -3002863.94543  -2079263.23742  24562127.592    24562122.339
  23079112.849    -6017570.71943  -4637617.50042  23079114.791    23079112.679
 03 12 26  1 53 30.0000000  0  8G17G30G24G21G10G 6G18G 5
  21530668.945   -18556161.64143 -14446039.18142  21530670.275    21530667.920
  20856546.112   -16115073.00644 -12549378.34642  20856548.681    20856544.928
  24314349.983     -867370.69843   -657715.36742  24314351.339    24314350.799
  22215675.503   -11673990.65743  -9046873.84842  22215677.410    22215674.516
  21521854.765   -11459791.43443  -8908957.91742  21521856.283    21521853.806
  20782121.522   -19686403.57644 -15322222.84742  20782123.655    20782121.152
  24541057.053    -3113577.91543  -2165533.79342  24541059.803    24541054.191
  23098847.323    -5913864.24143  -4556807.28642  23098849.119    23098847.334
 03 12 26  1 54  0.0000000  0  8G17G30G24G21G10G 6G18G 5
  21540543.419   -18504270.37543 -14405604.40142  21540544.752    21540542.388
  20868174.571   -16053965.19544 -12501761.87142  20868177.193    20868173.297
  24329952.430     -785375.39343   -593822.88942  24329954.441    24329953.860
  22204128.754   -11734669.23143  -9094155.82042  22204130.570    22204127.761
  21532648.833   -11403068.31843  -8864758.06442  21532650.387    21532647.786
  20774576.867   -19726050.77644 -15353116.74142  20774579.010    20774576.508
  24519997.629    -3224245.13843  -2251767.90742  24520000.584    24519994.767
  23118611.387    -5810003.21543  -4475876.62642  23118612.945    23118611.461
 03 12 26  1 54 30.0000000  0  8G17G30G24G21G10G 6G18G 5
  21550449.043   -18452215.68843 -14365042.28342  21550450.337    21550448.021
  20879893.218   -15992383.44644 -12453776.09842  20879895.868    20879891.834
  24345546.652    -8580526.21953  -6667966.38152  24345549.119    24345547.678
  22192623.076   -11795132.24243  -9141269.81542  22192624.830    22192622.159
  21543540.382   -11345832.50743  -8820158.70942  21543541.932    21543539.367
  20767078.315   -19765455.72344 -15383821.87042  20767080.442    20767077.933
  24498945.536    -3334872.50443  -2337970.99342  24498948.967    24498942.806
  23138402.425    -5705998.75943  -4394834.21842  23138403.907    23138402.956
 03 12 26  1 55  0.0000000  0  8G17G30G24G21G10G 6G18G 5
  21560388.612   -18399983.06343 -14324341.51442  21560389.813    21560387.608
  20891704.587   -15930314.10344 -12405410.37542  20891707.298    20891703.129
  24361138.418    -8498607.80043  -6604133.83642  24361137.992    24361137.652
  22181161.280   -11855363.94443  -9188203.57642  22181163.072    22181160.596
  21554532.017   -11288070.26843  -8775149.15642  21554533.604    21554531.173
  20759629.181   -19804600.95044 -15414324.61842  20759631.290    20759628.769
  24477904.726    -3445441.79843  -2424128.80642  24477907.943    24477901.917
  23158223.321    -5601837.88743  -4313669.91542  23158224.706    23158224.230
 03 12 26  1 55 30.0000000  0  8G17G30G24G21G10G 6G18G 5
  21570361.152   -18347577.03043 -14283505.61642  21570362.360    21570360.143
  20903607.735   -15867762.73344 -12356669.04942  20903610.427    20903606.175
  24376719.647    -8416724.89743  -6540328.94842  24376720.186    24376718.950
  22169742.795   -11915367.90243  -9234959.86242  22169744.619    22169742.332
  21565622.846   -11229787.51443  -8729734.00942  21565624.355    21565622.012
  20752229.077   -19843488.59844 -15444626.65242  20752231.151    20752228.622
  24456874.647    -3555954.12343  -2510242.26842  24456877.877    24456872.052
  23178072.906    -5497526.72943  -4232388.51542  23178074.161    23178074.082
 03 12 26  1 56  0.0000000  0  8G17G30G24G21G10G 6G18G 5
  21580365.144   -18295005.56743 -14242540.81442  21580366.387    21580364.189
  20915600.832   -15804738.11744 -12307558.96442  20915603.557    20915599.317
  24392293.736    -8334884.25643  -6476557.00442  24392294.325    24392292.692
  22158366.512   -11975150.43143  -9281543.62142  22158368.323    22158366.156
  21576811.007   -11170993.01943  -8683920.10242  21576812.497    21576810.249
  20744877.115   -19882123.50144 -15474731.74642  20744879.179    20744876.561
  24435854.712    -3666413.62343  -2596314.57542  24435857.900    24435852.119
  23197949.542    -5393074.45943  -4150997.15542  23197950.541    23197950.772
 03 12 26  1 56 30.0000000  0  8G17G30G24G21G10G 6G18G 5
  21590401.339   -18242264.89343 -14201444.16742  21590402.576    21590400.463
  20927684.529   -15741237.58844 -12258078.03242  20927687.208    20927683.085
  24407859.794    -8253082.15943  -6412815.09142  24407860.808    24407859.240
  22147033.293   -12034706.87943  -9327951.19142  22147035.066    22147032.922
  21588097.102   -11111684.32643  -8637705.52242  21588098.576    21588096.292
  20737574.415   -19920499.41744 -15504635.03742  20737576.540    20737573.811
  24414846.220    -3776813.11743  -2682340.10442  24414849.121    24414843.905
  23217853.336    -5288479.07943  -4069494.28642  23217854.492    23217854.639
 03 12 26  1 57  0.0000000  0  8G17G30G24G21G10G 6G18G 5
  21600469.600   -18189355.96143 -14160216.41142  21600470.840    21600468.713
  20939858.465   -15677263.00744 -12208227.71342  20939861.121    20939857.063
  24423418.046    -8171318.65443  -6349103.27842  24423419.786    24423418.365
  22135743.257   -12094036.60143  -9374182.12242  22135745.019    22135742.737
  21599480.542   -11051863.36443  -8591091.76942  21599482.102    21599479.776
  20730321.370   -19958614.33844 -15534334.95042  20730323.546    20730320.700
  24393849.666    -3887149.93643  -2768316.80342  24393852.452    24393847.489
  23237784.075    -5183742.64143  -3987881.51342  23237785.135    23237785.280
 03 12 26  1 57 30.0000000  0  8G17G30G24G21G10G 6G18G 5
  21610569.356   -18136281.25443 -14118859.47942  21610570.601    21610568.566
  20952121.900   -15612818.13844 -12158010.93242  20952124.551    20952120.559
  24438969.073    -8089596.03043  -6285423.31042  24438970.932    24438969.953
  22124495.910   -12153141.29543  -9420237.67542  22124497.691    22124495.398
  21610960.763   -10991534.41843  -8544082.18442  21610962.323    21610959.944
  20723117.941   -19996468.38544 -15563831.57942  20723120.161    20723117.316
  24372865.159    -3997423.34943  -2854244.10042  24372867.796    24372863.027
  23257740.792    -5078869.57743  -3906162.25742  23257742.006    23257741.946
 03 12 26  1 58  0.0000000  0  8G17G30G24G21G10G 6G18G 5
  21620699.473   -18083047.02943 -14077378.24442  21620700.672    21620698.756
  20964473.483   -15547909.98444 -12107433.15642  20964476.146    20964472.208
  24454511.389    -8007919.49843  -6221779.23742  24454513.405    24454512.547
  22113290.585   -12212025.87643  -9466121.72442  22113292.312    22113289.783
  21622536.327   -10930704.34443  -8496682.11642  21622537.853    21622535.435
  20715963.613   -20034064.70644 -15593127.38742  20715965.808    20715962.984
  24351892.382    -4107635.28843  -2940123.50142  24351895.066    24351889.718
  23277722.303    -4973867.03043  -3824342.10942  23277723.549    23277723.268
 03 12 26  1 58 30.0000000  0  8G17G30G24G21G10G 6G18G 5
  21630861.354   -18029645.71243 -14035766.81242  21630862.546    21630860.775
  20976914.476   -15482532.01944 -12056489.29242  20976917.148    20976913.244
  24470046.856    -7926280.89443  -6158164.73542  24470048.502    24470047.295
  22102128.624   -12270681.61843  -9511827.45642  22102130.435    22102127.765
  21634208.569   -10869366.63543  -8448886.47742  21634209.982    21634207.494
  20708860.303   -20071392.99544 -15622214.34242  20708862.482    20708859.655
  24330933.575    -4217775.26243  -3025946.81142  24330936.337    24330930.368
  23297729.662    -4868729.03943  -3742416.41542  23297731.007    23297730.395
 03 12 26  1 59  0.0000000  0  8G17G30G24G21G10G 6G18G 5
  21641053.703   -17976084.26443 -13994030.60342  21641054.877    21641053.145
  20989443.363   -15416692.47344 -12005185.75742  20989445.998    20989442.135
  24485573.481    -7844687.04543  -6094585.06142  24485575.139    24485573.826
  22091009.111   -12329114.50743  -9557359.54442  22091011.014    22091008.138
  21645975.720   -10807529.78743  -8400701.89242  21645977.198    21645974.593
  20701807.149   -20108457.89444 -15651096.05242  20701809.315    20701806.406
  24309987.383    -4327846.94343  -3111716.88142  24309990.204    24309984.044
  23317761.178    -4763464.29643  -3660391.96342  23317762.607    23317761.755
 03 12 26  1 59 30.0000000  0  8G17G30G24G21G10G 6G18G 5
  21651276.439   -17922362.82343 -13952169.73042  21651277.578    21651275.951
  21002059.889   -15350392.52244 -11953523.46342  21002062.492    21002058.667
  24501091.890    -7763137.36343  -6031039.82942  24501093.382    24501092.078
  22079932.352   -12387323.11943  -9602716.86142  22079934.242    22079931.243
  21657837.623   -10745194.93343  -8352129.25542  21657839.108    21657836.515
  20694804.599   -20145256.47744 -15679770.24842  20694806.811    20694803.794
  24289055.140    -4437846.43043  -3197430.74742  24289057.918    24289051.781
  23337816.632    -4658073.83343  -3578269.54042  23337818.178    23337816.913
 03 12 26  2  0  0.0000000  0  8G17G30G24G21G10G 6G18G 5
  21661529.126   -17868484.45343 -13910186.56142  21661530.173    21661528.601
  21014763.156   -15283636.31444 -11901505.64542  21014765.757    21014762.048
  24516602.000    -7681634.50743  -5967531.09942  24516603.127    24516600.992
  22068897.858   -12445309.65343  -9647901.13942  22068899.743    22068896.632
  21669793.645   -10682366.37443  -8303171.91942  21669795.029    21669792.428
  20687852.684   -20181788.82944 -15708236.99542  20687854.885    20687851.854
  24268136.780    -4547773.34143  -3283088.07742  24268138.901    24268133.317
  23357894.821    -4552562.86243  -3496053.20242  23357896.599    23357895.077
 03 12 26  2  0 30.0000000  0  8G17G30G24G21G10G 6G18G 5
  21671812.461   -17814444.65943 -13868077.61742  21671813.504    21671812.000
  21027553.862   -15216420.66944 -11849129.82042  21027556.442    21027552.845
  24532103.606    -7600173.53143  -5904054.94342  24532103.976    24532103.085
  22057906.666   -12503068.65743  -9692908.11842  22057908.536    22057905.347
  21681844.087   -10619041.05243  -8253827.49342  21681845.518    21681842.895
  20680952.704   -20218047.98244 -15736490.85442  20680954.890    20680951.915
  24247233.716    -4657619.96943  -3368682.80242  24247235.650    24247229.767
  23377996.697    -4446927.93143  -3413740.29242  23377998.541    23377996.901
 03 12 26  2  1  0.0000000  0  8G17G30G24G21G10G 6G18G 5
  21682125.070   -17760251.08543 -13825848.84542  21682126.106    21682124.627
  21040430.331   -15148754.36544 -11796402.83742  21040432.870    21040429.418
  24547595.458    -7518761.15043  -5840616.67142  24547596.356    24547595.420
  22046957.606   -12560606.52743  -9737742.77442  22046959.493    22046956.152
  21693987.246   -10555228.12543  -8204103.11042  21693988.776    21693986.176
  20674103.808   -20254039.00544 -15764535.78742  20674105.933    20674102.994
  24226345.285    -4767390.14443  -3454217.95342  24226347.402    24226340.852
  23398120.211    -4341178.64443  -3331338.25542  23398122.235    23398120.449
 03 12 26  2  1 30.0000000  0  8G17G30G24G21G10G 6G18G 5
  21692468.300   -17705897.27443 -13783495.19542  21692469.353    21692467.769
  21053393.543   -15080632.15444 -11743320.60042  21053396.066    21053392.717
  24563079.392    -7437390.55343  -5777210.97242  24563080.407    24563079.830
  22036052.072   -12617915.66043  -9782399.19742  22036054.040    22036050.598
  21706224.244   -10490922.28643  -8153994.65342  21706225.772    21706223.216
  20667307.697   -20289752.75244 -15792364.66142  20667309.790    20667306.846
  24205472.947    -4877073.92543  -3539685.80242  24205475.570    24205468.872
  23418266.556    -4235309.44443  -3248842.79742  23418268.591    23418266.773
 03 12 26  2  2  0.0000000  0  8G17G30G24G21G10G 6G18G 5
  21702841.021   -17651388.37743 -13741020.70542  21702842.167    21702840.469
  21066442.353   -15012060.37444 -11689888.04342  21066444.825    21066441.563
  24578554.402    -7356066.29443  -5713841.36942  24578555.533    24578555.018
  22025189.169   -12675000.16043  -9826880.58542  22025191.181    22025187.735
  21718553.857   -10426129.92943  -8103507.09142  21718555.345    21718552.791
  20660563.891   -20325191.48544 -15819979.23242  20660566.018    20660563.009
  24184616.875    -4986673.24443  -3625087.84042  24184619.201    24184612.534
  23438434.405    -4129327.41443  -3166259.40342  23438436.513    23438434.612
 03 12 26  2  2 30.0000000  0  8G17G30G24G21G10G 6G18G 5
  21713242.805   -17596725.71443 -13698426.41042  21713244.118    21713242.394
  21079576.107   -14943041.50044 -11636107.10042  21079578.623    21079575.466
  24594020.630                    -5650508.09742  24594021.301
  22014368.977   -12731859.99243  -9871186.90842  22014371.053    22014367.620
  21730975.540   -10360853.61143  -8052642.40542  21730977.063    21730974.427
  20653872.715   -20360353.71044 -15847378.35042  20653874.848    20653871.839
  24163776.963    -5096185.83643  -3710422.27842  24163779.323    24163772.809
  23458623.099    -4023235.11843  -3083590.10042  23458625.248    23458623.286
 03 12 26  2  3  0.0000000  0  8G17G30G24G21G10G 6G18G 5
  21723671.916   -17541919.62043 -13655720.34142  21723673.260    21723671.570
  21092792.831   -14873587.07244 -11581986.76942  21092795.325    21092792.265
  24609477.068
  22003589.892   -12788504.63443  -9915325.55842  22003591.904    22003588.473
  21743487.026   -10295105.18943  -8001409.84542  21743488.571    21743485.865
  20647232.712   -20395247.09544 -15874567.97442  20647234.823    20647231.834
  24142952.651    -5205618.24943  -3795694.23442  24142955.028    24142949.018
  23478830.377    -3917044.19243  -3000843.94442  23478832.593    23478830.619
 03 12 26  2  3 30.0000000  0  8G17G30G24G21G10G 6G18G 5
  21734133.758   -17486942.64643 -13612881.11942  21734134.941    21734133.289
  21106097.402   -14803671.28444 -11527506.94542  21106099.833    21106096.831
  24624922.382
  21992857.091   -12844905.91943  -9959274.57042  21992859.083    21992855.612
  21756093.342   -10228858.66343  -7949789.15642  21756094.852    21756092.085
  20640649.588   -20429841.68944 -15901524.77942  20640651.665    20640648.712
  24122149.322    -5314939.78643  -3880879.76242  24122151.532    24122145.889
  23499061.183    -3810729.20643  -2918001.12442  23499063.351    23499061.617
 03 12 26  2  4  0.0000000  0  8G17G30G24G21G10G 6G18G 5
  21744622.130   -17431825.66543 -13569932.81142  21744623.274    21744621.707
  21119483.732   -14733325.88544 -11472692.35442  21119486.158    21119483.163
  24640361.124
  21982165.031   -12901093.04643 -10003056.70142  21982167.103    21982163.545
  21768788.282   -10162146.37943  -7897805.53442  21768789.764    21768786.930
  20634117.988   -20464165.50744 -15928270.58842  20634120.057    20634117.132
  24101361.742    -5424177.93043  -3966000.33442  24101364.010    24101358.507
  23519309.702    -3704322.63943  -2835086.94042  23519311.585    23519309.961
 03 12 26  2  4 30.0000000  0  8G17G30G24G21G10G 6G18G 5
  21755137.043   -17376569.05743 -13526875.68942  21755138.227    21755136.665
  21132951.466   -14662552.76244 -11417544.47342  21132953.888    21132950.876
  24655793.331
  21971513.747   -12957065.79343 -10046671.77942  21971515.893    21971512.164
  21781571.465   -10094970.09643  -7845460.35442  21781572.974    21781570.135
  20627638.330   -20498216.33344 -15954803.67942  20627640.431    20627637.468
  24080590.857    -5533329.53243  -4051053.49042  24080592.951    24080587.579
  23539575.250    -3597826.06743  -2752102.62742  23539577.021    23539575.579
 03 12 26  2  5  0.0000000  0  7G17G30G21G10G 6G18G 5
  21765683.523   -17321146.63043 -13483689.36042  21765684.670    21765683.045
  21146505.287   -14591327.23044 -11362044.06042  21146507.680    21146504.650
  21960908.470   -13012796.80143 -10090098.49742  21960910.649    21960906.853
  21794447.728   -10027305.07443  -7792734.35042  21794449.242    21794446.378
  20621216.086   -20531965.38744 -15981101.62442  20621218.202    20621215.194
  24059841.939    -5642364.96743  -4136016.10242  24059843.772    24059838.933
  23559862.479    -3491214.98243  -2669029.07342  23559864.283    23559863.061
 03 12 26  2  5 30.0000000  0  7G17G30G21G10G 6G18G 5
  21776256.385   -17265585.71643 -13440395.12542  21776257.490    21776255.780
  21160139.683   -14519677.67544 -11306213.24042  21160142.131    21160139.091
  21950344.236   -13068312.21643 -10133357.22342  21950346.432    21950342.611
  21807411.470    -9959179.85043  -7739649.74142  21807412.995    21807410.172
  20614846.531   -20565437.35044 -16007183.64942  20614848.677    20614845.662
  24039110.805    -5751308.11943  -4220906.77542  24039112.558    24039108.045
  23580166.176    -3384517.96543  -2585888.56042  23580167.947    23580166.961
 03 12 26  2  6  0.0000000  0  7G17G30G21G10G 6G18G 5
  21786856.947   -17209880.40543 -13396988.37742  21786857.922    21786856.123
  21173855.659   -14447599.78644 -11250048.65442  21173858.094    21173855.040
  21939822.211   -13123605.61743 -10176442.94842  21939824.401    21939820.614
  21820463.584    -9890590.15843  -7686203.21442  21820465.089    21820462.367
  20608531.354   -20598623.65244 -16033043.08142  20608533.495    20608530.482
  24018399.216    -5860149.77043  -4305718.38242  24018400.969    24018396.478
  23600486.889    -3277730.93843  -2502677.89942  23600488.630    23600487.940
 03 12 26  2  6 30.0000000  0  7G17G30G21G10G 6G18G 5
  21797485.233   -17154028.17643 -13353467.13542  21797486.389    21797484.472
  21187653.392   -14375092.24144 -11193549.27042  21187655.836    21187652.711
  21929343.228   -13178673.09443 -10219352.62842  21929345.413    21929341.623
  21833604.300    -9821534.98743  -7632393.98242  21833605.776    21833603.233
  20602271.556   -20631518.82844 -16058675.66342  20602273.694    20602270.669
  23997707.879    -5968883.80243  -4390446.12642  23997709.962    23997705.686
  23620824.954    -3170852.72043  -2419396.17642  23620826.557    23620826.164
 03 12 26  2  7  0.0000000  0  7G17G30G21G10G 6G18G 5
  21808140.739   -17098032.94543 -13309834.46442  21808141.987    21808140.037
  21201531.864   -14302160.58444 -11136719.41242  21201534.319    21201531.107
  21918906.680   -13233517.50643 -10262088.49142  21918908.908    21918905.118
  21846832.607    -9752019.82243  -7578226.30142  21846833.994    21846831.631
  20596066.905   -20664124.35244 -16084082.54242  20596069.029    20596065.976
  23977036.673    -6077510.66943  -4475090.33142  23977039.035    23977035.201
  23641179.367    -3063888.75843  -2336047.64542  23641180.779    23641180.725
 03 12 26  2  7 30.0000000  0  7G17G30G21G10G 6G18G 5
  21818823.412   -17041894.99243 -13266090.59442  21818824.724    21818822.846
  21215490.752   -14228806.52744 -11079560.41442  21215493.192    21215489.924
  21908512.617   -13288138.44443 -10304650.22542  21908514.838    21908511.155
  21860148.058    -9682046.63743  -7523701.73342  21860149.402    21860147.171
  20589917.717   -20696437.93644 -16109261.93442  20589919.906    20589916.845
  23956386.611    -6186027.21743  -4559648.61342  23956389.081    23956385.405
  23661549.616    -2956841.12143  -2252633.91242  23661550.952    23661551.183
 03 12 26  2  8  0.0000000  0  7G17G30G21G10G 6G18G 5
  21829533.615   -16985612.88443 -13222234.39442  21829534.933    21829533.087
  21229530.016   -14155029.63844 -11022071.93842  21229532.525    21229529.236
  21898161.563   -13342533.10843 -10347035.63342  21898163.757    21898160.188
  21873550.699    -9611615.19743  -7468820.07642  21873552.024    21873549.809
  20583825.048   -20728455.01944 -16134210.28942  20583827.196    20583824.142
  23935758.394    -6294428.41343  -4644116.97842  23935760.903    23935757.434
  23681936.150    -2849709.77243  -2169154.94842  23681937.278    23681937.575
 03 12 26  2  8 30.0000000  0  7G17G30G21G10G 6G18G 5
  21840269.983   -16929192.92443 -13178270.77442  21840271.359    21840269.539
  21243648.200   -14080838.16744 -10964260.40942  21243650.715    21243647.473
  21887852.570   -13396707.08543 -10389249.08242  21887854.689    21887851.227
  21887039.027    -9540733.90243  -7413587.87942  21887040.326    21887037.968
  20577787.986   -20760179.75444 -16158930.84142  20577790.133    20577787.078
  23915151.537    -6402717.53443  -4728498.00642  23915153.859    23915150.700
  23702337.091    -2742502.73543  -2085617.00842  23702338.182    23702338.403
 03 12 26  2  9  0.0000000  0  7G17G30G21G10G 6G18G 5
  21851033.052   -16872632.71143 -13134197.86942  21851034.537    21851032.672
  21257845.378   -14006231.07444 -10906125.01542  21257847.951    21257844.802
  21877586.241   -13450657.04943 -10431287.96942  21877588.289    21877584.904
  21900613.093    -9469401.63443  -7358004.27342  21900614.473    21900611.881
  20571807.603   -20791607.04344 -16183419.61742  20571809.691    20571806.598
  23894567.456    -6510888.84243  -4812787.25842  23894569.581    23894566.264
  23722752.687    -2635218.65243  -2002019.05442  23722753.656    23722753.939
 03 12 26  2  9 30.0000000  0  7G17G30G21G10G 6G18G 5
  21861822.237   -16815935.74243 -13090018.39242  21861823.763    21861821.824
  21272120.743   -13931213.27043 -10847669.59042  21272123.261    21272120.282
  21867362.039   -13504385.40143 -10473154.17242  21867364.071    21867360.739
  21914272.049    -9397623.19943  -7302073.00342  21914273.472    21914270.789
  20565883.633   -20822737.59644 -16207677.15942  20565885.759    20565882.623
  23874005.754    -6618942.25143  -4896984.60242  23874007.707    23874004.337
  23743181.710    -2527862.70043  -1918365.08542  23743182.806    23743183.207
 03 12 26  2 10  0.0000000  0  7G17G30G21G10G 6G18G 5
  21872638.230   -16759097.21143 -13045728.61042  21872639.850    21872637.913
  21286474.896   -13855781.56244 -10788891.64142  21286477.384    21286474.487
  21857181.052   -13557886.79943 -10514843.53442  21857183.050    21857179.732
  21928016.423    -9325395.58043  -7245791.72642  21928017.902    21928015.187
  20560017.571   -20853564.13144 -16231697.81642  20560019.703    20560016.532
  23853467.788    -6726869.62343  -4981083.77142  23853469.855    23853466.348
  23763624.810    -2420432.40843  -1834653.18942  23763625.991    23763626.754
 03 12 26  2 10 30.0000000  0  7G17G30G21G10G 6G18G 5
  21883479.891   -16702124.21443 -13001334.05342  21883481.571    21883479.507
  21300906.215   -13779944.64944 -10729797.94642  21300908.674    21300905.809
  21847042.206   -13611166.80143 -10556360.37242  21847044.219    21847040.908
  21941844.657    -9252727.40443  -7189167.16342  21941846.138    21941843.517
  20554208.517   -20884091.14144 -16255485.07442  20554210.667    20554207.476
  23832953.179    -6834674.60943  -5065087.58442  23832955.351    23832951.774
  23784080.488    -2312935.69943  -1750889.53542  23784081.716    23784082.818
 03 12 26  2 11  0.0000000  0  7G17G30G21G10G 6G18G 5
  21894347.226   -16645015.91343 -12956834.06242  21894348.986    21894346.711
  21315414.535   -13703703.12244 -10670388.96742  21315417.009    21315414.111
  21836945.808   -13664223.85143 -10597703.48642  21836947.812    21836944.545
  21955756.704    -9179619.51443  -7132199.96042  21955758.131    21955755.576
  20548457.143   -20914315.19444 -16279036.26142  20548459.292    20548456.064
  23812462.539    -6942352.95843  -5148992.68842  23812464.735    23812461.380
  23804549.084    -2205373.36843  -1667074.75242  23804550.109    23804551.292
 03 12 26  2 11 30.0000000  0  7G17G30G21G10G 6G18G 5
  21905240.349   -16587772.15143 -12912228.51342  21905242.167    21905239.743
  21329999.522   -13627058.53544 -10610665.92242  21330002.034    21329999.128
  21826891.869   -13717056.97243 -10638872.10842  21826893.942    21826890.747
  21969752.050    -9106073.64843  -7074891.47042  21969753.522    21969750.927
  20542763.863   -20944233.57644 -16302349.26442  20542766.071    20542762.819
  23791996.551    -7049901.26143  -5232796.51242  23791998.864    23791995.491
  23825029.629    -2097747.00843  -1583210.07242  23825030.897    23825031.982
 03 12 26  2 12  0.0000000  0  7G17G30G21G10G 6G18G 5
  21916158.557   -16530396.70043 -12867520.34742  21916160.355    21916157.927
  21344660.245   -13550016.16344 -10550632.91142  21344662.806    21344659.805
  21816880.029   -13769669.12443 -10679868.54342  21816882.059    21816878.955
  21983829.791    -9032095.06843  -7017245.79442  21983831.238    21983828.647
  20537128.502   -20973847.41144 -16325424.94842  20537130.757    20537127.523
  23771555.565    -7157320.08043  -5316499.41442  23771557.592    23771554.241
  23845521.476    -1990062.16543  -1499299.83442  23845522.774    23845523.656
 03 12 26  2 12 30.0000000  0  7G17G30G21G10G 6G18G 5
  21927102.388   -16472886.61443 -12822707.27242  21927104.178    21927101.835
  21359396.928   -13472574.70144 -10490288.92142  21359399.530    21359396.417
  21806911.013   -13822056.55843 -10720689.88842  21806912.972    21806909.949
  21997990.007    -8957682.35643  -6959261.85542  21997991.514    21997988.961
  20531552.252   -21003151.01044 -16348258.90142  20531554.460    20531551.264
  23751140.299    -7264602.68743  -5400096.18442  23751142.349    23751138.912
  23866024.882    -1882317.15243  -1415342.69942  23866026.120    23866026.794
 03 12 26  2 13  0.0000000  0  7G17G30G21G10G 6G18G 5
  21938070.864   -16415246.95043 -12777793.23342  21938072.674    21938070.348
  21374208.256   -13394740.75744 -10429639.10042  21374210.883    21374207.687
  21796983.969   -13874223.21843 -10761339.19342  21796985.874    21796982.917
  22012231.665    -8882842.31143  -6900944.91642  22012233.182    22012230.532
  20526034.534   -21032146.83144 -16370853.02542  20526036.760    20526033.562
  23730750.651    -7371751.15743  -5483588.41142  23730752.625    23730749.030
  23886538.054    -1774518.91643  -1331344.09342  23886539.497    23886540.031
 03 12 26  2 13 30.0000000  0  7G17G30G21G10G 6G18G 5
  21949064.341   -16357476.18843 -12732777.03442  21949066.117    21949063.684
  21389094.239   -13316514.74044 -10368683.76742  21389096.861    21389093.551
  21787099.315   -13926167.10143 -10801814.90242  21787101.225    21787098.258
  22026554.525    -8807575.54043  -6842295.45742  22026555.991    22026553.273
  20520576.143   -21060831.20044 -16393204.46442  20520578.354    20520575.120
  23710387.268    -7478760.87943  -5566972.55042  23710389.300    23710385.536
  23907061.615    -1666667.57843  -1247304.12742  23907062.960    23907063.545
 03 12 26  2 14  0.0000000  0  7G17G30G21G10G 6G18G 5
  21960082.815   -16299573.96743 -12687658.40842  21960084.530    21960082.136
  21404054.569   -13237897.52644 -10307423.60742  21404057.245    21404053.857
  21777257.504   -13977886.42643 -10842115.64542  21777259.321    21777256.271
  22040958.126    -8731882.77443  -6783314.06142  22040959.723    22040957.121
  20515177.595   -21089200.90744 -16415310.71442  20515179.830    20515176.506
  23690051.066    -7585627.48243  -5650245.16842  23690053.234    23690049.416
  23927594.831    -1558763.79143  -1163223.26942  23927596.391    23927597.209
 03 12 26  2 14 30.0000000  0  7G17G30G21G10G 6G18G 5
  21971125.493   -16241544.73743 -12642440.80842  21971127.176    21971124.754
  21419088.306   -13158895.41944 -10245863.53342  21419090.906    21419087.390
  21767457.604   -14029385.18043 -10882244.50542  21767459.465    21767456.282
  22055441.692    -8655770.65843  -6724005.90342  22055443.191    22055440.806
  20509838.542   -21117257.92744 -16437173.31242  20509840.784    20509837.375
  23669741.813    -7692352.70343  -5733407.65842  23669743.922    23669740.234
  23948137.172    -1450813.91143  -1079106.51042  23948138.503    23948139.521
 03 12 26  2 15  0.0000000  0  7G17G30G21G10G 6G18G 5
  21982192.496   -16183387.16443 -12597123.19942  21982194.214    21982191.836
  21434194.985   -13079508.86143 -10184003.87942  21434197.699    21434194.087
  21757700.046   -14080660.92143 -10922199.58042  21757701.973    21757698.654
  22070004.870    -8579239.33943  -6664371.09742  22070006.428    22070004.246
  20504559.713   -21144998.28744 -16458789.16042  20504561.967    20504558.509
  23649460.484    -7798931.28743  -5816455.83842  23649462.541    23649459.203
  23968688.216    -1342818.23843   -994954.04942  23968689.448    23968690.509
 03 12 26  2 15 30.0000000  0  7G17G30G21G10G 6G18G 5
  21993283.131   -16125105.65743 -12551709.02442  21993284.850    21993282.519
  21449373.658   -12999743.80943 -10121849.30042  21449376.448    21449372.885
  21747984.351   -14131717.61143 -10961983.97442  21747986.245    21747982.739
  22084646.826    -8502295.31843  -6604414.69342  22084648.331    22084646.161
  20499340.806   -21172423.99044 -16480159.82442  20499343.041    20499339.534
  23629206.935    -7905365.17843  -5899391.28742  23629208.863    23629205.743
  23989246.633    -1234783.19243   -910770.89542  23989248.017    23989249.128
 03 12 26  2 16  0.0000000  0  7G17G30G21G10G 6G18G 5
  22004398.033   -16066696.73443 -12506195.56242  22004399.685    22004397.337
  21464624.777   -12919598.65743 -10059398.53442  21464627.520    21464624.003
  21738311.087   -14182550.45243 -11001593.94342  21738313.114    21738309.406
  22099367.709    -8424936.84343  -6544135.35242  22099369.181    22099366.972
  20494182.824   -21199529.13644 -16501280.70042  20494185.077    20494181.606
  23608982.088    -8011647.28643  -5982208.47042  23608984.150    23608981.003
  24009813.380    -1126706.49743   -826555.31642  24009814.589    24009815.700
 03 12 26  2 16 30.0000000  0  7G17G30G21G10G 6G18G 5
  22015536.522   -16008163.23643 -12460585.03142  22015538.178    22015535.858
  21479947.457   -12839077.85544  -9996655.05842  21479950.131    21479946.700
  21728680.084   -14233161.63343 -11041031.18442  21728682.127    21728678.297
  22114166.443    -8347168.34443  -6483536.50242  22114168.002    22114165.765
  20489085.779   -21226314.01544 -16522152.01842  20489088.010    20489084.625
  23588786.329    -8117776.93943  -6064906.86942  23588788.456    23588785.133
  24030386.913    -1018592.59843   -742310.73242  24030388.272    24030389.261
 03 12 26  2 17  0.0000000  0  7G17G30G21G10G 6G18G 5
  22026698.058   -15949509.35843 -12414880.69842  22026699.555    22026697.257
  21495340.388   -12758187.57543  -9933623.67442  21495343.057    21495339.655
  21719090.502   -14283554.90343 -11080298.62442  21719092.533    21719088.690
  22129042.324    -8268995.76943  -6422622.79842  22129043.772    22129041.466
  20484049.231   -21252780.43944 -16542775.18642  20484051.505    20484048.216
  23568619.287    -8223755.08443  -6147487.18242  23568621.340    23568618.142
  24050966.424     -910447.10443   -658041.54542  24050967.901    24050968.730
 03 12 26  2 17 30.0000000  0  7G17G30G21G10G 6G18G 5
  22037883.131   -15890731.29643 -12369079.59142  22037884.602    22037882.218
  21510803.989   -12676925.61943  -9870302.67242  21510806.671    21510803.410
  21709543.442   -14333725.27144 -11119392.38142  21709545.447    21709541.556
  22143995.240    -8190417.31743  -6361392.81742  22143996.687    22143994.370
  20479074.645   -21278921.90344 -16563145.13542  20479076.852    20479073.627
  23548482.346    -8329574.83743  -6229944.09042  23548484.464    23548481.214
  24071552.648     -802268.00443   -573746.16842  24071554.114    24071554.582
 03 12 26  2 18  0.0000000  0  7G17G30G21G10G 6G18G 5
  22049091.456   -15831831.47943 -12323183.62142  22049092.835    22049090.428
  21526337.485   -12595296.38143  -9806695.47742  21526340.162    21526336.974
  21700038.320   -14383674.74643 -11158314.00142  21700040.399    21700036.496
  22159024.616    -8111437.39043  -6299849.99842  22159026.075    22159023.737
  20474161.904   -21304738.56344 -16583261.99542  20474164.058    20474160.818
  23528375.830    -8435235.26943  -6312276.85442  23528377.810    23528374.729
  24092144.250     -694059.78643   -489428.09842  24092145.859    24092145.956
 03 12 26  2 18 30.0000000  0  7G17G30G21G10G 6G18G 5
  22060323.585   -15772806.20343 -12277189.88742  22060324.936    22060322.632
  21541941.300   -12513297.94443  -9742800.59942  21541943.916    21541940.809
  21690576.076   -14433398.69443 -11197059.89142  21690578.209    21690574.332
  22174130.745    -8032053.89443  -6237992.70742  22174132.233    22174129.930
  20469312.110   -21330224.03644 -16603120.78742  20469314.324    20469311.052
  23508300.731    -8540729.63643  -6394480.18842  23508302.779    23508299.859
  24112741.471     -585819.93743   -405085.39142  24112743.308    24112743.348
 03 12 26  2 19  0.0000000  0  7G17G30G21G10G 6G18G 5
  22071577.545   -15713666.13343 -12231106.70042  22071578.868    22071576.660
  21557612.964   -12430942.47943  -9678627.51642  21557615.610    21557612.465
  21681154.995   -14482906.82743 -11235637.62442  21681157.106    21681153.188
  22189311.195    -7952279.28743  -6175830.66142  22189312.807    22189310.608
  20464523.872   -21355386.33144 -16622727.75942  20464526.084    20464522.808
  23488255.920    -8646065.25343  -6476559.83442  23488257.948    23488255.177
  24133342.339     -477560.82143   -320727.67342  24133344.275    24133344.310
 03 12 26  2 19 30.0000000  0  7G17G30G21G10G 6G18G 5
  22082854.680   -15654404.72643 -12184928.96842  22082855.882    22082853.715
  21573353.488   -12348225.71743  -9614172.90342  21573356.031    21573352.859
  21671776.252   -14532192.12743 -11274041.71642  21671778.348    21671774.429
  22204567.073    -7872109.28943  -6113360.51942  22204568.699    22204566.544
  20459798.822   -21380216.76944 -16642076.13742  20459801.003    20459797.696
  23468243.396    -8751232.29943  -6558508.14042  23468245.315    23468242.576
  24153947.946     -369277.91843   -236351.42342  24153949.845    24153949.843
 03 12 26  2 20  0.0000000  0  7G17G30G21G10G 6G18G 5
  22094154.096   -15595025.35043 -12138659.30542  22094155.299    22094153.144
  21589161.736   -12265152.67243  -9549440.66542  21589164.276    21589161.032
  21662439.516   -14581257.24343 -11312274.23542  21662441.548    21662437.589
  22219897.001    -7791548.93143  -6050586.19842  22219898.782    22219896.644
  20455136.713   -21404716.17544 -16661166.56142  20455138.920    20455135.579
  23448262.645    -8856230.73343  -6640325.03842  23448264.609    23448261.871
  24174557.440     -260975.62043   -151960.03842  24174559.336    24174559.137
 03 12 26  2 20 30.0000000  0  7G17G30G21G10G 6G18G 5
  22105475.801   -15535529.17043 -12092298.62642  22105476.989    22105474.827
  21605037.219   -12181726.07243  -9484432.92942  21605039.814    21605036.502
  21653144.571   -14630101.99743 -11350335.04242  21653146.600    21653142.638
  22235300.980    -7710600.93643  -5987509.82042  22235302.662    22235300.432
  20450537.882   -21428883.05044 -16679997.87442  20450540.123    20450536.745
  23428314.393    -8961058.43943  -6722008.90342  23428316.421    23428313.713
  24195169.937     -152656.88143    -67555.84542  24195171.943    24195171.562
 03 12 26  2 21  0.0000000  0  7G17G30G21G10G 6G18G 5
  22116819.919   -15475914.61843 -12045845.70542  22116821.116    22116818.964
  21620979.966   -12097946.78943  -9419150.38042  21620982.534    21620979.119
  21643891.930   -14678724.78743 -11388222.88542  21643893.884    21643889.881
  22250778.381    -7629266.09043  -5924132.00342  22250780.117    22250777.826
  20446003.070   -21452713.84344 -16698567.30842  20446005.288    20446001.863
  23408399.563    -9065711.73943  -6803556.86842  23408401.550    23408398.769
  24215785.409      -44322.22343     16860.73242  24215787.344    24215786.963
 03 12 26  2 21 30.0000000  0  8G17G30G21G10G 6G18G 5G16
  22128185.093   -15416189.75743 -11999306.83642  22128186.192    22128184.131
  21636987.915   -12013824.51543  -9353600.56242  21636990.541    21636987.022
  21634680.246   -14727132.59743 -11425943.21942  21634682.145    21634678.064
  22266327.611    -7547554.17843  -5860460.36042  22266329.360    22266327.004
  20441531.181   -21476213.95244 -16716879.06242  20441533.371    20441529.917
  23388517.023    -9170194.78143  -6884972.17242  23388519.177    23388516.217
  24236402.156       64019.19043    101282.56342  24236404.057    24236403.597
  24709109.496
 03 12 26  2 22  0.0000000  0  8G17G30G21G10G 6G18G 5G16
  22139571.703   -15356352.33643 -11952680.25042  22139572.704    22139570.812
  21653061.160   -11929358.93643  -9287783.23242  21653063.855    21653060.253
  21625510.005   -14775322.77543 -11463493.96542  21625511.847    21625507.695
  22281948.737    -7465465.02243  -5796494.76642  22281950.356    22281948.058
  20437122.993   -21499378.85944 -16734929.61842  20437125.220    20437121.811
  23368668.059    -9274501.77343  -6966250.29342  23368670.236    23368667.094
  24257020.416      172367.82243    185710.04242  24257022.261    24257021.693
  24692315.785
 03 12 26  2 22 30.0000000  0  8G17G30G21G10G 6G18G 5G16
  22150980.519   -15296398.97143 -11905963.32642  22150981.391    22150979.504
  21669199.956   -11844548.51743  -9221697.19142  21669202.712    21669199.194
  21616381.977   -14823290.66444 -11500871.50042  21616383.894    21616379.632
  22297641.800    -7382997.00943  -5732233.96142  22297643.413    22297641.288
  20432779.760   -21522202.66044 -16752714.37942  20432781.974    20432778.628
  23348853.788    -9378626.60943  -7047386.46742  23348855.937    23348852.649
  24277640.388      280725.00643    270144.20542  24277642.217    24277641.484
  24675579.867
 03 12 26  2 23  0.0000000  0  8G17G30G21G10G 6G18G 5G16
  22162411.689   -15236327.92643 -11859154.69942  22162412.535    22162410.531
  21685404.371   -11759393.47343  -9155342.61242  21685407.119    21685403.743
  21607296.641   -14871034.18143 -11538074.19342  21607298.579    21607294.280
  22313407.067    -7300150.50043  -5667678.21942  22313408.573    22313406.540
  20428502.211   -21544681.17544 -16770230.08542  20428504.403    20428501.182
  23329075.019    -9482564.41543  -7128376.90942  23329077.162    23329073.767
  24298261.993      389091.46143    354585.55942  24298263.824    24298262.975
  24658902.021
 03 12 26  2 23 30.0000000  0  8G17G30G21G10G 6G18G 5G16
  22173863.588   -15176147.83643 -11812261.12542  22173864.418    22173862.371
  21701672.317   -11673904.57843  -9088727.89642  21701675.085    21701671.824
  21598252.424   -14918561.59743 -11575108.50742  21598254.365    21598250.122
  22329242.178    -7216936.12743  -5602835.82942  22329243.694    22329241.780
  20424289.137   -21566820.74344 -16787481.68142  20424291.324    20424288.225
  23309330.617    -9586320.65143  -7209225.87142  23309332.811    23309329.456
  24318883.193      497456.46943    439025.77342  24318884.939    24318884.133
  24642281.642
 03 12 26  2 24  0.0000000  0  8G17G30G21G10G 6G18G 5G16
  22185336.383   -15115856.50943 -11765280.85542  22185337.364    22185335.409
  21718003.964   -11588081.45143  -9021852.73042  21718006.726    21718003.462
  21589249.950   -14965869.69543 -11611971.92142  21589251.893    21589247.667
  22345147.370    -7133353.43343  -5537706.43642  22345148.894    22345147.028
  20420141.437   -21588616.73344 -16804465.55142  20420143.601    20420140.638
  23289622.008    -9689889.81743  -7289929.06442  23289624.125    23289620.858
  24339504.038      605820.54843    523465.28242  24339505.964    24339505.205
  24625719.501
 03 12 26  2 24 30.0000000  0  8G17G30G21G10G 6G18G 5G16
  22196831.067   -15055452.01043 -11718212.40242  22196831.858    22196829.993
  21734399.186   -11501924.19143  -8954717.20442  21734402.040    21734398.629
  21580289.726   -15012955.91743 -11648662.44242  21580291.686    21580287.545
  22361122.773    -7049402.42743  -5472290.06042  22361124.218    22361122.313
  20416059.880   -21610065.04344 -16821178.50342  20416062.006    20416059.164
  23269949.719    -9793267.16843  -7370482.77742  23269951.915    23269948.962
  24360125.214      714184.07843    607904.35342  24360126.981    24360126.026
  24609216.417
 03 12 26  2 25  0.0000000  0  8G17G30G21G10G 6G18G 5G16
  22208345.626   -14994942.57643 -11671062.17742  22208346.466    22208344.614
  21750856.079   -11415443.01343  -8887329.28142  21750858.970    21750855.384
  21571370.273   -15059827.71643 -11685185.88242  21571372.224    21571368.174
  22377166.225    -6965093.34243  -5406594.65042  22377167.778    22377165.751
  20412043.407   -21631171.49044 -16837625.06842  20412045.471    20412042.727
  23250313.255    -9896457.61043  -7450890.85042  23250315.408    23250312.691
  24380744.223      822537.37543    692335.46142  24380745.980    24380744.769
  24592771.454     -954996.61853   -341250.95852  24592773.511    24592768.777
 03 12 26  2 25 30.0000000  0  8G17G30G21G10G 6G18G 5G16
  22219881.784   -14934318.99843 -11623823.00942  22219882.803    22219880.886
  21767375.946   -11328630.86043  -8819683.45242  21767378.857    21767375.096
  21562493.399   -15106475.67743 -11721534.91242  21562495.334    21562491.410
  22393279.190    -6880419.21643  -5340614.80042  22393280.750    22393278.667
  20408094.177   -21651924.73544 -16853796.41542  20408096.189    20408093.496
  23230714.632    -9999448.81543  -7531143.68242  23230716.760    23230714.276
  24401362.683      930887.61543    776764.18442  24401364.280    24401362.919
  24576386.647    -1041096.37843   -408341.61142  24576388.938    24576384.798
 03 12 26  2 26  0.0000000  0  9G17G29G30G21G10G 6G18G 5G16
  22231438.415   -14873588.32343 -11576500.38942  22231439.490    22231437.535
  23511303.796
  21783956.980   -11241496.34543  -8751786.42842  21783960.035    21783956.172
  21553658.043   -15152905.79143 -11757714.17942  21553659.978    21553656.120
  22409459.935    -6795388.87443  -5274357.36642  22409461.504    22409459.352
  20404211.338   -21672329.18244 -16869695.97042  20404213.347    20404210.650
  23211153.002   -10102244.81843  -7611244.38642  23211155.132    23211152.949
  24421978.560     1039226.18343    861183.81042  24421980.281    24421979.034
  24560062.165    -1126881.38943   -475186.99042  24560064.695    24560060.284
 03 12 26  2 26 30.0000000  0  9G17G29G30G21G10G 6G18G 5G16
  22243014.957   -14812753.26043 -11529096.43142  22243016.090    22243013.998
  23502067.825     -280269.29153   -213642.85452  23502070.348    23502066.065
  21800598.569   -11154044.62643  -8683642.23642  21800601.571    21800597.625
  21544863.706   -15199120.07243 -11793725.27142  21544865.674    21544861.898
  22425707.441    -6710007.39943  -5207826.32542  22425709.008    22425706.950
  20400394.759   -21692385.33044 -16885324.12142  20400396.791    20400394.083
  23191628.747   -10204845.34043  -7691192.78342  23191630.880    23191628.846
  24442591.637     1147548.79443    945590.97942  24442593.241    24442592.103
  24543797.647    -1212351.13743   -541786.71342  24543800.135    24543795.810
 03 12 26  2 27  0.0000000  0  9G17G29G30G21G10G 6G18G 5G16
  22254611.699   -14751811.42243 -11481609.26242  22254612.898    22254610.817
  23492900.040     -328444.72843   -251182.04842  23492901.890    23492898.515
  21817300.612   -11066275.32443  -8615250.57942  21817303.594    21817299.537
  21536111.014   -15245115.62244 -11829565.92442  21536113.010    21536109.193
  22442022.011    -6624274.02543  -5141021.07842  22442023.518    22442021.438
  20396645.376   -21712088.42844 -16900677.17242  20396647.416    20396644.653
  23172142.898   -10307244.51543  -7770984.27642  23172144.965    23172142.961
  24463201.955     1255856.07943   1029986.22542  24463203.505    24463202.362
  24527594.366    -1297499.86443   -608136.27142  24527596.703    24527593.016
 03 12 26  2 27 30.0000000  0  9G17G29G30G21G10G 6G18G 5G16
  22266228.660   -14690763.10643 -11434039.13642  22266229.870    22266227.906
  23483801.538     -376252.40353   -288434.71652  23483804.086    23483800.653
  21834062.557   -10978190.66143  -8546613.18642  21834065.618    21834061.438
  21527400.023   -15290892.27444 -11865236.00442  21527402.011    21527398.153
  22458403.077    -6538191.09143  -5073943.45242  22458404.508    22458402.279
  20392963.533   -21731436.47944 -16915753.56242  20392965.585    20392962.778
  23152695.567   -10409440.01543  -7850617.07242  23152697.816    23152695.868
  24483809.056     1364146.07543   1114367.99442  24483810.743    24483809.304
  24511452.567    -1382324.77243   -674233.54342  24511454.807    24511451.042
 03 12 26  2 28  0.0000000  0  9G17G29G30G21G10G 6G18G 5G16
  22277865.698   -14629609.85543 -11386387.24042  22277866.966    22277865.071
  23474773.775     -423690.48643   -325399.35342  23474776.464    23474773.823
  21850883.974   -10889794.14543  -8477732.78842  21850886.987    21850882.703
  21518730.501   -15336450.74544 -11900736.07942  21518732.531    21518728.539
  22474850.062    -6451762.15943  -5006596.21842  22474851.483    22474848.985
  20389349.398   -21750428.74044 -16930552.71542  20389351.440    20389348.596
  23133287.600   -10511430.09443  -7930089.79142  23133289.888    23133287.811
  24504412.296     1472415.77143   1198733.96042  24504414.037    24504412.354
  24495372.996    -1466823.80443   -740076.90242  24495375.015    24495371.033
 03 12 26  2 28 30.0000000  0  9G17G29G30G21G10G 6G18G 5G16
  22289522.016   -14568355.40843 -11338656.48942  22289523.260    22289521.480
  23465816.477     -470759.44943   -362076.40442  23465819.378    23465816.601
  21867763.422   -10801091.88143  -8408614.14642  21867766.467    21867762.108
  21510101.878   -15381794.39144 -11936068.75442  21510103.879    21510099.828
  22491361.776    -6364993.46343  -4938984.23742  22491363.162    22491360.367
  20385802.627   -21769066.92544 -16945075.96542  20385804.664    20385801.812
  23113918.374   -10613215.55443  -8009403.05842  23113920.772    23113918.585
  24525010.460     1580659.37243   1283079.59142  24525012.271    24525010.427
  24479355.161    -1550997.86843   -805667.03242  24479356.946    24479353.306
 03 12 26  2 29  0.0000000  0  8G17G30G21G10G 6G18G 5G16
  22301197.768   -14506998.66043 -11290846.02642  22301199.031    22301197.232
  21884700.930   -10712084.69843  -8339257.90442  21884703.950    21884699.568
  21501514.408   -15426921.25544 -11971232.50642  21501516.488    21501512.366
  22507937.755    -6277885.68943  -4871108.03442  22507939.212    22507936.297
  20382323.971   -21787347.40344 -16959320.47642  20382325.994    20382323.113
  23094588.902   -10714792.57643  -8088553.91842  23094591.307    23094588.927
  24545603.534     1688876.53343   1367404.59942  24545605.411    24545603.557
  24463399.988    -1634842.40843   -871000.35742  24463401.727    24463398.348
 03 12 26  2 29 30.0000000  0  8G17G30G21G10G 6G18G 5G16
  22312893.484   -14445536.92143 -11242953.75142  22312894.782    22312892.899
  21901696.503   -10622772.21043  -8269663.75642  21901699.533    21901695.130
  21492968.842   -15471828.44344 -12006225.08342  21492970.948    21492966.755
  22524578.407    -6190438.25243  -4802967.16842  22524579.865    22524577.046
  20378914.243   -21805265.58344 -16973282.68542  20378916.255    20378913.403
  23075300.247   -10816155.25143  -8167537.76242  23075302.625    23075300.119
  24566191.591     1797068.07843   1451709.65142  24566193.613    24566191.909
  24447508.579    -1718351.59443   -936072.35442  24447510.420    24447507.272
 03 12 26  2 30  0.0000000  0  8G17G30G21G10G 6G18G 5G16
  22324608.069   -14383976.39143 -11194984.49142  22324609.410    22324607.385
  21918748.608   -10533162.62243  -8199838.10942  21918751.591    21918747.354
  21484464.086   -15516521.24044 -12041050.60642  21484466.199    21484461.978
  22541282.147    -6102659.30943  -4734567.98342  22541283.515    22541280.916
  20375572.724   -21822825.29044 -16986965.55142  20375574.738    20375571.888
  23056051.708   -10917306.63943  -8246356.95642  23056054.122    23056051.548
  24586773.741     1905226.26243   1535988.69842  24586775.524    24586773.956
  24431680.654    -1801528.21643  -1000885.23142  24431682.571    24431679.346
 03 12 26  2 30 30.0000000  0  8G17G30G21G10G 6G18G 5G16
  22336342.120   -14322313.80343 -11146935.71542  22336343.416    22336341.289
  21935857.410   -10443254.84143  -8129780.10142  21935860.370    21935856.333
  21476000.807   -15560995.84144 -12075706.10642  21476002.955    21475998.679
  22558049.178    -6014547.83443  -4665909.68142  22558050.490    22558048.076
  20372300.496   -21840020.87544 -17000364.69642  20372302.506    20372299.684
  23036844.601   -11018240.79743  -8325006.88342  23036847.008    23036844.398
  24607349.763     2013352.69643   1620243.02242  24607351.470    24607350.122
  24415917.200    -1884365.90643  -1065433.99342  24415919.147    24415915.855
 03 12 26  2 31  0.0000000  0  8G17G30G21G10G 6G18G 5G16
  22348095.099   -14260550.96043 -11098808.81142  22348096.524    22348094.388
  21953022.294   -10353052.54743  -8059492.59442  21953025.214    21953021.398
  21467578.798   -15605253.72744 -12110192.74142  21467580.950    21467576.628
  22574878.893    -5926107.50843  -4596995.12842  22574880.153    22574877.752
  20369097.669   -21856851.93544 -17013479.79742  20369099.701    20369096.810
  23017678.968   -11118956.33643  -8403486.46342  23017681.485    23017678.823
  24627918.900     2121443.72543   1704469.76342  24627920.846    24627919.408
  24400218.539    -1966863.01243  -1129717.36542  24400220.544    24400217.341
 03 12 26  2 31 30.0000000  0  9G17G30G26G21G10G 6G18G 5G16
  22359867.418   -14198687.71443 -11050603.67142  22359868.804    22359866.652
  21970242.837   -10262558.07043  -7988977.42242  21970245.606    21970241.982
  23238233.275
  21459198.103   -15649294.04344 -12144509.83842  21459200.281    21459195.941
  22591770.688    -5837340.57843  -4527826.09142  22591771.995    22591769.583
  20365964.636   -21873316.40544 -17026309.24242  20365966.700    20365963.688
  22998555.582   -11219450.19943  -8481793.29842  22998558.050    22998555.418
  24648481.081     2229497.82743   1788667.73542  24648483.136    24648481.467
  24384585.309    -2049016.48843  -1193733.00142  24384587.262    24384584.095
 03 12 26  2 32  0.0000000  0  9G17G30G26G21G10G 6G18G 5G16
  22371657.765   -14136728.31243 -11002323.59642  22371659.360    22371657.212
  21987517.576   -10171777.64243  -7918239.42542  21987520.411    21987516.967
  23223160.297
  21450858.118   -15693120.85444 -12178660.56842  21450860.235    21450855.904
  22608723.586    -5748252.94543  -4458407.14042  22608724.920    22608722.303
  20362901.017   -21889416.14844 -17038854.48642  20362903.099    20362899.982
  22979474.168   -11319723.59043  -8559928.34542  22979476.598    22979473.924
  24669035.179     2337509.37343   1872832.51742  24669037.164    24669035.507
  24369017.069    -2130827.16443  -1257481.46442  24369019.255    24369015.960
 03 12 26  2 32 30.0000000  0  9G17G30G26G21G10G 6G18G 5G16
  22383467.075   -14074669.84043 -10953966.33742  22383468.658    22383466.610
  22004847.020   -10080710.59343  -7847278.09742  22004849.785    22004846.476
  23208139.375     -294122.73053   -148256.01252  23208139.548    23208139.513
  21442559.559   -15736730.24944 -12212641.88242  21442561.619    21442557.262
  22625737.557    -5658844.13143  -4388737.93542  22625738.901    22625736.231
  20359907.728   -21905146.15844 -17051111.62642  20359909.827    20359906.615
  22960435.684   -11419770.71943  -8637887.08342  22960438.099    22960435.487
  24689581.244     2445479.41643   1956964.99442  24689583.291    24689581.718
  24353515.195    -2212289.24943  -1320958.35242  24353517.408    24353514.267
 03 12 26  2 33  0.0000000  0  9G17G30G26G21G10G 6G18G 5G16
  22395294.895   -14012513.82243 -10905533.06442  22395296.528    22395294.498
  22022230.446    -9989360.54243  -7776096.24042  22022233.172    22022229.831
  23193169.807     -372780.77143   -209548.02642  23193171.246    23193170.766
  21434302.266   -15780123.00644 -12246454.37742  21434304.282    21434299.855
  22642811.845    -5569117.83843  -4318821.32442  22642813.212    22642810.436
  20356984.940   -21920505.79144 -17063080.16342  20356987.038    20356983.717
  22941440.790   -11519589.93043  -8715668.22542  22941443.034    22941440.440
  24710118.924     2553404.87343   2041062.69242  24710121.081    24710119.352
  24338079.873    -2293400.88443  -1384162.15042  24338082.059    24338079.363
 03 12 26  2 33 30.0000000  0  9G17G30G26G21G10G 6G18G 5G16
  22407141.613   -13950259.38143 -10857023.10742  22407143.132    22407141.138
  22039667.333    -9897729.06243  -7704695.08842  22039670.086    22039666.761
  23178253.977     -451159.86053   -270622.63252  23178255.941    23178256.033
  21426086.239   -15823298.17444 -12280097.33542  21426088.280    21426083.821
  22659946.155    -5479075.52943  -4248658.47142  22659947.585    22659944.857
  20354133.095   -21935492.26244 -17074757.91842  20354135.231    20354131.843
  22922489.599   -11619177.81943  -8793269.12042  22922491.881    22922489.423
  24730647.425     2661284.34843   2125124.59742  24730649.895    24730648.331
  24322712.319    -2374158.04543  -1447089.75642  24322714.416    24322711.864
 03 12 26  2 34  0.0000000  0  9G17G30G26G21G10G 6G18G 5G16
  22419005.646   -13887912.89443 -10808441.41942  22419007.219    22419005.288
  22057156.131    -9805824.48243  -7633081.13242  22057158.972    22057155.621
  23163391.462     -529261.71953   -331481.19252  23163393.272    23163393.650
  21417910.590   -15866261.51444 -12313575.23642  21417912.587    21417908.068
  22677139.337    -5388725.23543  -4178255.63242  22677140.634    22677137.874
  20351351.530   -21950109.52544 -17086147.98442  20351353.655    20351350.220
  22903581.946   -11718537.77143  -8870692.40142  22903584.196    22903581.655
  24751165.973     2769110.08543   2209144.63142  24751168.268    24751166.883
  24307411.471    -2454564.06143  -1509743.74642  24307413.413    24307411.108
 03 12 26  2 34 30.0000000  0  8G17G30G21G10G 6G18G 5G16
  22430887.802   -13825471.72643 -10759785.94942  22430889.338    22430887.437
  22074697.119    -9713646.40743  -7561254.06142  22074699.900    22074696.552
  21409775.904   -15909009.69344 -12346885.47742  21409777.891    21409773.318
  22694391.251    -5298066.68543  -4107612.58742  22694392.475    22694389.633
  20348641.090   -21964352.97844 -17097246.76642  20348643.187    20348639.745
  22884718.884   -11817664.01943  -8947933.56642  22884721.030    22884718.334
  24771674.304     2876882.91743   2293123.42642  24771676.637    24771675.337
  24292178.441    -2534612.96143  -1572119.44442  24292180.323    24292178.168
 03 12 26  2 35  0.0000000  0  8G17G30G21G10G 6G18G 5G16
  22442788.386   -13762934.16243 -10711055.37542  22442789.811    22442787.904
  22092289.979    -9621195.51743  -7489214.41842  22092292.721    22092289.465
  21401682.522   -15951540.68944 -12380026.48542  21401684.528    21401679.973
  22711701.544    -5207100.29243  -4036729.67942  22711702.869    22711699.912
  20346002.520   -21978218.72244 -17108051.23142  20346004.589    20346001.164
  22865900.978   -11916552.20943  -9024989.23742  22865903.222    22865900.252
  24792172.860     2984602.90743   2377061.03342  24792175.118    24792173.581
  24277013.993    -2614300.23843  -1634213.30342  24277015.828    24277014.222
 03 12 26  2 35 30.0000000  0  9G17G29G30G21G10G 6G18G 5G16
  22454706.723   -13700302.86543 -10662251.75642  22454708.224    22454706.223
  23348108.587
  22109933.660    -9528476.81843  -7416966.07542  22109936.419    22109933.312
  21393629.992   -15993856.93844 -12413000.14742  21393632.004    21393627.404
  22729069.603    -5115830.87943  -3965610.63942  22729070.978    22729067.901
  20343435.626   -21991707.56944 -17118562.00642  20343437.708    20343434.323
  22847128.298   -12015202.42543  -9101859.46842  22847130.616    22847127.538
  24812660.286     3092265.44643   2460953.87942  24812662.406    24812661.110
  24261918.865    -2693625.52143  -1696025.16142  24261920.613    24261918.835
 03 12 26  2 36  0.0000000  0  9G17G29G30G21G10G 6G18G 5G16
  22466641.966   -13637582.92943 -10613379.06142  22466643.478    22466641.447
  23340273.078
  22127626.778    -9435497.40343  -7344514.59142  22127629.582    22127626.794
  21385617.513   -16035962.81444 -12445809.89342  21385619.500    21385614.878
  22746493.805    -5024265.64643  -3894261.10142  22746495.247    22746492.123
  20340939.950   -22004822.17244 -17128781.16342  20340942.061    20340938.715
  22828400.702   -12113616.35843  -9178545.60342  22828402.972    22828399.742
  24833135.498     3199864.50543   2544797.20442  24833137.539    24833136.677
  24246892.200    -2772590.72543  -1757556.40742  24246893.900    24246892.270
 03 12 26  2 36 30.0000000  0  9G17G29G30G26G21G10G 6G18G16
  22478596.824   -13574759.22643 -10564425.51142  22478598.433    22478596.363
  23332512.634    -1654294.63253  -1285990.12152  23332514.278    23332510.639
  22145372.069    -9342244.58243  -7271850.05342  22145374.806    22145372.266
  23089909.658    -1665429.50553  -1276673.26152  23089911.495    23089907.315
  21377647.911   -16077842.94644 -12478443.72842  21377649.937    21377645.322
  22763976.727    -4932391.80143  -3822671.06742  22763978.141    22763974.989
  20338518.735   -22017545.67244 -17138695.56342  20338520.855    20338517.524
  22809721.403   -12211776.58443  -9255034.01842  22809723.547    22809720.330
  24231937.827    -2851177.66343  -1818792.93242  24231939.360    24231937.505
 03 12 26  2 37  0.0000000  0  9G17G29G30G26G21G10G 6G18G16
  22490567.253   -13511854.68543 -10515408.98042  22490568.755    22490566.719
  23324828.661    -1694672.33743  -1317453.23242  23324830.734    23324827.463
  22163164.684    -9248743.22343  -7198991.85242  22163167.312    22163164.920
  23075380.646    -1741774.98543  -1336163.16442  23075382.630    23075380.073
  21369717.148   -16119519.17844 -12510918.68342  21369719.141    21369714.636
  22781513.690    -4840234.28343  -3750859.99942  22781515.034    22781511.862
  20336167.995   -22029898.81844 -17148321.38042  20336170.091    20336166.834
  22791086.505   -12309703.30343  -9331340.49042  22791088.581    22791085.427
  24217051.492    -2929406.16543  -1879750.15442  24217052.943    24217051.167
 03 12 26  2 37 30.0000000  0  9G17G29G30G26G21G10G 6G18G16
  22502555.207   -13448857.43643 -10466320.18942  22502556.775    22502554.550
  23317224.052    -1734633.24343  -1348591.55042  23317226.033    23317223.181
  22181006.406    -9154984.06143  -7125932.77642  22181008.943    22181006.595
  23060910.179    -1817813.26543  -1395413.74042  23060912.300    23060910.715
  21361827.524   -16160979.57444 -12543225.46242  21361829.455    21361825.047
  22799106.573    -4747783.52543  -3678820.44342  22799107.875    22799104.639
  20333890.359   -22041867.60144 -17157647.68842  20333892.486    20333889.277
  22772498.935   -12407381.29143  -9407453.14742  22772500.988    22772497.923
  24202236.087    -3007261.38343  -1940416.50142  24202237.606    24202235.589
 03 12 26  2 38  0.0000000  0  9G17G29G30G26G21G10G 6G18G16
  22514560.320   -13385769.74743 -10417160.93942  22514561.857    22514559.663
  23309698.541    -1774176.96453  -1379404.82452  23309700.642    23309698.541
  22198896.460    -9060971.66543  -7052676.36742  22198898.842    22198896.420
  23046498.808    -1893542.67243  -1454423.63542  23046501.318    23046499.891
  21353978.527   -16202226.22744 -12575365.67642  21353980.458    21353976.126
  22816754.531    -4655043.98243  -3606555.86342  22816755.843    22816752.496
  20331685.854   -22053452.58544 -17166674.93742  20331687.943    20331684.738
  22753958.908   -12504809.90643  -9483371.50142  22753960.853    22753957.845
  24187491.761    -3084742.52543  -2000791.40242  24187493.394    24187490.864
 03 12 26  2 38 30.0000000  0  9G17G29G30G26G21G10G 6G18G16
  22526582.359   -13322593.79343 -10367932.91242  22526583.738    22526581.551
  23302252.854    -1813302.67743  -1409892.36542  23302254.709    23302253.030
  22216833.872    -8966710.27043  -6979225.92542  22216836.273    22216833.688
  23032147.177    -1968960.88743  -1513191.08642  23032149.910    23032148.370
  21346170.084   -16243259.90944 -12607339.94142  21346172.007    21346167.720
  22834456.528    -4562019.82743  -3534069.48642  22834457.976    22834454.483
  20329554.372   -22064653.53244 -17175402.93642  20329556.463    20329553.245
  22735466.311   -12601988.28243  -9559094.84342  22735468.336    22735465.373
  24172818.808    -3161848.54143  -2060873.94542  24172820.542    24172817.568
 03 12 26  2 39  0.0000000  0  8G17G29G30G21G10G 6G18G16
  22538622.226   -13259324.23043 -10318631.94342  22538623.485    22538621.381
  23294888.255    -1852002.06443  -1440047.69742  23294890.294    23294888.765
  22234819.072    -8872197.13643  -6905579.33642  22234821.543    22234818.963
  21338403.072   -16284075.56144 -12639144.31542  21338405.017    21338400.741
  22852213.043    -4468708.34743  -3461359.23242  22852214.649    22852211.323
  20327497.295   -22075463.45944 -17183826.24542  20327499.362    20327496.179
  22717022.832   -12698909.19843  -9634617.58742  22717024.844    22717021.840
  24158218.731    -3238571.55143  -2120658.05742  24158220.429    24158217.281
 03 12 26  2 39 30.0000000  0  8G17G29G30G21G10G 6G18G16
  22550677.668   -13195972.18443 -10269266.70542  22550678.989    22550676.934
  23287603.547    -1890283.47543  -1469877.34342  23287605.459    23287604.115
  22252849.684    -8777445.43143  -6831746.84442  22252852.280    22252849.660
  21330675.513   -16324683.91244 -12670787.15442  21330677.442    21330673.128
  22870021.758    -4375122.29543  -3388435.03442  22870023.327    22870020.178
  20325512.894   -22085891.29344 -17191951.81742  20325514.955    20325511.784
  22698626.731   -12795580.66543  -9709945.94142  22698628.804    22698625.717
  24143690.258    -3314919.15743  -2180149.64442  24143691.928    24143688.602
 03 12 26  2 40  0.0000000  0  8G17G29G30G21G10G 6G18G16
  22562749.787   -13132532.70443 -10219833.32642  22562751.149    22562749.046
  23280399.559    -1928139.16743  -1499375.27742  23280401.695    23280400.662
  22270926.213    -8682452.77643  -6757726.59242  22270928.901    22270926.232
  21322988.518   -16365079.43144 -12702264.15242  21322990.426    21322986.059
  22887883.026    -4281259.27043  -3315294.99242  22887884.680    22887881.626
  20323602.480   -22095930.22944 -17199774.35742  20323604.591    20323601.417
  22680279.884   -12891994.77643  -9785073.76342  22680281.861    22680278.625
  24129234.515    -3390884.01243  -2239342.97842  24129236.338    24129233.078
 03 12 26  2 40 30.0000000  0  8G17G29G30G21G10G 6G18G16
  22574838.631   -13069005.03243 -10170331.23142  22574840.014    22574837.924
  23273277.935    -1965565.87743  -1528538.92942  23273280.141    23273278.749
  22289048.318    -8587220.81743  -6683519.88342  22289050.969    22289048.264
  21315342.195   -16405261.19444 -12733574.58542  21315344.094    21315339.713
  22905796.877    -4187120.86943  -3241940.38642  22905798.385    22905795.303
  20321766.603   -22105577.86344 -17207291.98542  20321768.671    20321765.518
  22661982.624   -12988148.37543  -9859998.58842  22661984.604    22661981.152
  24114852.614    -3466462.21843  -2298235.05842  24114854.407    24114851.262
 03 12 26  2 41  0.0000000  0  8G17G29G30G21G10G 6G18G16
  22586943.366   -13005395.03743 -10120764.98742  22586944.562    22586942.324
  23266237.549    -2002566.35343  -1557370.40942  23266239.732    23266237.667
  22307214.530    -8491757.41043  -6609132.81042  22307217.142    22307214.323
  21307735.540   -16445234.32144 -12764722.44942  21307737.479    21307733.067
  22923761.891    -4092714.66743  -3168377.10542  22923763.334    22923760.024
  20320004.481   -22114837.70644 -17214507.43642  20320006.581    20320003.420
  22643734.302   -13084044.31943  -9934722.65242  22643736.503    22643732.774
  24100543.637    -3541656.69643  -2356828.11442  24100545.484    24100542.483
 03 12 26  2 41 30.0000000  0  8G17G29G30G21G10G 6G18G16
  22599064.781   -12941697.32143 -10071130.40242  22599065.881    22599063.565
  23259279.428    -2039132.44443  -1585863.38442  23259281.849    23259279.189
  22325425.289    -8396059.74243  -6534563.21042  22325427.836    22325424.995
  21300169.621   -16484993.40544 -12795703.52142  21300171.560    21300167.152
  22941778.490    -3998037.72943  -3094602.86242  22941779.943    22941776.310
  20318317.589   -22123702.56544 -17221415.11142  20318319.664    20318316.478
  22625536.504   -13179674.68643 -10009239.76342  22625538.905    22625534.932
  24086309.263    -3616459.28243  -2415115.77542  24086311.179    24086308.354
 03 12 26  2 42  0.0000000  0  9G17G29G30G26G21G10G 6G18G16
  22611202.418   -12877913.30043 -10021428.56142  22611203.571    22611201.203
  23252404.241    -2075262.96843  -1614016.94742  23252406.909    23252403.012
  22343679.796    -8300131.52943  -6459813.94842  22343682.350    22343679.461
  22933408.737
  21292644.331   -16524539.28744 -12826518.46442  21292646.263    21292641.815
  22959845.866    -3903093.80543  -3020620.59642  22959847.365    22959843.555
  20316705.908   -22132171.95044 -17228014.62342  20316708.026    20316704.801
  22607389.358   -13275038.06043 -10083548.83142  22607391.993    22607387.835
  24072149.831    -3690868.32743  -2473096.81342  24072151.744    24072148.963
 03 12 26  2 42 30.0000000  0  9G17G29G30G26G21G10G 6G18G16
  22623356.124   -12814045.03743  -9971661.07142  22623357.353    22623354.956
  23245611.760    -2110957.28843  -1641830.65142  23245614.644    23245609.963
  22361977.326    -8203977.23143  -6384888.52442  22361979.874    22361976.978
  22919551.760
  21285159.301   -16563873.26444 -12857168.29242  21285161.275    21285156.759
  22977962.935    -3807887.42843  -2946433.78842  22977964.602    22977960.877
  20315169.500   -22140246.11344 -17234306.17142  20315171.604    20315168.315
  22589293.234   -13370134.02343 -10157649.52342  22589295.929    22589291.675
  24058065.317    -3764883.12843  -2530770.62942  24058067.211    24058064.568
 03 12 26  2 43  0.0000000  0  9G17G29G30G26G21G10G 6G18G16
  22635526.410   -12750090.80943  -9921826.60242  22635527.556    22635525.002
  23238903.054    -2146210.94243  -1669301.02242  23238905.636    23238900.914
  22380317.853    -8107597.49043  -6309787.42842  22380320.305    22380317.410
  22905764.574
  21277714.927   -16602993.45844 -12887651.53942  21277716.895    21277712.381
  22996129.775    -3712418.83743  -2872042.68642  22996131.392    22996128.246
  20313709.006   -22147921.38644 -17240286.90042  20313711.087    20313707.783
  22571248.822   -13464958.04943 -10231538.32742  22571251.530    22571247.159
  24044056.891    -3838498.89143  -2588133.51442  24044058.796    24044055.799
 03 12 26  2 43 30.0000000  0  8G17G30G26G21G10G 6G18G16
  22647711.737   -12686056.98443  -9871930.10542  22647712.970    22647710.090
  22398699.495    -8011001.18943  -6234517.58742  22398701.890    22398699.043
  22892042.267
  21270310.111   -16641906.03744 -12917973.00142  21270312.057    21270307.617
  23014344.852    -3616696.77043  -2797454.04742  23014346.469    23014343.688
  20312323.478   -22155202.45844 -17245960.45142  20312325.563    20312322.232
  22553255.416   -13559514.04943 -10305218.27242  22553258.079    22553253.653
  24030123.606    -3911719.60643  -2645188.59942  24030125.454    24030122.054
 03 12 26  2 44  0.0000000  0  9G17G29G30G26G21G10G 6G18G16
  22659913.218   -12621936.88343  -9821966.38742  22659914.686    22659911.706
  23225736.636    -2215398.24153  -1723213.14352  23225738.941    23225734.852
  22417123.153    -7914183.87943  -6159075.52042  22417125.571    22417122.790
  22878387.442    -1756552.49053  -1187299.69152  22878387.741    22878389.044
  21262946.091   -16680603.84344 -12948127.10142  21262948.087    21262943.761
  23032609.334    -3520716.43243  -2722664.15342  23032610.781    23032608.142
  20311014.627   -22162080.62844 -17251320.05242  20311016.705    20311013.352
  22535314.674   -13653792.49343 -10378681.94042  22535317.371    22535312.973
  24016266.936    -3984535.32743  -2701928.03042  24016268.899    24016265.448
 03 12 26  2 44 30.0000000  0  9G17G29G30G26G21G10G 6G18G16
  22672130.795   -12557733.77743  -9771937.98942  22672132.140    22672129.147
  23219280.813    -2249323.33743  -1749648.22542  23219283.377    23219279.370
  22435587.859    -7817151.33243  -6083465.74642  22435590.206    22435587.494
  22864799.524    -1827953.32243  -1242936.66342  22864800.531    22864801.056
  21255622.214   -16719090.26444 -12978116.49742  21255624.232    21255620.041
  23050921.873    -3424483.67243  -2647677.57442  23050923.386    23050920.489
  20309782.166   -22168557.45844 -17256366.93142  20309784.248    20309780.840
  22517426.592   -13747794.21243 -10451929.99142  22517429.247    22517424.921
  24002487.326    -4056946.74343  -2758352.46342  24002489.199    24002485.811
 03 12 26  2 45  0.0000000  0  9G17G29G30G26G21G10G 6G18G16
  22684363.376   -12493450.59443  -9721847.20142  22684364.842    22684361.878
  23212910.041    -2282803.10843  -1775736.30442  23212912.490    23212908.611
  22454092.570    -7719908.89243  -6007692.41742  22454094.845    22454092.135
  22851278.775    -1898998.80143  -1298296.78142  22851281.196    22851281.517
  21248338.338   -16757366.91344 -13007942.43942  21248340.267    21248336.184
  23069281.796    -3328003.37243  -2572498.11042  23069283.163    23069279.879
  20308625.849   -22174634.03844 -17261101.92142  20308627.947    20308624.495
  22499591.173   -13841519.41543 -10524962.57842  22499593.755    22499589.513
  23988784.800    -4128953.98443  -2814461.95742  23988786.661    23988783.089
 03 12 26  2 45 30.0000000  0  9G17G29G30G26G21G10G 6G18G16
  22696611.419   -12429087.00243  -9671693.75242  22696612.842    22696609.885
  23206624.238    -2315834.62243  -1801475.10542  23206626.937    23206623.039
  22472636.836    -7622458.43643  -5931757.00042  22472639.164    22472636.258
  22837828.408    -1969684.38543  -1353376.43242  22837830.724    22837830.646
  21241094.524   -16795433.38544 -13037604.60042  21241096.401    21241092.319
  23087688.221    -3231277.40943  -2497127.22142  23087689.730    23087686.085
  20307546.111   -22180308.04744 -17265523.21942  20307548.219    20307544.740
  22481808.998   -13934965.26443 -10597777.47142  22481811.503    22481807.324
  23975159.792    -4200553.77143  -2870253.96742  23975161.629    23975157.827
 03 12 26  2 46  0.0000000  0  9G17G29G30G26G21G10G 6G18G16
  22708874.465   -12364644.91443  -9621479.14442  22708875.796    22708872.793
  23200424.272    -2348417.53643  -1826864.34442  23200426.767    23200423.057
  22491219.860    -7524804.49043  -5855663.02342  22491222.229    22491219.117
  22824446.319    -2040008.31243  -1408174.28042  22824449.016    22824448.495
  21233890.387   -16833291.54044 -13067104.42542  21233892.253    21233888.117
  23106140.280    -3134310.18543  -2421568.35342  23106141.936    23106138.248
  20306542.904   -22185579.85944 -17269631.11642  20306545.012    20306541.520
  22464080.187   -14028131.24243 -10670374.28942  22464082.573    22464078.402
  23961612.418    -4271745.42343  -2925727.93142  23961614.400    23961610.507
 03 12 26  2 46 30.0000000  0 10G17G29G30G15G26G21G10G 6G18G16
  22721152.770   -12300120.91343  -9571200.68442  22721154.336    22721151.172
  23194310.445    -2380545.57543  -1851899.13442  23194313.149    23194309.666
  22509841.630    -7426946.07843  -5779409.72142  22509844.142    22509840.797
  24571857.249
  22811134.643    -2109963.16943  -1462684.49842  22811137.573    22811135.976
  21226726.447   -16870937.61444 -13096439.00542  21226728.388    21226724.290
  23124638.489    -3037100.63743  -2345820.62842  23124640.179    23124636.692
  20305617.173   -22190444.28944 -17273421.57442  20305619.304    20305615.853
  22446405.744   -14121011.15943 -10742748.20042  22446408.072    22446403.944
  23948143.846    -4342522.69643  -2980878.99342  23948146.022    23948142.083
 03 12 26  2 47  0.0000000  0 10G17G29G30G15G26G21G10G 6G18G16
  22733445.269   -12235523.79943  -9520865.27842  22733446.688    22733443.500
  23188282.105    -2412225.39743  -1876584.65042  23188284.568    23188281.423
  22528500.269    -7328894.42243  -5703005.84042  22528502.774    22528499.319
  24556575.326
  22797892.173    -2179553.82143  -1516910.90642  22797895.229    22797892.331
  21219601.353   -16908380.27344 -13125615.07942  21219603.268    21219599.184
  23143180.673    -2939660.03443  -2269892.87742  23143182.250    23143179.299
  20304767.678   -22194908.28144 -17276900.00042  20304769.789    20304766.405
  22428784.575   -14213611.13243 -10814903.96342  22428786.908    22428782.793
  23934753.263    -4412891.91643  -3035712.10742  23934755.292    23934751.297
 03 12 26  2 47 30.0000000  0  9G17G30G15G26G21G10G 6G18G16
  22745753.735   -12170842.21443  -9470464.05342  22745755.157    22745751.954
  22547197.327    -7230640.68143  -5626444.48942  22547199.844    22547196.300
  24541306.460    -1532321.73353  -1145917.44852  24541307.318    24541310.387
  22784721.194    -2248765.20643  -1570841.78942  22784724.458    22784721.478
  21212517.230   -16945607.39444 -13154623.19742  21212519.167    21212515.111
  23161768.785    -2841978.97043  -2193777.73842  23161770.227    23161767.693
  20303996.866   -22198958.84144 -17280056.27442  20303999.004    20303995.621
  22411219.412   -14305917.26943 -10886830.77642  22411221.736    22411217.569
  23921442.619    -4482838.95043  -3090216.24542  23921444.755    23921440.723
 03 12 26  2 48  0.0000000  0  9G17G30G15G26G21G10G 6G18G16
  22758077.812   -12106078.07443  -9419998.48542  22758079.358    22758076.233
  22565932.105    -7132189.15143  -5549729.00642  22565934.621    22565930.956
  24526053.381    -1612463.55643  -1208365.51842  24526055.765    24526056.480
  22771623.212    -2317595.05443  -1624475.39642  22771626.138    22771623.534
  21205473.796   -16982620.67244 -13183464.68842  21205475.806    21205471.705
  23180402.006    -2744061.58543  -2117478.48442  23180403.206    23180400.971
  20303304.718   -22202596.07244 -17282890.47242  20303306.890    20303303.478
  22393710.195   -14397928.85643 -10958528.06642  22393712.549    22393708.442
  23908212.504    -4552362.83443  -3144390.64642  23908214.589    23908210.413
 03 12 26  2 48 30.0000000  0  9G17G30G15G26G21G10G 6G18G16
  22770415.663   -12041243.22843  -9369477.83642  22770417.071    22770414.007
  22584701.863    -7033554.06943  -5472870.50842  22584704.392    22584700.511
  24510817.979    -1692526.42043  -1270752.07242  24510820.104    24510819.748
  22758596.080    -2386051.49343  -1677818.04242  22758598.680    22758596.983
  21198468.846   -17019431.65444 -13212148.54242  21198470.878    21198466.782
  23199077.411    -2645922.00143  -2041006.07142  23199078.706    23199076.347
  20302689.303   -22205830.31744 -17285410.65442  20302691.470    20302688.001
  22376255.171   -14489655.46543 -11030003.29242  22376257.452    22376253.545
  23895061.155    -4621472.90043  -3198242.58242  23895063.264    23895058.892
 03 12 26  2 49  0.0000000  0  9G17G30G15G26G21G10G 6G18G16
  22782768.719   -11976327.52843  -9318894.17742  22782770.117    22782767.175
  22603507.952    -6934727.73943  -5395862.97742  22603510.514    22603506.512
  24495599.493    -1772499.36043  -1333068.53242  24495601.576    24495600.433
  22745643.259    -2454120.29343  -1730858.63142  22745645.773    22745644.041
  21191504.380   -17056029.97444 -13240666.69042  21191506.432    21191502.298
  23217796.505    -2547552.16343  -1964354.24342  23217797.976    23217795.601
  20302152.802   -22208649.68944 -17287607.55742  20302154.967    20302151.492
  22358856.732   -14581084.39943 -11101246.56642  22358858.950    22358855.291
  23881991.362    -4690156.13743  -3251761.98142  23881993.337    23881988.697
 03 12 26  2 49 30.0000000  0  9G17G30G15G26G21G10G 6G18G16
  22795136.606   -11911333.69043  -9268249.62542  22795138.101    22795135.180
  22622349.343    -6835715.47843  -5318710.57042  22622351.950    22622347.848
  24480397.717    -1852384.67243  -1395316.66342  24480400.200    24480398.110
  22732764.216    -2521800.73143  -1783596.59342  22732766.896    22732765.216
  21184579.856   -17092418.01444 -13269020.98342  21184581.953    21184577.797
  23236558.417    -2448957.32543  -1887527.08442  23236560.002    23236557.334
  20301694.984   -22211055.40444 -17289482.13642  20301697.179    20301693.681
  22341514.782   -14672216.28043 -11172258.36942  22341516.965    22341513.488
  23869002.494    -4758412.72943  -3304948.88842  23869004.548    23868999.702
 03 12 26  2 50  0.0000000  0  9G17G30G15G26G21G10G 6G18G16
  22807518.683   -11846266.06243  -9217547.57042  22807520.115    22807517.128
  22641224.851    -6736524.11343  -5241418.60242  22641227.516    22641223.360
  24465212.058    -1932186.21143  -1457499.60542  24465214.337    24465211.901
  22719958.957    -2589093.15343  -1836032.20942  22719961.886    22719960.176
  21177694.707   -17128599.83144 -13297214.58042  21177696.728    21177692.590
  23255361.735    -2350144.08443  -1810529.76742  23255363.430    23255360.725
  20301315.441   -22213050.01944 -17291036.37342  20301317.607    20301314.089
  22324229.171   -14763052.66043 -11243039.92542  22324231.252    22324227.888
  23856094.402    -4826244.66443  -3357804.90242  23856096.673    23856091.509
 03 12 26  2 50 30.0000000  0  9G17G30G15G26G21G10G 6G18G16
  22819915.717   -11781119.74543  -9166784.21542  22819917.058    22819914.074
  22660135.012    -6637151.13343  -5163985.10942  22660137.617    22660133.431
  24450043.137    -2011898.39443  -1519612.87342  24450045.561    24450042.723
  22707229.460    -2655988.83043  -1888158.66342  22707232.368    22707230.437
  21170849.759   -17164570.10544 -13325243.34542  21170851.761    21170847.627
  23274207.330    -2251109.67543  -1733360.08442  23274208.862    23274206.223
  20301015.322   -22214626.99044 -17292265.17742  20301017.541    20301013.973
  22307001.144   -14853586.04943 -11313585.38842  22307003.182    22306999.920
  23843268.468    -4893644.26243  -3410324.02042  23843270.876    23843265.734
 03 12 26  2 51  0.0000000  0  9G17G30G15G26G21G10G 6G18G16
  22832326.583   -11715899.63043  -9115963.33642  22832328.018    22832325.059
  22679078.207    -6537603.92943  -5086415.85842  22679080.819    22679076.715
  24434890.418    -2091525.53643  -1581659.87242  24434892.723    24434889.793
  22694574.952    -2722488.85743  -1939976.80842  22694578.038    22694575.970
  21164044.114   -17200333.58244 -13353110.96842  21164046.106    21164042.047
  23293093.621    -2151861.32243  -1656023.71042  23293095.101    23293092.438
  20300794.052   -22215789.68244 -17293171.16342  20300796.272    20300792.691
  22289830.306   -14943818.80843 -11383896.58242  22289832.315    22289829.137
  23830524.495    -4960613.76143  -3462507.99242  23830526.878    23830521.990
 03 12 26  2 51 30.0000000  0 10G17G29G30G15G26G21G10G 6G18G16
  22844751.138   -11650606.64143  -9065085.66842  22844752.671    22844749.882
  23137988.900
  22698053.994    -6437886.07043  -5008713.62742  22698056.611    22698052.387
  24419754.574    -2171068.13643                                  24419756.313
  22681996.289    -2788590.55043  -1991484.57842  22681999.335    22681997.200
  21157277.890   -17235890.77844 -13380817.85842  21157279.818    21157275.724
  23312020.112    -2052402.44543  -1578523.28642  23312021.465    23312018.817
  20300651.778   -22216537.38644 -17293753.78242  20300653.985    20300650.381
  22272717.051   -15033749.57343 -11453972.46042  22272718.978    22272715.777
  23817862.577    -5027151.78043  -3514355.74742  23817864.973    23817860.478
 03 12 26  2 52  0.0000000  0 10G17G29G30G15G26G21G10G 6G18G16
  22857191.615   -11585232.10443  -9014144.45942  22857192.877    22857190.273
  23132847.694    -1241160.58953   -962256.47152  23132848.274    23132845.048
  22717063.388    -6337991.37843  -4930873.61142  22717066.024    22717061.683
  24404635.450    -2250517.07043  -1705549.21242  24404638.040    24404634.308
  22669495.880    -2854281.38443  -2042672.22742  22669498.769    22669496.459
  21150552.473   -17271232.76344 -13408357.04742  21150554.447    21150550.397
  23330987.904    -1952726.59743  -1500853.79642  23330989.257    23330986.731
  20300590.430   -22216859.85444 -17294005.05142  20300592.625    20300589.022
  22255663.222   -15123367.73143 -11523804.74642  22255665.131    22255661.916
  23805284.847    -5093247.03343  -3565858.50342  23805287.220    23805283.096
 03 12 26  2 52 30.0000000  0 10G17G29G30G15G26G21G10G 6G18G16
  22869644.800   -11519790.04043  -8963150.64042  22869645.996    22869643.500
  23127795.201    -1267711.00343   -982945.09042  23127796.803    23127791.315
  22736103.180    -6237936.36043  -4852908.65242  22736105.864    22736101.449
  24389532.212    -2329885.63043  -1767394.67842  24389535.009    24389531.282
  22657071.403    -2919571.66543  -2093547.73942  22657074.391    22657071.974
  21143865.527   -17306373.11344 -13435739.11342  21143867.469    21143863.486
  23349993.664    -1852849.94243  -1423027.79842  23349995.195    23349992.774
  20300607.584   -22216769.65244 -17293934.76142  20300609.816    20300606.200
  22238666.668   -15212684.58243 -11593402.24842  22238668.636    22238665.432
  23792789.481    -5158911.09343  -3617025.25542  23792791.670    23792787.710
 03 12 26  2 53  0.0000000  0 10G17G29G30G15G26G21G10G 6G18G16
  22882112.400   -11454272.36943  -8912097.90542  22882113.588    22882111.102
  23122833.422    -1293782.67543  -1003260.68042  23122835.702    23122830.224
  22755174.549    -6137715.19743  -4774814.23642  22755177.316    22755172.891
  24374445.731    -2409164.99243  -1829170.72542  24374448.533    24374444.984
  22644725.155    -2984449.32743  -2144101.72942  22644728.058    22644725.937
  21137218.336   -17341304.14444 -13462958.08042  21137220.350    21137216.382
  23369038.860    -1752766.48443  -1345040.68142  23369040.451    23369038.030
  20300705.224   -22216256.90144 -17293535.20542  20300707.414    20300703.762
  22221729.540   -15301689.40643 -11662756.60842  22221731.493    22221728.287
  23780378.223    -5224133.17343  -3667847.61942  23780380.336    23780376.422
 03 12 26  2 53 30.0000000  0 10G17G29G30G15G26G21G10G 6G18G16
  22894593.740   -11388682.68043  -8860989.04642  22894594.931    22894592.393
  23117963.159    -1319377.19343  -1023204.41642  23117965.592    23117959.931
  22774276.300    -6037334.34043  -4696595.39342  22774279.092    22774274.764
  24359375.619    -2488358.78143  -1890880.08342  24359378.269    24359374.805
  22632457.579    -3048914.70543  -2194334.43942  22632460.224    22632458.347
  21130610.493   -17376028.88544 -13490016.29942  21130612.521    21130608.514
  23388122.213    -1652482.75543  -1266897.50742  23388123.674    23388121.362
  20300882.795   -22215323.95744 -17292808.23142  20300884.952    20300881.256
  22204851.543   -15390384.13643 -11731869.33942  22204853.478    22204850.178
  23768050.766    -5288914.56643  -3718326.58942  23768052.851    23768048.993
 03 12 26  2 54  0.0000000  0 10G17G29G30G15G26G21G10G 6G18G16
  22907089.031   -11323018.51843  -8809822.14742  22907090.359    22907087.811
  23113184.570    -1344489.80943  -1042772.61142  23113186.971    23113181.416
  22793408.500    -5936793.66543  -4618252.00342  22793411.257    22793407.093
  24344322.385    -2567463.62643  -1952520.11542  24344325.021    24344321.570
  22620269.778    -3112961.38543  -2244240.86242  22620272.391    22620269.858
  21124042.477   -17410544.21344 -13516911.34142  21124044.524    21124040.413
  23407243.646    -1551998.00343  -1188597.68342  23407245.020    23407242.780
  20301141.027   -22213966.62744 -17291750.57042  20301143.241    20301139.502
  22188033.420   -15478763.34443 -11800736.20842  22188035.517    22188032.127
  23755808.299    -5353250.13243  -3768458.15842  23755810.356    23755806.304
 03 12 26  2 54 30.0000000  0 10G17G29G30G15G26G21G10G 6G18G16
  22919597.932   -11257283.47943  -8758600.03942  22919599.282    22919596.703
  23108497.136    -1369122.13343  -1061966.60642  23108499.670    23108494.376
  22812569.851    -5836099.49143  -4539789.01642  22812572.595    22812568.695
  24329285.493    -2646483.03343  -2014093.56542  24329287.958    24329284.646
  22608161.958    -3176589.52743  -2293821.16142  22608164.436    22608161.202
  21117513.537   -17444853.80644 -13543646.06342  21117515.621    21117511.478
  23426401.968    -1451318.46343  -1110146.06142  23426403.428    23426401.216
  20301479.640   -22212187.20144 -17290363.99742  20301481.825    20301478.096
  22171275.142   -15566828.49843 -11869358.35042  22171277.246    22171273.926
  23743650.332    -5417141.09343  -3818243.30742  23743652.571    23743648.195
 03 12 26  2 55  0.0000000  0 10G17G29G30G15G26G21G10G 6G18G16
  22932120.532   -11191477.18043  -8707322.39842  22932121.834    22932119.141
  23103901.794    -1393271.50643  -1080784.30842  23103904.102    23103898.937
  22831760.135    -5735253.63843  -4461207.83442  22831762.774    22831759.131
  24314265.175    -2725415.57143  -2075599.33442  24314267.449    24314264.091
  22596134.234    -3239794.77643  -2343071.93742  22596136.660    22596132.669
  21111023.964   -17478956.78144 -13570219.79742  21111026.034    21111021.867
  23445597.351    -1350445.51443  -1031543.75642  23445598.689    23445596.411
  20301898.932   -22209983.60844 -17288646.90942  20301901.121    20301897.399
  22154577.176   -15654576.70443 -11937733.53342  22154579.295    22154575.992
  23731577.560    -5480584.71743  -3867679.85442  23731579.850    23731575.291
 03 12 26  2 55 30.0000000  0 10G17G29G30G15G26G21G10G 6G18G16
  22944656.687   -11125600.33843  -8655989.80242  22944657.801    22944654.942
  23099398.826    -1416936.71243  -1099224.72642  23099401.048    23099395.920
  22850978.483    -5634259.51643  -4382511.11842  22850981.149    22850977.740
  24299261.170    -2804261.54743  -2137037.67242  24299263.354    24299260.572
  22584187.515    -3302574.43943  -2391991.04642  22584189.933    22584185.717
  21104573.572   -17512853.89744 -13596633.11142  21104575.640    21104571.419
  23464829.204    -1249382.43743   -952793.29842  23464830.386    23464827.899
  20302399.013   -22207355.30344 -17286598.87742  20302401.204    20302397.522
  22137939.849   -15742006.46343 -12005860.56842  22137941.988    22137938.650
  23719590.143    -5543579.36343  -3916766.57442  23719592.466    23719587.869
 03 12 26  2 56  0.0000000  0 10G17G29G30G15G26G21G10G 6G18G16
  22957206.517   -11059650.58943  -8604600.38142  22957207.715    22957204.658
  23094988.581    -1440113.61743  -1117284.63442  23094990.932    23094985.637
  22870225.099    -5533117.50743  -4303699.16942  22870227.642    22870224.497
  24284273.910    -2883018.47743  -2198406.59242  24284275.934    24284274.144
  22572322.800    -3364922.71043  -2440574.03842  22572325.446    22572322.055
  21098162.801   -17546542.79044 -13622884.17342  21098164.879    21098160.550
  23484097.229    -1148129.37143   -873894.77642  23484098.306    23484095.608
  20302980.617   -22204298.67944 -17284217.08942  20302982.770    20302979.133
  22121363.798   -15829113.62743 -12073736.23542  22121365.988    22121362.642
  23707688.845    -5606120.44043  -3965499.83142  23707691.211    23707686.802
 03 12 26  2 56 30.0000000  0 10G17G29G30G15G26G21G10G 6G18G16
  22969769.235   -10993632.34543  -8553157.59242  22969770.648    22969767.462
  23090670.650    -1462804.12743  -1134965.51942  23090673.228    23090667.774
  22889498.373    -5431834.21143  -4224777.12442  22889500.949    22889498.093
  24269303.205    -2961689.95143  -2259708.92842  24269305.024    24269303.679
  22560540.316    -3426839.97543  -2488821.24042  22560542.886    22560540.382
  21091790.937   -17580027.07644 -13648975.80742  21091792.977    21091788.619
  23503399.936    -1046692.77643   -794853.30042  23503401.191    23503398.761
  20303643.217   -22200816.41944 -17281503.64042  20303645.344    20303641.745
  22104848.859   -15915899.64343 -12141361.66742  22104851.057    22104847.716
  23695873.488    -5668209.67343  -4013881.01742  23695875.840    23695871.675
 03 12 26  2 57  0.0000000  0 10G17G29G30G15G26G21G10G 6G18G16
  22982346.117   -10927540.57043  -8501657.50342  22982347.452    22982344.281
  23086445.964                    -1152262.25842                  23086443.087
  22908799.167    -5330407.27743  -4145743.15642  22908801.595    22908799.115
  24254349.918    -3040270.76643  -2320940.64042  24254351.651    24254350.401
  22548841.452    -3488317.90643  -2536726.13242  22548844.155    22548841.839
  21085458.955   -17613301.78644 -13674904.13342  21085460.964    21085456.584
  23522738.054     -945069.90643   -715666.62642  23522739.484    23522737.396
  20304388.041   -22196902.24244 -17278453.62942  20304390.128    20304386.609
  22088396.478   -16002357.62443 -12208731.48742  22088398.567    22088395.216
  23684145.547    -5729839.86243  -4061904.51642  23684147.760    23684143.852
 03 12 26  2 57 30.0000000  0 10G17G29G30G15G26G21G10G 6G18G16
  22994936.179   -10861379.55643  -8450103.47642  22994937.404    22994934.389
  23082314.675    -1506708.30853  -1169176.54252  23082317.776    23082311.697
  22928126.032    -5228843.79743  -4066602.78642  22928128.396    22928126.204
  24239412.679    -3118764.88443  -2382104.79942  24239414.487    24239413.589
  22537225.566    -3549357.40143  -2584289.38042  22537228.462    22537226.456
  21079166.133   -17646371.00644 -13700672.33842  21079168.079    21079163.640
  23542110.181     -843267.65943   -636340.18142  23542111.751    23542110.079
  20305214.477   -22192559.17444 -17275069.41442  20305216.557    20305213.097
  22072006.037   -16088489.65143 -12275847.31442  22072008.082    22072004.804
  23672504.683    -5791013.02543  -4109571.86842  23672506.803    23672503.011
 03 12 26  2 58  0.0000000  0 10G17G29G30G15G26G21G10G 6G18G16
  23007538.881   -10795152.55343  -8398498.02442  23007539.961    23007536.955
  23078276.820    -1527925.43543  -1185709.30442  23078279.822    23078273.414
  22947478.018    -5127149.10243  -3987360.17542  22947480.216    22947478.100
  24224491.797    -3197174.69743  -2443203.28842  24224493.317    24224492.959
  22525692.911    -3609957.79543  -2631510.42742  22525695.816    22525694.377
  21072911.764   -17679237.88044 -13726282.87142  21072913.681    21072909.209
  23561515.591     -741291.14043   -556877.96142  23561517.001    23561515.686
  20306122.210   -22187788.72044 -17271352.17642  20306124.320    20306120.931
  22055677.513   -16174296.39443 -12342709.67142  22055679.519    22055676.254
  23660950.648    -5851729.86643  -4156883.66142  23660952.845    23660948.891
 03 12 26  2 58 30.0000000  0 10G17G29G30G15G26G21G10G 6G18G16
  23020155.110   -10728853.05743  -8346836.08042  23020156.210    23020153.297
  23074334.190    -1548644.77043  -1201854.23842  23074336.835    23074330.853
  22966855.562    -5025319.53143  -3908012.46742  22966857.772    22966855.713
  24209587.961    -3275493.67143  -2504230.93942  24209589.163    24209589.564
  22514246.060    -3670109.17453  -2678381.63152  22514248.499    22514247.566
  21066697.286   -17711895.11044 -13751730.04842  21066699.228    21066694.646
  23580954.997     -639136.22443   -477276.73342  23580956.328    23580955.175
  20307112.809   -22182583.23244 -17267295.95042  20307114.894    20307111.575
  22039412.512   -16259769.64543 -12409312.17042  22039414.469    22039411.140
  23649485.156    -5911981.98843  -4203833.33342  23649487.288    23649483.257
 03 12 26  2 59  0.0000000  0 10G17G29G30G15G26G21G10G 6G18G16
  23032783.903   -10662487.72943  -8295122.83542  23032785.044    23032782.268
  23070485.335    -1568871.29943  -1217615.14642  23070487.939    23070482.597
  22986256.965    -4923364.50843  -3828566.98442  22986259.185    22986257.037
  24194699.986    -3353728.07443  -2565192.70742  24194701.284    24194702.359
  22502885.256    -3729815.04243  -2724905.65742  22502887.445    22502885.964
  21060521.366   -17744349.65744 -13777019.28542  21060523.322    21060518.698
  23600426.948     -536812.20543   -397543.73142  23600428.039    23600426.619
  20308185.093   -22176948.28344 -17262905.07542  20308187.177    20308183.945
  22023210.109   -16344913.93443 -12475658.33942  22023212.065    22023208.669
  23638107.200    -5971773.92343  -4250424.43542  23638109.308    23638105.224
 03 12 26  2 59 30.0000000  0 10G17G29G30G15G26G21G10G 6G18G16
  23045425.366   -10596056.20043  -8243357.99542  23045426.540    23045423.854
  23066730.452    -1588602.44943  -1232990.05142  23066732.737    23066728.545
  23005681.974    -4821286.09343  -3749025.37142  23005684.108    23005681.737
  24179829.032    -3431877.05443  -2626087.94442  24179829.798    24179830.994
  22491609.222    -3789071.27043  -2771079.31042  22491611.898    22491610.251
  21054384.102   -17776600.82444 -13802150.05142  21054386.077    21054381.463
  23619930.450     -434320.78543   -317680.29042  23619931.673    23619929.867
  20309339.539   -22170881.91244 -17258178.02942  20309341.584    20309338.388
  22007070.869   -16429726.44043 -12541745.97142  22007072.755    22007069.358
  23626817.381    -6031102.71343  -4296654.62942  23626819.571    23626815.184
 03 12 26  3  0  0.0000000  0 10G17G29G30G15G26G21G10G 6G18G16
  23058080.543   -10529552.82843  -8191537.18242  23058081.750    23058079.056
  23063071.487    -1607830.73043  -1247973.14742  23063073.274    23063070.045
  23025131.066    -4719081.00243  -3669385.04542  23025133.174    23025130.588
  24164974.827    -3509934.27043  -2686911.65142  24164975.620    24164977.133
  22480420.764    -3847868.66743  -2816895.42342  22480423.209    22480421.788
  21048286.722   -17808642.60844 -13827117.65842  21048288.646    21048284.161
  23639466.292     -331658.30943   -237683.60342  23639467.686    23639465.849
  20310577.307   -22164377.28144 -17253109.48042  20310579.340    20310576.207
  21990996.224   -16514199.31743 -12607568.95942  21990998.058    21990994.666
  23615617.070    -6089960.38943  -4342517.72642  23615619.251    23615614.750
 03 12 26  3  0 30.0000000  0 10G17G29G30G15G26G21G10G 6G18G16
  23070747.936   -10462984.79743  -8139666.00042  23070749.167    23070746.617
  23059506.364    -1626561.97043  -1262568.92842  23059508.522    23059506.143
  23044602.367    -4616759.31043  -3589653.85042  23044604.558    23044601.617
  24150136.841    -3587906.81643  -2747669.42142  24150137.781    24150139.327
  22469318.883    -3906211.31743  -2862357.20142  22469321.200    22469319.941
  21042227.757   -17840482.51044 -13851927.95042  21042229.669    21042225.253
  23659033.145     -228834.73343   -157561.33242  23659034.472    23659032.515
  20311897.317   -22157440.57244 -17247704.24742  20311899.329    20311896.233
  21974985.068   -16598337.71643 -12673131.31342  21974986.994    21974983.582
  23604505.323    -6148352.34643  -4388017.93842  23604507.501    23604503.058
 03 12 26  3  1  0.0000000  0 10G17G29G30G15G26G21G10G 6G18G16
  23083428.247   -10396348.76243  -8087741.82442  23083429.477    23083427.070
  23056037.193    -1644790.82043  -1276773.15842  23056039.336    23056037.573
  23064096.070    -4514320.05343  -3509831.05542  23064098.418    23064095.130
  24135316.708    -3665790.69843  -2808358.06342  24135317.442    24135318.450
  22458304.841    -3964092.30143  -2907459.22642  22458307.185    22458305.762
  21036208.105   -17872116.47344 -13876577.77642  21036209.976    21036205.558
  23678630.516     -125848.76443    -77312.53342  23678632.092    23678630.335
  20313300.490   -22150066.89944 -17241958.52842  20313302.509    20313299.457
  21959038.886   -16682136.07543 -12738428.70442  21959040.730    21959037.225
  23593483.398    -6206272.79543  -4433150.71942  23593485.550    23593481.174
 03 12 26  3  1 30.0000000  0 10G17G29G30G15G26G21G10G 6G18G16
  23096121.228   -10329645.94043  -8035765.60442  23096122.443    23096120.198
  23052664.074    -1662516.83153  -1290585.55252  23052665.909    23052664.405
  23083611.495    -4411767.27143  -3429919.81042  23083613.901    23083610.317
  24120512.819    -3743586.93243  -2868978.40242  24120513.848    24120514.369
  22447378.677    -4021509.56843  -2952199.92342  22447380.942    22447379.693
  21030227.301   -17903545.89044 -13901068.22242  21030229.192    21030224.815
  23698258.403      -22704.10443      3059.93142  23698259.737    23698258.332
  20314786.813   -22142256.43244 -17235872.44642  20314788.860    20314785.764
  21943157.452   -16765593.84243 -12803460.69742  21943159.252    21943155.593
  23582551.393    -6263720.97043  -4477915.51942  23582553.521    23582549.069
 03 12 26  3  2  0.0000000  0 10G17G29G30G15G26G21G10G 6G18G16
  23108826.873   -10262877.06343  -7983737.91342  23108828.137    23108825.996
  23049386.877    -1679739.08443  -1304005.45642  23049388.995    23049387.165
  23103147.715    -4309103.98943  -3349922.44942  23103150.302    23103146.581
  24105725.186    -3821295.64443  -2929530.54442  24105726.822    24105726.942
  22436540.608    -4078460.26843  -2996577.05642  22436542.872    22436542.196
  21024285.261   -17934771.01744 -13925399.46942  21024287.228    21024282.969
  23717915.711       80596.63743     83554.03542  23717917.022    23717916.000
  20316356.428   -22134008.48844 -17229445.47642  20316358.479    20316355.275
  21927341.035   -16848709.27943 -12868225.93642  21927342.882    21927339.183
  23571709.480    -6320695.55143  -4522311.25742  23571711.578    23571707.144
 03 12 26  3  2 30.0000000  0 10G17G29G30G15G26G21G10G 6G18G16
  23121545.286   -10196041.65643  -7931658.37042  23121546.550    23121544.415
  23046205.864    -1696455.08353  -1317030.92152  23046208.111    23046206.086
  23122704.586    -4206332.47043  -3269840.75642  23122707.236    23122703.530
  24090954.165    -3898915.99943  -2990013.83842  24090956.221    24090956.258
  22425792.643    -4134940.69343  -3040587.81242  22425794.972    22425793.393
  21018382.313   -17965791.26344 -13949571.07742  21018384.254    21018380.057
  23737602.459      184051.42943    164168.14642  23737603.728    23737602.966
  20318009.545   -22125321.39344 -17222676.31142  20318011.659    20318008.312
  21911590.211   -16931480.06343 -12932722.61542  21911592.120    21911588.359
  23560958.135    -6377193.56943  -4566335.65642  23560960.240    23560955.901
 03 12 26  3  3  0.0000000  0 10G17G29G30G15G26G21G10G 6G18G16
  23134276.036   -10129140.96643  -7879527.98742  23134277.340    23134275.339
  23043121.414    -1712664.70143  -1329661.79542  23043123.865    23043121.906
  23142281.332    -4103456.37143  -3189677.56642  23142283.986    23142280.423
  24076200.082    -3976448.85943  -3050428.95442  24076202.308    24076202.003
  22415135.374    -4190948.61443  -3084230.29042  22415137.666    22415134.887
  21012518.073   -17996607.88844 -13973584.01342  21012519.983    21012515.819
  23757318.305      287656.82043    244899.61642  23757319.359    23757318.542
  20319746.202   -22116195.10344 -17215564.91642  20319748.353    20319744.961
  21895905.285   -17013904.85343 -12996949.68942  21895907.261    21895903.386
  23550297.540    -6433214.32243  -4609988.15442  23550299.626    23550295.505
 03 12 26  3  3 30.0000000  0 10G17G29G30G15G26G21G10G 6G18G16
  23147019.273   -10062174.96643  -7827346.69042  23147020.611    23147018.699
  23040133.312    -1728366.40343  -1341896.86242  23040136.179    23040133.945
  23161877.365    -4000478.57443  -3109435.13542  23161880.096    23161876.668
  24061462.869    -4053894.10943  -3110775.80342  24061465.139    24061464.347
  22404568.317    -4246480.90743  -3127502.17842  22404570.981    22404567.148
  21006692.710   -18027220.16244 -13997437.71342  21006694.595    21006690.406
  23777061.878      391410.27043    325746.46942  23777063.129    23777062.058
  20321566.570   -22106628.72944 -17208110.60242  20321568.735    20321565.404
  21880286.413   -17095982.45743 -13060906.23042  21880288.456    21880284.535
  23539728.312    -6488756.26443  -4653267.56542  23539730.247    23539726.241
 03 12 26  3  4  0.0000000  0 10G17G29G30G15G26G21G10G 6G18G16
  23159774.604    -9995145.27143  -7775115.76242  23159775.968    23159774.173
  23037241.939    -1743560.21443  -1353736.12442  23037244.686    23037242.368
  23181492.003    -3897403.16043  -3029116.63942  23181494.775    23181491.410
  24046741.992    -4131252.87343  -3171055.26042  24046744.525    24046743.293
  22394091.833    -4301536.00543  -3170402.24442  22394094.742    22394090.499
  21000905.917   -18057629.98944 -14021133.66442  21000907.766    21000903.581
  23796832.964      495308.12943    406705.83542  23796834.331    23796832.723
  20323470.667   -22096622.75444 -17200313.73842  20323472.816    20323469.540
  21864733.881   -17177712.08643 -13124591.62442  21864735.877    21864731.828
  23529250.281    -6543818.39443  -4696173.09942  23529252.260    23529248.346
 03 12 26  3  4 30.0000000  0 10G17G29G30G15G26G21G10G 6G18G16
  23172543.149    -9928047.07343  -7722831.44542  23172544.429    23172542.547
  23034448.597    -1758239.47043  -1365174.47542  23034451.233    23034448.795
  23201125.662    -3794227.86843  -2948720.30842  23201128.417    23201125.127
  24032038.516    -4208519.76743  -3231263.13742  24032041.181    24032039.799
  22383707.594    -4356105.63443  -3212924.01042  22383710.507    22383706.537
  20995158.504   -18087832.60344 -14044668.15542  20995160.352    20995156.184
  23816632.047      599353.08143    487779.82642  23816633.368    23816631.388
  20325459.527   -22086171.08344 -17192169.57442  20325461.698    20325458.499
  21849248.705   -17259086.92943 -13188000.56342  21849250.808    21849246.667
  23518864.942    -6598393.99143  -4738699.50542  23518866.986    23518863.045
 03 12 26  3  5  0.0000000  0 10G17G29G30G15G26G21G10G 6G18G16
  23185322.948    -9860889.19743  -7670500.63442  23185324.222    23185322.265
  23031752.089    -1772411.72243  -1376217.73942  23031754.444    23031751.765
  23220776.052    -3690964.17043  -2868255.10042  23220778.804    23220775.528
  24017350.945    -4285703.46443  -3291406.18642  24017353.607    24017352.102
  22373414.500    -4410195.42243  -3255071.81642  22373417.443    22373413.777
  20989448.876   -18117836.33244 -14068047.66342  20989450.745    20989446.706
  23836456.296      703533.80643    568959.61242  23836458.167    23836456.148
  20327531.656   -22075281.49144 -17183684.17342  20327533.878    20327530.752
  21833829.770   -17340113.72143 -13251138.29142  21833831.901    21833827.671
  23508570.845    -6652489.95743  -4780852.19242  23508572.915    23508568.907
 03 12 26  3  5 30.0000000  0 10G17G29G30G15G26G21G10G 6G18G16
  23198115.250    -9793665.40543  -7618118.46042  23198116.532    23198114.465
  23029153.517    -1786069.20343  -1386859.90342  23029155.686    23029152.770
  23240443.818    -3587608.48343  -2787718.20242  23240446.602    23240443.319
  24002680.312    -4362797.45943  -3351479.32242  24002683.077    24002681.499
  22363214.487    -4463795.95143  -3296838.43242  22363217.126    22363213.992
  20983778.421   -18147634.74444 -14091267.19342  20983780.224    20983776.311
  23856307.931      807854.44643    650248.42642  23856309.461    23856307.582
  20329688.623   -22063946.59444 -17174851.78442  20329690.798    20329687.723
  21818478.678   -17420784.25443 -13313998.41642  21818480.770    21818476.472
  23498369.441    -6706098.27143  -4822624.88442  23498371.448    23498367.427
 03 12 26  3  6  0.0000000  0 10G17G29G30G15G26G21G10G 6G18G16
  23210920.077    -9726375.87943  -7565685.07542  23210921.310    23210919.239
  23026652.680    -1799210.48743  -1397099.85242  23026654.984    23026652.142
  23260128.629    -3484163.53743  -2707111.75442  23260131.321    23260128.195
  23988026.833    -4439801.45243  -3411482.34042  23988029.687    23988027.915
  22353107.888    -4516904.29643  -3338221.53542  22353110.576    22353107.835
  20978147.084   -18177227.89544 -14114326.77942  20978148.858    20978144.993
  23876185.642      912312.56043    731644.35042  23876187.022    23876185.579
  20331930.481   -22052165.77644 -17165671.92642  20331932.626    20331929.475
  21803195.733   -17501097.01943 -13376579.76342  21803197.806    21803193.388
  23488261.212    -6759217.10143  -4864016.16242  23488263.232    23488259.113
 03 12 26  3  6 30.0000000  0 10G17G29G30G15G26G21G10G 6G18G16
  23223736.380    -9659025.60243  -7513204.33542  23223737.620    23223735.547
  23024249.410    -1811839.28743  -1406940.47142  23024251.811    23024249.201
  23279829.040    -3380636.94443  -2626441.70242  23279831.703    23279828.660
  23973389.619    -4516720.21143  -3471418.94642  23973392.485    23973390.607
  22343095.203    -4569522.17143  -3379222.45442  22343097.786    22343095.084
  20972553.815   -18206620.52144 -14137230.10842  20972555.617    20972551.846
  23896088.369     1016900.58443    813141.52642  23896089.454    23896088.270
  20334256.499   -22039942.76144 -17156147.49842  20334258.640    20334255.318
  21787980.247   -17581054.92843 -13438884.59642  21787982.348    21787977.856
  23478245.588    -6811849.36443  -4905028.30042  23478247.632    23478243.365
 03 12 26  3  7  0.0000000  0 10G17G29G30G15G26G21G10G 6G18G16
  23236564.846    -9591612.39443  -7460674.56242  23236565.887    23236563.815
  23021944.542    -1823951.91643  -1416378.87642  23021946.735    23021944.447
  23299544.974    -3277029.21043  -2545708.40142  23299547.573    23299544.655
  23958769.085    -4593551.28043  -3531287.24042  23958771.895    23958770.043
  22333176.994    -4621644.28043  -3419837.06142  22333179.672    22333176.605
  20966999.165   -18235810.46444 -14159975.50442  20967000.982    20966997.182
  23916015.836     1121618.33243    894739.78942  23916016.861    23916015.624
  20336667.176   -22027274.49744 -17146276.12342  20336669.360    20336665.903
  21772833.003   -17660653.94543 -13500909.77842  21772835.132    21772830.647
  23468323.425    -6863991.03343  -4945658.14542  23468325.349    23468321.106
 03 12 26  3  7 30.0000000  0 10G17G29G30G15G26G21G10G 6G18G16
  23249405.754    -9524132.99643  -7408093.20442  23249406.694    23249404.747
  23019738.700    -1835543.70743  -1425411.42842  23019740.727    23019738.692
  23319276.440    -3173339.50143  -2464911.24142  23319278.992    23319276.355
  23944166.060    -4670290.88743  -3591084.23142  23944168.630    23944167.010
  22323354.008    -4673264.19943  -3460060.36242  22323356.748    22323353.538
  20961483.699   -18264794.37744 -14182560.35642  20961485.533    20961481.706
  23935967.738     1226467.22943    976440.19442  23935969.119    23935967.872
  20339163.383   -22014156.56244 -17136054.35842  20339165.613    20339162.083
  21757754.990   -17739888.74343 -13562651.15442  21757757.163    21757752.732
  23458495.684    -6915636.82743  -4985901.62242  23458497.547    23458493.281
 03 12 26  3  8  0.0000000  0 10G17G29G30G15G26G21G10G 6G18G16
  23262257.963    -9456594.34943  -7355465.69942  23262258.845    23262256.932
  23017630.615    -1846620.43643  -1434042.63742  23017632.745    23017630.979
  23339021.693    -3069577.78043  -2384057.95542  23339024.196    23339021.700
  23929578.976    -4746946.07143  -3650815.45442  23929581.587    23929579.871
  22313625.722    -4724386.00643  -3499895.50542  22313628.474    22313625.193
  20956006.084   -18293579.23544 -14204990.10142  20956007.930    20956004.045
  23955943.390     1331437.81343   1058235.46542  23955944.750    23955943.207
  20341744.043   -22000595.21944 -17125487.07942  20341746.239    20341742.678
  21742745.335   -17818764.69643 -13624112.91242  21742747.481    21742743.123
  23448761.233    -6966792.23643  -5025762.95942  23448763.085    23448758.711
 03 12 26  3  8 30.0000000  0 10G17G29G30G15G26G21G10G 6G18G16
  23275122.110    -9388992.65243  -7302789.03042  23275122.984    23275121.134
  23015621.599    -1857176.65043  -1442268.25742  23015623.933    23015622.150
  23358780.869    -2965742.48143  -2303147.33942  23358783.319    23358781.014
  23915008.736    -4823512.35243  -3710477.38342  23915011.415    23915009.535
  22303993.638    -4775002.49443  -3539336.89242  22303996.399    22303992.949
  20950567.209   -18322160.70244 -14227261.35642  20950569.031    20950565.132
  23975942.266     1436531.92143   1140126.94442  23975943.734    23975941.924
  20344410.008   -21986585.43344 -17114570.36442  20344412.209    20344408.607
  21727805.136   -17897275.95443 -13685290.48742  21727807.239    21727802.900
  23439121.152    -7017451.51843  -5065237.71142  23439123.080    23439118.381
 03 12 26  3  9  0.0000000  0 10G17G29G30G15G26G21G10G 6G18G16
  23287998.995    -9321323.72743  -7250059.99142  23287999.865    23287998.214
  23013712.843    -1867207.02343  -1450084.14142  23013714.991    23013713.278
  23378554.473    -2861832.03943  -2222178.16542  23378556.851    23378554.657
  23900456.196    -4899985.29843  -3770066.61842  23900458.737    23900456.829
  22294459.107    -4825106.64743  -3578379.02842  22294461.822    22294458.137
  20945167.891   -18350534.35744 -14249370.68542  20945169.719    20945165.743
  23995964.604     1541751.27643   1222116.09242  23995966.331    23995964.303
  20347162.262   -21972122.19644 -17103300.31042  20347164.454    20347160.826
  21712935.455   -17975416.42843 -13746179.14342  21712937.605    21712933.254
  23429576.503    -7067608.62443  -5104321.12442  23429578.462    23429573.644
 03 12 26  3  9 30.0000000  0 10G17G29G30G15G26G21G10G 6G18G16
  23300886.214    -9253599.85343  -7197288.14542  23300887.109    23300885.635
  23011902.407    -1876722.64143  -1457498.91242  23011904.415    23011902.196
  23398339.224    -2757861.55743  -2141162.21442  23398341.734    23398339.604
  23885919.262    -4976377.15643  -3829592.66542  23885921.551    23885919.615
  22285020.374    -4874707.63243  -3617029.11442  22285023.035    22285019.242
  20939805.809   -18378712.74444 -14271327.85342  20939807.635    20939803.543
  24016008.201     1647081.30243   1304191.39742  24016009.788    24016007.723
  20349998.612   -21957216.94444 -17091685.82642  20350000.817    20349997.204
  21698134.272   -18053196.91643 -13806787.28142  21698136.440    21698132.105
  23420125.401    -7117274.01443  -5143021.42142  23420127.338    23420122.598
 03 12 26  3 10  0.0000000  0 10G17G29G30G15G26G21G10G 6G18G16
  23313785.657    -9185812.35343  -7144466.72842  23313786.542    23313785.229
  23010191.698    -1885713.68643  -1464504.89642  23010193.750    23010191.026
  23418136.803    -2653825.04643  -2060094.79842  23418139.239    23418137.025
  23871399.532    -5052679.08143  -3889048.63742  23871401.716    23871399.624
  22275679.112    -4923794.06843  -3655278.24942  22275681.960    22275678.349
  20934482.480   -18406686.94744 -14293125.91942  20934484.330    20934480.194
  24036073.830     1752528.27643   1386357.85742  24036075.390    24036073.342
  20352920.914   -21941860.25744 -17079719.57742  20352923.114    20352919.502
  21683403.582   -18130606.76943 -13867106.62342  21683405.818    21683401.487
  23410769.861    -7166437.32843  -5181330.47342  23410771.779    23410767.133
 03 12 26  3 10 30.0000000  0 10G17G29G30G15G26G21G10G 6G18G16
  23326697.275    -9117961.78643  -7091596.14742  23326698.029    23326696.841
  23008581.079    -1894178.97643  -1471101.20142  23008583.162    23008579.773
  23437946.343    -2549725.31343  -1978978.11642  23437948.833    23437946.337
  23856897.018    -5128890.74943  -3948434.25242  23856899.170    23856896.882
  22266436.435    -4972362.91143  -3693124.08342  22266439.130    22266435.998
  20929197.974   -18434457.17044 -14314765.03242  20929199.835    20929195.660
  24056161.644     1858090.04443   1468613.78042  24056162.925    24056161.093
  20355929.259   -21926051.24044 -17067400.85742  20355931.497    20355927.897
  21668743.849   -18207644.19043 -13927135.75242  21668746.015    21668741.708
  23401510.224    -7215097.06743  -5219247.13342  23401512.200    23401507.530
 03 12 26  3 11  0.0000000  0 10G17G29G30G15G26G21G10G 6G18G16
  23339620.191    -9050051.16343  -7038678.78842  23339620.945    23339619.816
  23007069.772    -1902120.87443  -1477289.70442  23007072.097    23007068.274
  23457766.913    -2445568.39443  -1897816.90342  23457769.424    23457766.579
  23842411.022    -5205015.49443  -4007752.16042  23842413.129    23842410.482
  22257292.059    -5020414.79543  -3730567.11442  22257294.385    22257292.358
  20923951.691   -18462026.64044 -14336247.72342  20923953.568    20923949.325
  24076270.503     1963760.55043   1550954.40942  24076271.458    24076269.709
  20359023.175   -21909792.57044 -17054731.76642  20359025.451    20359021.868
  21654154.494   -18284311.12143 -13986876.19842  21654156.692    21654152.407
  23392346.055    -7263255.04843  -5256772.80542  23392348.079    23392343.304
 03 12 26  3 11 30.0000000  0 10G17G29G30G15G26G21G10G 6G18G16
  23352554.747    -8982080.34143  -6985714.48442  23352555.408    23352554.342
  23005658.396    -1909537.65543  -1483068.99442  23005660.620    23005656.802
  23477597.855    -2341356.47743  -1816612.81842  23477600.553    23477597.280
  23827941.556    -5281052.62543  -4067001.80542  23827943.744    23827940.588
  22248246.957    -5067946.48343  -3767604.80942  22248248.923    22248247.561
  20918743.727   -18489394.75344 -14357573.51042  20918745.640    20918741.263
  24096399.646     2069538.22843   1633378.58242  24096400.353    24096398.640
  20362202.925   -21893083.04144 -17041711.35442  20362205.188    20362201.613
  21639636.174   -18360605.29043 -14046326.18042  21639638.334    21639634.068
  23383277.670    -7310909.10143  -5293905.81342  23383279.784    23383275.051
 03 12 26  3 12  0.0000000  0 10G17G29G30G15G26G21G10G 6G18G16
  23365500.761    -8914048.12243  -6932702.37442  23365501.609    23365500.511
  23004347.324    -1916427.19343  -1488437.46442  23004349.626    23004345.634
  23497438.879    -2237091.07143  -1735367.05142  23497441.680    23497438.164
  23813489.135    -5357000.57743  -4126181.93442  23813491.342    23813487.877
  22239301.937    -5114953.74743  -3804233.81842  22239303.910    22239302.377
  20913574.245   -18516560.39444 -14378741.53342  20913576.163    20913571.728
  24116548.817     2175421.61843   1715885.12142  24116549.943    24116547.713
  20365468.897   -21875920.62944 -17028338.04942  20365471.146    20365467.467
  21625189.413   -18436523.84443 -14105483.46742  21625191.487    21625187.255
  23374305.699    -7358056.51343  -5330644.02942  23374307.821    23374303.103
 03 12 26  3 12 30.0000000  0 10G17G29G30G15G26G21G10G 6G18G16
  23378458.102    -8845957.08643  -6879644.42042  23378458.997    23378457.757
  23003136.292    -1922791.24043  -1493396.43442  23003138.727    23003134.616
  23517288.931    -2132777.52243  -1654083.77642  23517291.803    23517288.243
  23799053.185    -5432861.96343  -4185294.61342  23799055.398    23799052.022
  22230456.890    -5161436.59643  -3840454.17842  22230459.006    22230456.961
  20908442.853   -18543526.15244 -14399753.79842  20908444.768    20908440.253
  24136716.432     2281405.91943   1798470.27042  24136718.585    24136716.078
  20368820.609   -21858307.33544 -17014613.40642  20368822.871    20368819.107
  21610813.908   -18512067.76143 -14164348.83642  21610815.950    21610811.742
  23365430.203    -7404698.28443  -5366988.27142  23365432.145    23365427.317
 03 12 26  3 13  0.0000000  0 10G17G29G30G15G26G21G10G 6G18G16
  23391427.263    -8777804.53843  -6826538.54442  23391428.123    23391426.691
  23002026.242    -1928625.57043  -1497942.65842  23002028.794    23002024.343
  23537148.201    -2028415.59143  -1572762.80242  23537150.898    23537147.654
  23784634.244    -5508633.61843  -4244337.39442  23784636.555    23784633.438
  22221712.260    -5207389.22143  -3876261.39442  22221714.551    22221712.477
  20903350.063   -18570288.86544 -14420607.84642  20903351.975    20903347.432
  24156904.539     2387491.90343   1881134.72942  24156906.270    24156903.707
  20372258.814   -21840239.31844 -17000534.43642  20372261.080    20372257.278
  21596510.550   -18587232.45143 -14222918.70442  21596512.571    21596508.395
  23356651.585    -7450829.87243  -5402934.94242  23356653.509    23356648.797
 03 12 26  3 13 30.0000000  0 10G17G29G30G15G26G21G10G 6G18G16
  23404408.792    -8709587.41743  -6773382.37542  23404409.651    23404408.053
  23001017.790    -1933926.41043  -1502073.19242  23001020.288    23001015.592
  23557016.497    -1924005.11543  -1491404.01242  23557019.075    23557016.379
  23770232.986    -5584312.42143  -4303307.82842  23770235.305    23770232.217
  22213069.607    -5252806.06543  -3911651.15342  22213071.910    22213069.856
  20898296.347   -18596845.91944 -14441301.63242  20898298.280    20898293.792
  24177108.494    -3808000.02653  -2946521.31352  24177113.021    24177111.018
  20375784.217   -21821713.15344 -16986098.46642  20375786.457    20375782.691
  21582280.130   -18662013.70643 -14281189.78842  21582282.133    21582278.032
  23347971.028    -7496447.16543  -5438480.88242  23347972.896    23347968.099
 03 12 26  3 14  0.0000000  0 10G17G29G30G15G26G21G10G 6G18G16
  23417400.435    -8641316.18843  -6720184.03942  23417401.548    23417399.682
  23000109.009    -1938702.76743  -1505795.01542  23000111.571    23000106.668
  23576891.823    -1819558.79343  -1410017.26142  23576894.229    23576891.860
  23755847.300    -5659908.06443  -4362213.45542  23755849.720    23755846.611
  22204527.429    -5297694.27243  -3946628.97442  22204529.745    22204527.707
  20893280.012   -18623206.80944 -14461842.57542  20893281.893    20893277.446
  24197334.345    -3701721.72553  -2863707.07852  24197335.710    24197333.021
  20379395.024   -21802737.99144 -16971312.63042  20379397.240    20379393.563
  21568121.122   -18736419.68343 -14339168.44742  21568123.075    21568119.086
  23339386.679    -7541558.32543  -5473632.42142  23339388.612    23339383.856
 03 12 26  3 14 30.0000000  0 10G17G29G30G15G26G21G10G 6G18G16
  23430403.227    -8572986.14943  -6666939.88742  23430404.478    23430402.538
  22999300.871    -1942949.56143  -1509104.18642  22999303.423    22999298.379
  23596774.569    -1715074.96343  -1328601.31242  23596776.689    23596774.437
  23741478.340    -5735416.22243  -4421050.89442  23741480.704    23741477.818
  22196087.377    -5342046.98543  -3981189.47242  22196089.734    22196087.206
  20888301.768   -18649367.79544 -14482227.74642  20888303.637    20888299.147
  24217576.674    -3595351.78843  -2780821.38242  24217577.080    24217574.102
  20383092.192   -21783308.98844 -16956173.14642  20383094.397    20383090.824
  21554034.573   -18810444.60943 -14396850.18242  21554036.548    21554032.665
  23330899.755    -7586157.85943  -5508385.29342  23330901.721    23330896.951
 03 12 26  3 15  0.0000000  0 10G17G29G30G15G26G21G10G 6G18G16
  23443417.779    -8504593.69943  -6613647.06142  23443419.152    23443417.300
  22998594.404    -1946661.65343  -1511996.70242  22998597.036    22998591.825
  23616664.603    -1610552.29343  -1247155.08342  23616666.694    23616664.486
  23727127.011    -5810832.66743  -4479816.90742  23727129.128    23727126.547
  22187750.742    -5385857.43443  -4015327.44542  22187753.159    22187749.582
  20883362.424   -18675324.22444 -14502453.52442  20883364.285    20883359.715
  24237835.508    -3488887.90753  -2697862.50452  24237836.719    24237833.781
  20386876.660   -21763421.53144 -16940676.43142  20386878.836    20386875.327
  21540021.740   -18884082.51344 -14454230.34042  21540023.691    21540019.907
  23322511.228    -7630240.20043  -5542735.16142  23322513.255    23322508.532
 03 12 26  3 15 30.0000000  0 10G17G29G30G15G26G21G10G 6G18G16
  23456442.496    -8436147.35243  -6560312.26342  23456443.976    23456442.275
  22997988.138    -1949846.96443  -1514478.72542  22997990.856    22997985.303
  23636560.083    -1506002.14943  -1165687.44142  23636562.153    23636559.637
  23712791.321    -5886166.14443  -4538518.25342  23712793.257    23712791.210
  22179516.183    -5429131.51043  -4049047.47742  22179518.607    22179514.221
  20878460.295   -18701084.75444 -14522526.65042  20878462.139    20878457.590
  24258111.438    -3382341.23543  -2614839.16042  24258112.793    24258108.724
  20390746.856   -21743083.62744 -16924828.71042  20390749.028    20390745.566
  21526081.139   -18957340.66643 -14511314.58942  21526083.100    21526079.404
  23314219.589    -7673812.53943  -5576687.60642  23314221.735    23314217.307
 03 12 26  3 16  0.0000000  0 10G17G29G30G15G26G21G10G 6G18G16
  23469479.770    -8367635.88843  -6506926.72042  23469481.108    23469479.540
  22997484.351    -1952493.26743  -1516540.74842  22997487.110    22997481.567
  23656462.344    -1401415.88143  -1084191.65942  23656464.569    23656461.713
  23698473.944    -5961404.91443  -4597145.77042  23698475.594    23698473.698
  22171386.302    -5471855.30143  -4082338.74942  22171388.652    22171383.898
  20873597.654   -18726637.97544 -14542438.24442  20873599.452    20873594.945
  24278403.989    -3275702.45943  -2531744.00042  24278405.951    24278401.432
  20394705.073   -21722283.26444 -16908620.63942  20394707.240    20394703.802
  21512215.149   -19030206.55243 -14568093.18042  21512217.089    21512213.533
  23306027.352    -7716862.16943  -5610232.76342  23306029.552    23306025.328
 03 12 26  3 16 30.0000000  0 10G17G29G30G15G26G21G10G 6G18G16
  23482527.733    -8299068.27843  -6453497.45142  23482529.089    23482527.535
  22997081.804    -1954608.65543  -1518189.08542  22997084.358    22997079.094
  23676369.306    -1296804.96543  -1002676.66642  23676371.597    23676368.428
  23684172.809    -6036557.59943  -4655706.25342  23684174.419    23684172.470
  22163359.654    -5514035.11443  -4115206.10542  22163362.104    22163357.230
  20868772.730   -18751993.11644 -14562195.48242  20868774.521    20868770.013
  24298712.585    -3168982.73243  -2448585.78142  24298714.888    24298710.119
  20398749.623   -21701028.77044 -16892058.70042  20398751.820    20398748.449
  21498422.522   -19102686.99943 -14624571.42542  21498424.455    21498421.037
  23297933.204    -7759396.48843  -5643376.37942  23297935.398    23297931.368
 03 12 26  3 17  0.0000000  0 10G17G29G30G15G26G21G10G 6G18G16
  23495587.147    -8230442.53943  -6400022.82642  23495588.066    23495586.377
  22996780.549    -1956190.30343  -1519421.52942  22996782.994    22996778.244
  23696280.774    -1192170.20643   -921143.11342  23696283.027    23696279.720
  23669888.172    -6111622.35543  -4714198.19142  23669889.882    23669888.027
  22155437.378    -5555666.53843  -4147646.14842  22155439.906    22155434.943
  20863985.888   -18777148.17344 -14581796.81342  20863987.668    20863983.199
  24319036.773    -3062182.74553  -2365365.02552  24319038.814    24319034.233
  20402881.099   -21679317.82044 -16875141.07742  20402883.250    20402879.952
  21484703.920   -19174779.08144 -14680747.05342  21484705.844    21484702.448
  23289937.909    -7801412.29443  -5676115.96042  23289940.000    23289936.008
 03 12 26  3 17 30.0000000  0  9G17G29G30G15G26G21G 6G18G16
  23508658.743    -8161751.76943  -6346497.53642  23508659.594    23508657.702
  22996582.397    -1957230.30843  -1520231.93242  22996584.708    22996580.590
  23716197.371    -1087507.35743   -839587.64742  23716199.681    23716196.303
  23655621.490    -6186591.84743  -4772615.92142  23655623.227    23655621.756
  22147621.235    -5596739.85543  -4179651.29842  22147623.860    22147618.849
  20859238.531   -18802095.62944 -14601236.37342  20859240.341    20859235.895
  20407100.871   -21657142.67044 -16857861.73942  20407103.009    20407099.755
  21471060.817   -19246473.91444 -14736613.14042  21471062.804    21471059.429
  23282042.696    -7842901.11043  -5708444.89242  23282044.771    23282040.807
 03 12 26  3 18  0.0000000  0  9G17G29G30G15G26G21G 6G18G16
  23521740.140    -8093007.74543  -6292930.76742  23521741.112    23521739.214
  22996485.238    -1957740.19943  -1520629.24142  22996487.592    22996483.779
  23736116.656     -982830.91443   -758021.59842  23736118.960    23736115.523
  23641371.061    -6261478.11043  -4830968.79342  23641372.667    23641371.470
  22139909.505    -5637264.51543  -4211228.92942  22139912.155    22139907.457
  20854528.385   -18826847.53544 -14620523.56442  20854530.217    20854525.720
  20411406.785   -21634514.81444 -16840229.64642  20411408.908    20411405.691
  21457491.175   -19317782.26844 -14792178.07242  21457493.214    21457489.889
  23274245.833    -7883873.68443  -5740371.57342  23274247.860    23274243.920
 03 12 26  3 18 30.0000000  0  9G17G29G30G15G26G21G 6G18G16
  23534832.541    -8024205.98143  -6239319.00442  23534833.542    23534831.564
  22996490.275    -1957714.24243  -1520609.00842  22996492.655    22996488.978
  23756038.912     -878138.60443   -676443.17342  23756041.188    23756037.987
  23627137.538    -6336275.87843  -4889252.71042  23627139.095    23627137.734
  22132303.564    -5677233.05343  -4242373.23242  22132306.358    22132301.976
  20849856.470   -18851399.09144 -14639654.64042  20849858.254    20849853.696
  20415799.927   -21611428.73344 -16822240.49442  20415802.034    20415798.784
  21443996.433   -19388697.51344 -14847436.68442  21443998.429    21443995.099
  23266548.234    -7924323.66343  -5771891.02942  23266550.309    23266546.477
 03 12 26  3 19  0.0000000  0  9G17G29G30G15G26G21G 6G18G16
  23547936.336    -7955346.98243  -6185662.67042  23547936.954    23547935.061
  22996597.334    -1957152.21543  -1520171.04142  22996599.789    22996596.125
  23775963.544     -773433.79643   -594855.04842  23775965.851    23775962.929
  23612920.679    -6410985.66043  -4947468.06642  23612922.211    23612920.700
  22124803.716    -5716643.49743  -4273082.68542  22124806.444    22124802.798
  20845222.477   -18875750.58644 -14658629.81742  20845224.283    20845219.709
  20420280.184   -21587884.56044 -16803894.39142  20420282.326    20420279.033
  21430576.568   -19459218.80444 -14902388.32042  21430578.599    21430575.210
  23258950.172    -7964250.63643  -5803002.95142  23258952.109    23258948.649
 03 12 26  3 19 30.0000000  0  9G17G29G30G15G26G21G 6G18G16
  23561051.406    -7886428.23243  -6131959.74542  23561051.545    23561050.084
  22996806.860    -1956051.26043  -1519313.13542  22996809.355    22996805.858
  23795890.712     -668716.82843   -513257.42842  23795892.884    23795890.159
  23598721.163    -6485605.06843  -5005613.01742  23598722.696    23598720.860
  22117411.091    -5755491.22143  -4303353.61842  22117413.637    22117410.810
  20840627.033   -18899899.76544 -14677447.35042  20840628.824    20840624.226
  20424848.215   -21563879.40044 -16785189.07342  20424850.317    20424847.040
  21417232.502   -19529342.47044 -14957030.11842  21417234.476    21417230.964
  23251452.226    -8003650.95243  -5833704.47842  23251454.120    23251451.054
 03 12 26  3 20  0.0000000  0  9G17G29G30G15G26G21G 6G18G16
  23574176.209    -7817455.45143  -6078214.74342  23574176.748    23574175.000
  22997117.969    -1954416.10943  -1518038.97142  22997120.386    22997117.099
  23815818.489     -563995.69543   -431656.56242  23815820.711    23815818.175
  23584537.910    -6560139.16543  -5063691.48342  23584539.527    23584537.331
  22110124.861    -5793779.30843  -4333188.46042  22110127.374    22110124.971
  20836069.116   -18923852.00944 -14696111.43042  20836070.914    20836066.285
  20429503.001   -21539418.38544 -16766128.54642  20429505.071    20429501.849
  21403963.402   -19599072.59644 -15011365.26142  21403965.337    21403961.606
  23244054.146    -8042528.73143  -5863998.83442  23244055.797    23244052.943
 03 12 26  3 20 30.0000000  0  9G17G29G30G15G26G21G 6G18G16
  23587312.524    -7748421.26143  -6024421.89242  23587313.364    23587312.223
  22997531.988    -1952238.66043  -1516342.25742  22997534.461    22997531.383
  23835747.997     -459265.74643   -350048.82042  23835750.275    23835747.891
  23570372.142    -6634580.33043  -5121697.52342  23570373.938    23570371.555
  22102947.419    -5831497.82943  -4362579.48242  22102949.715    22102947.499
  20831550.078   -18947599.91844 -14714616.28542  20831551.880    20831547.245
  20434246.052   -21514493.56244 -16746706.60742  20434248.128    20434244.947
  21390770.787   -19668400.40444 -15065386.90642  21390772.741    21390768.814
  23236756.983    -8080875.39143  -5893879.32742  23236758.657    23236755.895
 03 12 26  3 21  0.0000000  0  9G17G29G30G15G26G21G 6G18G16
  23600460.143    -7679331.91143  -5970586.07342  23600460.612    23600459.315
  22998048.429    -1949524.83643  -1514227.59042  22998050.698    22998047.758
  23855677.384     -354536.11343   -268441.34142  23855679.812    23855677.483
  23556222.784    -6708935.15343  -5179636.28442  23556224.672    23556222.177
  22095877.764    -5868650.75243  -4391529.79642  22095879.949    22095877.402
  20827068.639   -18971149.98944 -14732966.98242  20827070.483    20827065.837
  20439076.252   -21489111.04144 -16726928.02442  20439078.307    20439075.143
  21377653.747   -19737330.81844 -15119098.90042  21377655.759    21377651.600
  23229559.772    -8118696.34943  -5923350.20042  23229561.535    23229558.865
 03 12 26  3 21 30.0000000  0  9G17G29G30G15G26G21G 6G18G16
  23613618.778    -7610183.65443  -5916704.34242  23613619.531    23613617.623
  22998667.939    -1946269.95243  -1511691.30542  22998670.106    22998667.150
  23875606.984     -249805.14043   -186832.81542  23875609.505    23875607.297
  23542090.624    -6783199.32843  -5237504.44242  23542092.534    23542089.991
  22088916.635    -5905231.80043  -4420034.49542  22088919.032    22088916.183
  20822625.769   -18994497.76944 -14751160.05242  20822627.629    20822622.910
  20443994.416   -21463266.21044 -16706789.20242  20443996.424    20443993.294
  21364613.417   -19805858.46444 -15172497.04642  21364615.414    21364611.084
  23222463.885    -8155986.10443  -5952407.15942  23222465.522    23222462.951
 03 12 26  3 22  0.0000000  0  9G17G29G30G15G26G21G 6G18G16
  23626787.336                    -5862780.88042                  23626785.747
  22999389.424    -1942479.12443  -1508737.40042  22999391.531    22999388.556
  23895535.340     -145081.30343   -105229.86242  23895537.821    23895535.533
  23527974.826    -6857378.11443  -5295306.02142  23527976.678    23527974.189
  22082063.825    -5941244.04343  -4448095.95742  22082066.187    22082063.195
  20818220.213   -19017648.90344 -14769199.88542  20818222.108    20818217.366
  20448999.473   -21436964.28644 -16686294.20042  20449001.506    20448998.448
  21351648.850   -19873987.63844 -15225584.69342  21351650.837    21351646.462
  23215468.073    -8192749.24843  -5981053.74242  23215469.735    23215467.209
 03 12 26  3 22 30.0000000  0  9G17G29G30G15G26G21G 6G18G16
  23639966.135
  23000213.673    -1938147.71543  -1505362.26942  23000215.932    23000212.778
  23915462.542      -40363.02543    -23631.22042  23915464.975    23915462.736
  23513876.012    -6931467.36443  -5353037.83242  23513877.918    23513875.418
  22075320.313    -5976681.29443  -4475709.36642  22075322.866    22075319.712
  20813852.841   -19040599.34144 -14787083.33742  20813854.733    20813850.029
  20454092.334   -21410200.90744 -16665439.62242  20454094.362    20454091.403
  21338761.177   -19941712.79344 -15278357.52442  21338763.154    21338758.751
  23208573.636    -8228980.67643  -6009286.02042  23208575.277    23208572.733
 03 12 26  3 23  0.0000000  0  9G17G29G30G15G26G21G 6G18G16
  23653158.258   -16854929.79153                                  23653160.894
  23001140.231    -1933279.40443  -1501568.75442  23001142.440    23001139.163
  23935387.345       64342.90943     57957.81542  23935389.795    23935387.362
  23499793.422    -7005471.26243  -5410703.17242  23499795.276    23499792.915
  22068686.017    -6011545.34943  -4502876.13542  22068688.508    22068685.211
  20809523.025   -19063352.90244 -14804813.37642  20809524.892    20809520.169
  20459272.365   -21382979.75744 -16644228.33642  20459274.397    20459271.455
  21325949.858   -20009036.86844 -15330817.82242  21325951.838    21325947.397
  23201779.865    -8264683.25243  -6037106.21142  23201781.657    23201778.777
 03 12 26  3 23 30.0000000  0  8G29G30G15G26G21G 6G18G16
  23002172.433    -1927855.29943  -1497342.16042  23002174.717    23002171.297
  23955312.253      169052.21243    139549.45642  23955314.964    23955312.798
  23485730.636    -7079371.28043  -5468287.53742  23485732.390    23485729.895
  22062164.585    -6045815.58943  -4529580.19042  22062167.234    22062163.781
  20805234.150   -19085891.28944 -14822375.74742  20805236.022    20805231.263
  20464543.033   -21355282.22444 -16622645.84442  20464545.052    20464542.142
  21313218.615   -20075939.87644 -15382950.02042  21313220.662    21313216.193
  23195090.281    -8299837.79843  -6064499.36742  23195092.249    23195089.095
 03 12 26  3 24  0.0000000  0  8G29G30G15G26G21G 6G18G16
  23003305.225    -1921902.87143  -1492703.87142  23003307.597    23003303.883
  23975232.506      273734.29043    221119.87142  23975234.837    23975233.082
  23471682.613    -7153194.94143  -5525812.39642  23471684.284    23471681.499
  22055751.438    -6079517.62843  -4555841.49342  22055754.051    22055750.596
  20800980.806   -19108242.55544 -14839792.30742  20800982.688    20800977.947
  20469899.083   -21327135.93144 -16600713.66442  20469901.125    20469898.203
  21300562.394   -20142448.70944 -15434775.06442  21300564.478    21300560.013
  23188500.031    -8334470.95943  -6091486.24542  23188502.011    23188498.558
 03 12 26  3 24 30.0000000  0  8G29G30G15G26G21G 6G18G16
  23004540.928    -1915408.58543  -1487643.39242  23004543.387    23004539.675
  23995149.951      378399.85243    302677.42942  23995152.064    23995150.039
  23457651.470    -7226928.93643  -5583267.42242  23457653.204    23457650.270
  22049449.145    -6112636.22543  -4581648.17142  22049451.917    22049448.433
  20796765.662   -19130393.24744 -14857052.57842  20796767.539    20796762.776
  20475343.120   -21298527.36644 -16578421.28042  20475345.171    20475342.238
  21287983.984   -20208549.01644 -15486281.77642  21287986.045    21287981.623
  23182011.442    -8368568.68343  -6118055.90642  23182013.461    23182009.923
 03 12 26  3 25  0.0000000  0  8G29G30G15G26G21G 6G18G16
  23005880.751    -1908367.33543  -1482156.69842  23005883.218    23005879.611
  24015064.412      483050.98043    384223.72542  24015066.493    24015064.206
  23443638.280    -7300568.53143  -5640648.86342  23443640.050    23443637.286
  22043259.256    -6145164.26843  -4606994.67042  22043262.034    22043258.681
  20792589.692   -19152338.34144 -14874152.64442  20792591.570    20792586.741
  20480876.130   -21269451.53844 -16555764.79942  20480878.176    20480875.157
  21275484.374   -20274234.60744 -15537465.33842  21275486.527    21275482.170
  23175625.743    -8402125.06843  -6144203.73642  23175627.783    23175624.295
 03 12 26  3 25 30.0000000  0  8G29G30G15G26G21G 6G18G16
  23007322.946    -1900788.05043  -1476250.75842  23007325.371    23007322.007
  24034973.757      587675.54843    465749.35642  24034975.809    24034973.367
  23429641.176    -7374123.02143  -5697963.99242  23429642.980    23429640.392
  22037180.310    -6177109.27843  -4631886.85942  22037183.050    22037179.784
  20788450.931   -19174087.51044 -14891100.04542  20788452.865    20788448.016
  20486496.263   -21239917.62244 -16532751.36742  20486498.364    20486495.235
  21263062.142   -20339513.73044 -15588332.16842  21263064.263    21263060.032
  23169341.625    -8435148.80843  -6169936.51642  23169343.509    23169340.075
 03 12 26  3 26  0.0000000  0  8G29G30G15G26G21G 6G18G16
  23008868.802    -1892664.60443  -1469920.78442  23008871.222    23008867.938
  24054878.608      692276.98943    547256.95042  24054880.656    24054878.360
  23415661.673    -7447586.40043  -5755208.14042  23415663.453    23415660.798
  22031213.857    -6208463.03743  -4656318.34842  22031216.462    22031213.341
  20784350.646   -19195634.68144 -14907890.04042  20784352.566    20784347.689
  20492204.810   -21209919.29944 -16509376.05042  20492206.922    20492203.703
  21250718.583   -20404379.25244 -15638876.70842  21250720.663    21250716.553
  23163160.064    -8467632.86843  -6195248.78542  23163161.923    23163158.537
 03 12 26  3 26 30.0000000  0  8G29G30G15G26G21G 6G18G16
  23010517.454    -1884001.44943  -1463170.25342  23010519.813    23010516.524
  24074778.100      796847.93043    628740.75542  24074779.996    24074777.496
  23401698.470    -7520963.24743  -5812384.83542  23401700.286    23401697.724
  22025359.144    -6239228.21243  -4680291.20542  22025361.758    22025358.934
  20780287.857   -19216984.35644 -14924526.13842  20780289.831    20780284.942
  20498000.762   -21179461.13044 -16485642.41442  20498002.906    20497999.661
  21238453.000   -20468834.80944 -15689101.80042  21238455.081    21238451.086
  23157080.540    -8499581.03543  -6220143.44142  23157082.283    23157079.003
 03 12 26  3 27  0.0000000  0  8G29G30G15G26G21G 6G18G16
  23012269.217    -1874796.04643  -1455997.20742  23012271.554    23012268.196
  24094671.283      901387.87143    710200.40942  24094673.402    24094671.196
  23387752.124    -7594251.34343  -5869492.40542  23387753.972    23387751.591
  22019617.399    -6269400.67243  -4703802.23042  22019619.918    22019617.191
  20776263.119   -19238134.24144 -14941006.56042  20776265.072    20776260.214
  20503884.630   -21148540.74644 -16461548.61142  20503886.759    20503883.577
  21226266.195   -20532876.76744 -15739004.60842  21226268.254    21226264.378
  23151103.216    -8530990.47043  -6244618.31442  23151105.032    23151101.983
 03 12 26  3 27 30.0000000  0  8G29G30G15G26G21G 6G18G16
  23014124.755    -1865044.84543  -1448398.86942  23014127.177    23014123.740
  24114558.889     1005897.38443    791636.38942  24114561.045    24114559.019
  23373823.402    -7667447.34043  -5926528.19942  23373825.136    23373823.061
  22013989.773    -6298975.11643  -4726847.23542  22013992.138    22013989.260
  20772276.989   -19259081.31644 -14957328.95342  20772278.884    20772274.115
  20509857.108   -21117154.84044 -16437092.06442  20509859.212    20509856.102
  21214158.949   -20596500.93344 -15788581.86142  21214160.915    21214157.121
  23145229.453    -8561857.05243  -6268670.17642  23145231.132    23145228.263
 03 12 26  3 28  0.0000000  0  8G29G30G15G26G21G 6G18G16
  23016082.872    -1854754.24843  -1440380.22842  23016085.353    23016081.928
  24134438.784     1110367.50043    873041.65942  24134441.197    24134439.331
  23359910.932    -7740557.33443  -5983496.97242  23359912.752    23359910.901
  22008474.867    -6327956.05543  -4749429.77842  22008477.339    22008474.245
  20768328.324   -19279831.84944 -14973498.19542  20768330.144    20768325.430
  20515917.032   -21085309.59944 -16412277.59842  20515919.114    20515916.032
  21202130.099   -20659712.45744 -15837837.58042  21202132.135    21202128.330
  23139458.067    -8592186.13643  -6292303.20742  23139459.789    23139456.823
 03 12 26  3 28 30.0000000  0  8G29G30G15G26G21G 6G18G16
  23018145.520    -1843914.74343  -1431933.87042  23018147.921    23018144.631
  24154312.472     1214804.81843    954421.39442  24154315.091    24154313.314
  23346016.660    -7813572.07943  -6040391.54242  23346018.457    23346016.734
  22003075.010    -6356332.13843  -4771540.97042  22003077.635    22003074.403
  20764418.792   -19300376.41144 -14989506.94042  20764420.638    20764415.915
  20522066.260   -21052995.63944 -16387097.89642  20522068.275    20522065.147
  21190181.921   -20722501.31544 -15886763.94342  21190183.893    21190179.902
  23133790.709    -8621967.87143  -6315509.74342  23133792.560    23133789.458
 03 12 26  3 29  0.0000000  0  8G29G30G15G26G21G 6G18G16
  23020310.357    -1832537.87543  -1423068.76142  23020312.699    23020309.450
  24174177.523     1319195.19043   1035764.51942  24174180.113    24174178.313
  23332138.195    -7886503.15343  -6097220.92642  23332140.010    23332138.495
  21997788.442    -6384113.24543  -4793188.56242  21997791.084    21997787.993
  20760546.306   -19320726.54044 -15005364.17742  20760548.139    20760543.360
  20528302.429   -21020224.47044 -16361561.92642  20528304.443    20528301.261
  21178312.196   -20784877.79844 -15935368.97242  21178314.156    21178309.975
  23128225.631    -8651213.14743  -6338298.27842  23128227.519    23128224.245
 03 12 26  3 29 30.0000000  0  8G29G30G15G26G21G 6G18G16
  23022578.562    -1820617.44643  -1413780.12142  23022580.854    23022577.667
  24194034.270     1423542.04943   1117073.75942  24194036.933    24194034.886
  23318277.180    -7959344.25843  -6153980.19342  23318278.837    23318277.320
  21992616.762    -6411291.34643  -4814366.27142  21992619.288    21992616.366
  20756711.986   -19340876.16844 -15021065.17842  20756713.832    20756708.978
  20534626.745   -20986990.00944 -16335664.94642  20534628.772    20534625.540
  21166522.138   -20846834.78044 -15983647.12342  21166524.150    21166519.929
  23122763.836    -8679915.08643  -6360663.41142  23122765.788    23122762.505
 03 12 26  3 30  0.0000000  0  8G29G30G15G26G21G 6G18G16
  23024950.547    -1808152.02143  -1404066.77842  23024952.778    23024949.447
  24213882.425     1527844.05543   1198348.02542  24213885.016    24213883.035
  23304433.410    -8032093.99543  -6210668.26142  23304435.142    23304433.419
  21987560.191    -6437863.21843  -4835071.62342  21987562.776    21987560.002
  20752916.058   -19360823.91544 -15036608.87142  20752917.949    20752913.058
  20541039.412   -20953290.84444 -16309405.86742  20541041.512    20541038.241
  21154812.375   -20908369.85544 -16031596.51642  21154814.385    21154810.130
  23117405.742    -8708071.63143  -6382603.57542  23117407.740    23117404.472
 03 12 26  3 30 30.0000000  0  8G29G30G15G26G21G 6G18G16
  23027425.819    -1795144.15943  -1393930.76442  23027427.912    23027424.523
  24233720.855     1632095.97943   1279583.26542  24233723.411    24233721.326
  23290606.381    -8104754.86643  -6267287.09342  23290608.203    23290606.347
  21982618.620    -6463829.84443  -4855305.33742  21982621.233    21982618.604
  20749158.058   -19380572.41744 -15051997.30542  20749159.962    20749155.044
  20547540.120   -20919129.58344 -16282786.70642  20547542.210    20547538.894
  21143182.598   -20969484.57844 -16079218.36342  21143184.657    21143180.269
  23112150.994    -8735684.83543  -6404120.33842  23112152.917    23112149.746
 03 12 26  3 31  0.0000000  0  8G29G30G15G26G21G 6G18G16
  23030004.885    -1781590.93243  -1383369.81142  23030006.924    23030003.343
  24253549.612     1736298.25743   1360779.83242  24253552.229    24253550.407
  23276796.828    -8177324.11943  -6323834.52442  23276798.638    23276796.711
  21977793.433    -6489186.47843  -4875063.73342  21977795.975    21977793.127
  20745438.455   -19400118.82144 -15067228.26542  20745440.399    20745435.500
  20554129.331   -20884503.35744 -16255805.24142  20554131.403    20554128.006
  21131633.473   -21030175.19644 -16126509.73742  21131635.539    21131631.121
  23107000.258    -8762751.32043  -6425211.10442  23107002.170    23106998.980
 03 12 26  3 31 30.0000000  0  8G29G30G15G26G21G 6G18G16
  23032686.928    -1767496.41843  -1372387.05242  23032689.120    23032685.193
  24273367.554     1840444.07743   1441932.39842  24273370.074    24273368.668
  23263004.178    -8249805.67043  -6380313.62542  23263005.817    23263003.731
  21973084.015    -6513935.33043  -4894348.51442  21973086.521    21973083.406
  20741756.684   -19419466.96044 -15082304.73742  20741758.637    20741753.710
  20560806.230   -20849416.12644 -16228464.54742  20560808.334    20560804.845
  21120164.488   -21090444.66144 -16173472.94242  21120166.516    21120162.208
  23101953.094    -8789274.28443  -6445878.34142  23101954.919    23101951.717
 03 12 26  3 32  0.0000000  0  8G29G30G15G26G21G 6G18G16
  23035472.393    -1752859.74443  -1360981.83542  23035474.512    23035470.122
  24293174.574     1944531.65743   1523039.59442  24293177.156    24293175.780
  23249228.216    -8322198.64643  -6436723.70942  23249229.906    23249227.721
  21968490.782    -6538073.82443  -4913157.69542  21968493.292    21968490.064
  20738112.779   -19438615.93144 -15097226.01242  20738114.756    20738109.790
  20567570.940   -20813867.07944 -16200764.00042  20567573.056    20567569.562
  21108776.086   -21150291.09144 -16220106.51342  21108778.032    21108773.873
  23097009.946    -8815252.15343  -6466120.82942  23097011.579    23097008.237
 03 12 26  3 32 30.0000000  0  8G29G30G15G26G21G 6G18G16
  23038361.277    -1737679.52043  -1349153.08342  23038363.465    23038358.698
  24312970.295     2048560.04243   1604100.62442  24312972.759    24312971.659
  23235469.481    -8394501.28843  -6493063.41242  23235471.116    23235468.882
  21964014.179    -6561598.89343  -4931488.90042  21964016.715    21964013.624
  20734507.080   -19457564.17344 -15111990.86942  20734509.092    20734504.037
  20574423.850   -20777854.86244 -16172702.54142  20574425.931    20574422.402
  21097468.653   -21209711.99344 -16266408.49642  21097470.586    21097466.512
  23092170.580    -8840683.12543  -6485937.17042  23092172.346    23092169.000
 03 12 26  3 33  0.0000000  0  8G29G30G15G26G21G 6G18G16
  23041353.354    -1721956.17443  -1336901.11942  23041355.609    23041350.759
  24332754.407     2152526.07243   1685113.06742  24332756.508    24332755.562
  23221727.931    -8466713.93943  -6549332.97842  23221729.590    23221727.180
  21959654.581    -6584509.17043  -4949341.05842  21959657.117    21959654.262
  20730939.486   -19476312.06644 -15126599.61442  20730941.534    20730936.403
  20581364.832   -20741379.82844 -16144280.44342  20581366.897    20581363.360
  21086242.230   -21268707.32744 -16312378.86742  21086244.170    21086240.125
  23087435.457    -8865566.95343  -6505327.15642  23087437.250    23087433.852
 03 12 26  3 33 30.0000000  0  8G29G30G15G26G21G 6G18G16
  23044448.913    -1705688.90843  -1324225.31342  23044451.170    23044446.469
  24352525.931     2256428.16943   1766075.69342  24352527.879    24352527.548
  23208003.658    -8538835.61143  -6605531.64842  23208005.486    23208002.900
  21955412.247    -6606802.14443  -4966712.18642  21955414.928    21955412.160
  20727410.247   -19494858.44144 -15141051.32942  20727412.307    20727407.124
  20588393.988   -20704441.34144 -16115497.21642  20588396.063    20588392.535
  21075097.172   -21327274.94344 -16358015.95242  21075099.122    21075095.134
  23082804.699    -8889902.22943  -6524289.70442  23082806.550    23082803.061
 03 12 26  3 34  0.0000000  0  8G29G30G15G26G21G 6G18G16
  23047647.995    -1688878.03043  -1311125.91842  23047650.237    23047645.705
  24372284.794    -5516836.26443  -4291013.53042  24372285.747    24372287.110
  23194296.727    -8610866.26743  -6661659.40942  23194298.619    23194295.977
  21951287.908    -6628476.37243  -4983601.19242  21951290.411    21951287.712
  20723919.342   -19513203.36144 -15155346.07242  20723921.355    20723916.189
  20595511.385   -20667039.37544 -16086352.83942  20595513.441    20595509.940
  21064033.671   -21385413.93844 -16403319.05142  21064035.698    21064031.689
  23078278.341    -8913688.39443  -6542824.38742  23078280.258    23078276.628
 03 12 26  3 34 30.0000000  0  8G29G30G15G26G21G 6G18G16
  23050949.448    -1671528.69643  -1297606.95042  23050951.703    23050947.372
  24392030.182    -5413075.00643  -4210160.63642  24392031.507    24392032.301
  23180606.064    -8682810.84143  -6717720.10642  23180607.962    23180605.399
  21947280.249    -6649535.30343  -5000010.75042  21947282.740    21947280.048
  20720465.732   -19531352.26544 -15169488.07242  20720467.716    20720462.559
  20602715.937   -20629179.37544 -16056851.54742  20602717.963    20602714.508
  21053050.919   -21443128.70844 -16448291.57742  21053053.004    21053048.913
  23073855.495    -8936930.21143  -6560934.89942  23073857.423    23073853.640
 03 12 26  3 35  0.0000000  0  8G29G30G15G26G21G 6G18G16
  23054355.046    -1653631.95943  -1283661.41542  23054357.290    23054353.156
  24411762.404    -5309381.37243  -4129360.43842  24411764.063    24411764.468
  23166933.619    -8754660.13843  -6773706.53842  23166935.469    23166932.829
  21943391.731    -6669968.25343  -5015932.53742  21943394.167    21943391.441
  20717051.285   -19549295.50444 -15183469.81342  20717053.222    20717048.049
  20610009.346   -20590852.10044 -16026986.14342  20610011.383    20610007.954
  21042150.819   -21500408.83344 -16492925.43042  21042152.897    21042148.774
  23069538.150    -8959617.95443  -6578613.65242  23069539.948    23069536.158
 03 12 26  3 35 30.0000000  0  8G29G30G15G26G21G 6G18G16
  23057862.536    -1635199.68343  -1269298.60742  23057864.747    23057860.926
  24431479.167    -5205769.54253  -4048623.98952  24431480.789    24431481.258
  23153277.043    -8826425.67043  -6829627.70742  23153278.853    23153276.109
  21939620.683    -6689785.31443  -5031374.39942  21939623.137    21939620.245
  20713673.686   -19567044.89144 -15197300.49642  20713675.602    20713670.459
  20617389.420   -20552069.48344 -15996765.92642  20617391.438    20617388.058
  21031331.379   -21557265.27644 -16537229.13942  21031333.405    21031329.219
  23065323.962    -8981762.94443  -6595869.48642  23065325.728    23065322.103
 03 12 26  3 36  0.0000000  0  7G29G15G26G21G 6G18G16
  23061475.424    -1616213.96543  -1254504.53142  23061477.605    23061473.930
  23139639.648    -8898089.41343  -6885469.55042  23139641.350    23139638.742
  21935970.766    -6708966.99743  -5046321.15742  21935973.161    21935969.861
  20710336.367   -19584582.02244 -15210965.79342  20710338.276    20710333.248
  20624859.564   -20512813.56544 -15966176.91042  20624861.599    20624858.252
  21020596.235   -21613679.30244 -16581188.10042  21020598.187    21020593.871
  23061216.539    -9003346.72743  -6612688.01842  23061218.286    23061214.878
 03 12 26  3 36 30.0000000  0  7G29G15G26G21G 6G18G16
  23065189.742    -1596695.05243  -1239294.99442  23065191.923    23065188.342
  23126018.067    -8969671.53843  -6941247.80242  23126019.578    23126017.006
  21932438.112    -6727531.91143  -5060787.30842  21932440.496    21932436.696
  20707035.717   -19601926.91644 -15224481.29342  20707037.529    20707032.661
  20632416.014   -20473104.51944 -15935234.79842  20632418.037    20632414.713
  21009941.517   -21669670.15444 -16624817.31842  21009943.525    21009939.080
  23057211.912    -9024389.12143  -6629084.66342  23057213.697    23057210.772
 03 12 26  3 37  0.0000000  0  7G29G15G26G21G 6G18G16
  23069007.230    -1576634.34543  -1223663.27142  23069009.380    23069005.929
  23112413.734    -9041162.88043  -6996955.30242  23112415.195    23112412.585
  21929024.527    -6745469.48543  -5074764.58542  21929027.154    21929022.863
  20703773.424   -19619070.43944 -15237839.88542  20703775.196    20703770.420
  20640060.335   -20432933.42344 -15903932.65142  20640062.391    20640059.118
  20999369.209   -21725227.88744 -16668109.04642  20999371.271    20999366.718
  23053312.567    -9044880.48843  -6645051.95542  23053314.170    23053311.298
 03 12 26  3 37 30.0000000  0  7G29G15G26G21G 6G18G16
  23072927.852    -1556030.75743  -1207608.53942  23072930.041    23072926.817
  23098826.836    -9112561.89843  -7052590.87842  23098828.306    23098825.777
  21925731.009    -6762777.20043  -5088251.10842  21925733.586    21925728.694
  20700549.630   -19636011.43144 -15251040.65042  20700551.385    20700546.678
  20647792.797   -20392299.34444 -15872269.74142  20647794.867    20647791.577
  20988879.732   -21780350.39644 -16711061.63742  20988881.804    20988877.202
  23049518.267    -9064819.44843  -6660588.80142  23049519.807    23049516.957
 03 12 26  3 38  0.0000000  0  7G29G15G26G21G 6G18G16
  23076951.030    -1534889.05543  -1191134.49842  23076953.135    23076950.115
  23085256.872    -9183872.65443  -7108157.68942  23085258.349    23085255.788
  21922556.993    -6779457.96443  -5101249.09442  21922559.432    21922553.935
  20697363.555   -19652754.14844 -15264086.91642  20697365.328    20697360.644
  20655612.487   -20351206.85344 -15840249.62742  20655614.578    20655611.229
  20978472.407   -21835041.25944 -16753677.87442  20978474.469    20978469.848
  23045828.470    -9084209.82543  -6675698.18542  23045829.961    23045827.037
 03 12 26  3 38 30.0000000  0  7G29G15G26G21G 6G18G16
  23081077.011    -1513206.74043  -1174239.18042  23081079.154    23081076.282
  23071704.442    -9255092.26043  -7163653.46242  23071705.958    23071703.183
  21919502.770    -6795507.71043  -5113755.36942  21919505.342    21919499.596
  20694215.901   -19669295.43144 -15276976.22242  20694217.662    20694212.944
  20663519.846   -20309653.40844 -15807870.32642  20663521.999    20663518.591
  20968147.853   -21889296.80444 -16795954.90842  20968149.908    20968145.366
  23042243.520    -9103048.68543  -6690377.81442  23042245.003    23042242.052
 03 12 26  3 39  0.0000000  0  8G29G30G15G26G21G 6G18G16
  23085305.876    -1490983.33543  -1156922.23842  23085308.050    23085305.393
  24569065.202
  23058169.270    -9326219.85943  -7219077.54642  23058170.885    23058168.156
  21916569.105    -6810924.19843  -5125768.19942  21916571.616    21916566.027
  20691106.631   -19685634.48344 -15289707.94642  20691108.412    20691103.751
  20671515.006   -20267638.48244 -15775131.42942  20671517.134    20671513.759
  20957906.335   -21943115.71344 -16837891.71042  20957908.352    20957904.031
  23038763.859    -9121334.94043  -6704626.83742  23038765.338    23038762.183
 03 12 26  3 39 30.0000000  0  8G29G30G15G26G21G 6G18G16
  23089635.922    -1468228.03043  -1139190.83742  23089638.117    23089635.636
  24588647.181
  23044649.783    -9397264.48343  -7274436.95242  23044651.540    23044648.843
  21913754.480    -6825715.01843  -5137293.50442  21913757.003    21913751.586
  20688034.174   -19701780.11244 -15302288.94742  20688035.950    20688031.315
  20679596.122   -20225171.52744 -15742040.30142  20679598.252    20679594.948
  20947746.442   -21996505.84144 -16879494.39842  20947748.434    20947744.311
  23035387.443    -9139077.32943  -6718452.06242  23035389.009    23035385.951
 03 12 26  3 40  0.0000000  0  8G29G30G15G26G21G 6G18G16
  23094068.980    -1444931.73943  -1121037.88042  23094071.160    23094068.785
  24608212.727       29128.37753    -18951.54152  24608215.585    24608210.486
  23031148.142    -9468216.16143  -7329723.95442  23031149.917    23031147.302
  21911061.036    -6839869.36343  -5148322.87342  21911063.465    21911058.508
  20685000.434   -19717722.33544 -15314711.46042  20685002.196    20684997.600
  20687765.063   -20182242.98444 -15708589.49742  20687767.152    20687763.942
  20937670.185   -22049457.11744 -16920755.12142  20937672.152    20937668.028
  23032116.657    -9156265.76943  -6731845.66142  23032118.134    23032114.931
 03 12 26  3 40 30.0000000  0  8G29G30G15G26G21G 6G18G16
  23098605.837    -1421090.75243  -1102460.50042  23098607.979    23098605.593
  24627759.837      131851.70143     61092.58442  24627762.841    24627758.953
  23017664.961    -9539070.80343  -7384935.34642  23017666.787    23017664.214
  21908489.754    -6853381.94543  -5158852.14742  21908492.257    21908487.618
  20682006.159   -19733457.21744 -15326972.40242  20682007.906    20682003.373
  20696022.667   -20138849.02944 -15674776.03242  20696024.659    20696021.513
  20927678.457   -22101964.47444 -16961669.92842  20927680.422    20927676.190
  23028951.976    -9172896.15143  -6744804.39142  23028953.602    23028949.965
 03 12 26  3 41  0.0000000  0  8G29G30G15G26G21G 6G18G16
  23103244.116    -1396716.24343  -1083467.38242  23103246.385    23103243.963
  24647286.903      234467.07143    141052.58542  24647290.231    24647285.763
  23004198.142    -9609839.25843  -7440079.57742  23004200.057    23004197.366
  21906038.861    -6866262.36543  -5168888.83042  21906041.356    21906036.958
  20679049.341   -19748995.32044 -15339080.00742  20679051.098    20679046.584
  20704366.683   -20095000.83544 -15640608.62342  20704368.642    20704365.536
  20917769.146   -22154038.41944 -17002247.01942  20917771.117    20917766.839
  23025891.616    -9188979.14643  -6757336.60342  23025893.290    23025889.012
 03 12 26  3 41 30.0000000  0  7G29G15G26G21G 6G18G16
  23107988.505    -1371784.61243  -1064040.14042  23107990.766    23107988.294
  22990752.369    -9680497.06343  -7495137.59042  22990754.232    22990751.423
  21903712.845    -6878485.30843  -5178413.21942  21903715.410    21903711.399
  20676134.563   -19764312.54444 -15351015.50442  20676136.314    20676131.830
  20712801.713   -20050674.63244 -15606068.73442  20712803.657    20712800.505
  20907947.086   -22205653.88144 -17042466.84942  20907949.081    20907944.777
  23022939.850    -9204490.48543  -6769423.35042  23022941.700    23022937.226
 03 12 26  3 42  0.0000000  0  7G29G15G26G21G 6G18G16
  23112831.872    -1346333.13943  -1044207.82442  23112834.172    23112831.441
  22977320.598    -9751080.66743  -7550137.77742  22977322.485    22977319.677
  21901505.228    -6890086.38743  -5187453.02642  21901507.732    21901504.152
  20673254.951   -19779445.30744 -15362807.26342  20673256.689    20673252.182
  20721320.588   -20005907.54844 -15571185.30142  20721322.579    20721319.407
  20898205.279   -22256847.17344 -17082357.72042  20898207.362    20898203.004
  23020089.934    -9219466.68343  -6781093.13442  23020091.807    23020087.455
 03 12 26  3 42 30.0000000  0  8G29G15G 2G26G21G 6G18G16
  23117776.686    -1320347.83143  -1023959.52042  23117779.032    23117776.155
  22963905.918    -9821575.47043  -7605068.76842  22963907.578    22963905.013
  25319292.022
  21899418.940    -6901049.83943  -5195995.97642  21899421.442    21899418.109
  20670413.075   -19794379.04444 -15374443.93842  20670414.855    20670410.396
  20729926.147   -19960685.28044 -15535947.17642  20729928.152    20729924.892
  20888546.801   -22307602.93444 -17121907.65042  20888548.847    20888544.469
  23017344.820    -9233893.14143  -6792334.52342  23017346.609    23017342.434
 03 12 26  3 43  0.0000000  0  9G29G15G 2G26G21G 6G18G23G16
  23122822.974    -1293829.87243  -1003296.16642  23122825.294    23122822.184
  22950507.818    -9891982.16243  -7659931.11542  22950509.402    22950507.106
  25309999.584
  21897454.000    -6911375.56543  -5204041.97842  21897456.445    21897453.261
  20667609.106   -19809114.10544 -15385925.80042  20667610.847    20667606.382
  20738618.073   -19915009.10544 -15500355.36442  20738620.111    20738616.780
  20878971.652   -22357921.15444 -17161116.64442  20878973.628    20878969.170
  24448010.745     -413668.19053   -271081.08452  24448012.816    24448012.238
  23014704.003    -9247770.50543  -6803148.05642  23014705.912    23014701.674
 03 12 26  3 43 30.0000000  0  9G29G15G 2G26G21G 6G18G23G16
  23127971.796    -1266772.76243   -982212.68842  23127974.160    23127970.816
  22937128.116    -9962293.46643  -7714719.12342  22937129.517    22937127.321
  25300780.864     -406231.61253   -169482.39452  25300783.403    25300777.415
  21895611.859    -6921055.15943  -5211584.51742  21895614.311    21895611.328
  20664844.325   -19823643.25844 -15397247.21542  20664846.047    20664841.497
  20747397.687   -19868872.18244 -15464404.52642  20747399.758    20747396.373
  20869481.235   -22407793.96544 -17199978.56842  20869483.224    20869478.693
  24429604.649     -510389.97743   -346448.66142  24429607.369    24429606.577
  23012169.231    -9261091.63343  -6813528.17342  23012171.064    23012166.659
 03 12 26  3 44  0.0000000  0  9G29G15G 2G26G21G 6G18G23G16
  23133223.032    -1239177.38543   -960709.78942  23133225.420    23133221.882
  22923766.312   -10032509.68743  -7769433.03742  22923767.831    22923765.424
  25291635.929     -454289.40643   -206930.07342  25291639.169    25291632.396
  21893892.712    -6930088.00843  -5218623.09442  21893895.068    21893892.366
  20662118.638   -19837966.80244 -15408408.41342  20662120.370    20662115.758
  20756264.771   -19822275.42544 -15428095.38542  20756266.856    20756263.462
  20860075.552   -22457221.35444 -17238493.40442  20860077.562    20860073.023
  24411235.407     -606922.11443   -421668.45042  24411238.290    24411237.490
  23009740.159    -9273856.92943  -6823475.15742  23009742.028    23009737.492
 03 12 26  3 44 30.0000000  0  9G29G15G 2G26G21G 6G18G23G16
  23138576.477    -1211044.74543   -938788.23742  23138578.892    23138575.310
  22910422.695   -10102630.94943  -7824072.94742  22910424.201    22910421.787
  25282563.874     -501961.05843   -244076.77842  25282566.601    25282560.747
  21892296.722    -6938473.45343  -5225157.20742  21892299.062    21892296.675
  20659432.041   -19852084.87344 -15419409.50442  20659433.784    20659429.114
  20765219.145   -19775219.57744 -15391428.49842  20765221.288    20765217.932
  20850754.647   -22506203.10944 -17276660.99842  20850756.661    20850752.140
  24392902.496     -703263.30943   -496739.44142  24392905.266    24392904.575
  23007416.868    -9286066.57543  -6832989.17842  23007418.771    23007413.972
